     2.10           OBSERVATION DATA    G (GPS)             RINEX VERSION / TYPE
teqc 2002Mar14 SOPAC 20050725 22:53:29UTC                   PGM / RUN BY / DATE
Linux 2.0.36|Pentium II|gcc -static|Linux|486/DX+           COMMENT
BIT 2 OF LLI FLAGS DATA COLLECTED UNDER A/S CONDITION       COMMENT
HPGN CA 01 08                                               MARKER NAME
0108                                                        MARKER NUMBER
Jason Long                                                  OBSERVER / AGENCY
0220247382 TRIMBLE 5700 2.01                                REC # / TYPE / VERS
12237024 TRM41249.00 NONE                                   ANT # / TYPE
 -2667856.0000 -4031686.0000  4147300.0000                  APPROX POSITION XYZ
        2.0000        0.0000        0.0000                  ANTENNA: DELTA H/E/N
     1     1                                                WAVELENGTH FACT L1/2
     6    L1    L2    C1    P2    P1    D1                  # / TYPES OF OBSERV
    15.0000                                                 INTERVAL
Northern California Height Modernization 2004               COMMENT
                                                            COMMENT
SOPAC - Scripps Orbit and Permanent Array Center            COMMENT
IGPP - Institute of Geophysics and Planetary Physics        COMMENT
SIO - Scripps Institution of Oceanography                   COMMENT
UCSD - University of California, San Diego                  COMMENT
                                                            COMMENT
email: archive@gpsmail.ucsd.edu                             COMMENT
ftp://garner.ucsd.edu                                       COMMENT
http://sopac.ucsd.edu                                       COMMENT
                                                            COMMENT
                                                            COMMENT
Approximate Lat, Lon : 40.815, -123.493                     COMMENT
                                                            COMMENT
SNR is mapped to RINEX snr flag value [1-9]                 COMMENT
L1: 3 -> 1; 8 -> 5; 40 -> 9                                 COMMENT
L2: 1 -> 1; 5 -> 5; 60 -> 9                                 COMMENT
  2004     9    10    14    57   30.0000000     GPS         TIME OF FIRST OBS
                                                            END OF HEADER
 04  9 10 14 57 30.0000000  0  7G 1G11G14G15G19G22G25
   -312868.78159   -240968.50857  22514045.1484   22514042.8554

   -206118.70759   -159900.34857  22013647.0474   22013643.5594

    418431.84459    311945.87958  20964248.9304   20964245.4144

    727620.49259    545580.42257  23169143.2034   23169142.1954

    525751.43859    391503.17257  23328776.3444   23328772.4104

    500412.01659    375796.07057  22809169.4534   22809165.3914

   -327343.14159   -251943.29757  22299898.8134   22299896.3794

 04  9 10 14 57 45.0000000  0  7G 1G11G14G15G19G22G25
   -340713.96149   -262666.06247  22508746.5164   22508744.4924
      1856.3454
   -223941.88349   -173788.54347  22010255.6174   22010251.8244
      1188.2124
    457773.66849    342601.82848  20971735.4224   20971732.1454
     -2622.7884
    795140.86749    598193.65247  23181991.7584   23181991.3054
     -4501.3584
    576477.00049    431029.54747  23338429.4384   23338425.0744
     -3381.7044
    546989.82849    412090.43047  22818033.1254   22818029.2234
     -3105.1874
   -356443.06649   -274618.54747  22294361.0704   22294358.5314
      1939.9954
 04  9 10 14 58  0.0000000  0  7G 1G11G14G15G19G22G25
   -368405.74249   -284244.09447  22503476.9694   22503475.2114
      1846.1194
   -241577.93749   -187530.92647  22006899.2034   22006895.6484
      1175.7374
    497281.10249    373386.82448  20979253.6884   20979250.1374
     -2633.8294
    862796.96549    650912.64847  23194867.1094   23194866.0664
     -4510.4074
    627353.73449    470673.72747  23348110.2734   23348106.7424
     -3391.7824
    593686.63749    448477.50847  22826919.5474   22826915.1524
     -3113.1214
   -385382.25049   -297168.53547  22288854.1174   22288851.5744
      1929.2794
 04  9 10 14 58 15.0000000  0  7G 1G11G14G15G19G22G25
   -395948.29349   -305705.82847  22498235.3914   22498234.2464
      1836.1704
   -259030.87549   -201130.63747  22003578.2194   22003574.8984
      1163.5294
    536949.50449    404297.24648  20986802.3674   20986798.9804
     -2644.5604
    930584.27349    703733.87547  23207766.3134   23207765.6374
     -4519.1544
    678376.94949    510432.02047  23357819.8364   23357816.9534
     -3401.5484
    640498.05149    484953.88347  22835827.5944   22835823.6844
     -3120.7614
   -414164.60549   -319596.34447  22283377.0474   22283374.5314
      1918.8244
 04  9 10 14 58 30.0000000  0  7G 1G11G14G15G19G22G25
   -423348.00849   -327056.25847  22493021.4144   22493019.5784
      1826.6484
   -276306.92649   -214592.50847  22000290.6564   22000287.3164
      1151.7374
    576772.24649    435327.94548  20994380.3754   20994376.8834
     -2654.8494
    998496.12149    756652.14847  23220689.6094   23220688.7624
     -4527.4574
    729539.85949    550299.21147  23367556.3054   23367552.8364
     -3410.8614
    687417.65249    521514.57447  22844755.7194   22844752.4924
     -3127.9734
   -442796.25049   -341906.69947  22277928.8364   22277926.1724
      1908.7764
 04  9 10 14 58 45.0000000  0  7G 1G11G14G15G19G22G25
   -450608.80149   -348298.43447  22487833.8134   22487832.6954
      1817.3864
   -293409.96949   -227919.56247  21997035.6954   21997032.5004
      1140.2034
    616744.85949    466475.41048  21001986.9844   21001983.1414
     -2664.8414
   1066528.09449    809664.01247  23233635.4454   23233634.3284
     -4535.4654
    780837.91849    590271.69147  23377317.4924   23377314.1254
     -3419.8714
    734441.31349    558156.34847  22853703.8914   22853700.8054
     -3134.9114
   -471281.02049   -364102.61747  22272508.2424   22272505.4384
      1898.9854
 04  9 10 14 59  0.0000000  0  7G 1G11G14G15G19G22G25
   -477732.58249   -369433.84447  22482672.2734   22482670.2304
      1808.2524
   -310341.68049   -241113.11747  21993814.3444   21993810.3714
      1128.7814
    656865.07449    497737.89848  21009621.2664   21009617.7584
     -2674.6814
   1134677.93849    862767.73447  23246604.2734   23246603.1334
     -4543.3234
    832268.81649    630347.68447  23387104.7194   23387101.1454
     -3428.7274
    781567.05949    594877.63347  22862671.7504   22862668.1684
     -3141.7164
   -499620.63749   -386185.41847  22267115.2344   22267113.2344
      1889.3084
 04  9 10 14 59 15.0000000  0  7G 1G11G14G15G19G22G25
   -504722.10249   -390464.66447  22477536.1334   22477534.6484
      1799.3014
   -327104.72749   -254175.25447  21990624.5164   21990620.5164
      1117.5364
    697129.90249    529113.07448  21017283.4064   21017279.9454
     -2684.3224
   1202942.48049    915960.80947  23259594.2894   23259593.4774
     -4550.9704
    883829.36749    670524.71147  23396916.8914   23396913.1134
     -3437.3704
    828791.94149    631676.20347  22871658.3984   22871654.1994
     -3148.3264
   -527817.53949   -408157.01647  22261749.5554   22261748.1414
      1879.7934
 04  9 10 14 59 30.0000000  0  7G 1G11G14G15G19G22G25
   -531581.81649   -411394.32847  22472425.7344   22472423.5164
      1790.6484
   -343703.41449   -267109.32047  21987466.0474   21987462.0004
      1106.5794
    737534.44549    560597.11348  21024972.2034   21024969.0434
     -2693.6364
   1271316.84849    969239.47347  23272605.8134   23272604.6294
     -4558.2914
    935514.53949    710798.86747  23406752.0164   23406748.5704
     -3445.6784
    876111.28949    668548.37147  22880663.5084   22880658.6884
     -3154.6234
   -555876.02349   -430020.75447  22256409.9064   22256408.5004
      1870.5664
 04  9 10 14 59 45.0000000  0  7G 1G11G14G15G19G22G25
   -558315.44149   -432225.71947  22467338.2894   22467336.6374
      1782.2424
   -360141.25849   -279918.03947  21984337.8284   21984333.7544
      1095.8564
    778074.69549    592186.91048  21032686.7974   21032683.6994
     -2702.6834
   1339796.92249   1022600.53547  23285637.3914   23285635.7974
     -4565.3384
    987320.09049    751166.80147  23416610.0784   23416607.1024
     -3453.7034
    923521.43049    705491.29347  22889684.7974   22889680.9844
     -3160.6764
   -583799.57449   -451779.34447  22251096.3444   22251094.5004
      1861.5704
 04  9 10 15  0  0.0000000  0  7G 1G11G14G15G19G22G25
   -584925.72749   -452961.00447  22462274.8984   22462272.9414
      1774.0194
   -376420.84049   -292603.43047  21981239.6884   21981235.5744
      1085.3054
    818747.51249    623879.99648  21040426.6644   21040423.4454
     -2711.5214
   1408379.70749   1076041.62147  23298688.0474   23298686.9454
     -4572.1864
   1039242.76649    791626.01247  23426491.3524   23426487.4734
     -3461.5124
    971019.39849    742502.65247  22898723.8674   22898719.1884
     -3166.5314
   -611590.60249   -473434.67247  22245807.6804   22245805.5164
      1852.7354
 04  9 10 15  0 15.0000000  0  7G 1G11G14G15G19G22G25
   -611415.67649   -473602.51647  22457233.5004   22457232.3244
      1765.9974
   -392545.12149   -305167.81647  21978171.5394   21978167.3054
      1074.9524
    859549.50049    655673.73848  21048190.8524   21048187.4614
     -2720.1334
   1477061.72349   1129560.02747  23311757.6094   23311756.0124
     -4578.8014
   1091279.09449    832173.77747  23436393.8834   23436388.9964
     -3469.0894
   1018602.10249    779580.04747  22907778.8054   22907773.6374
     -3172.1804
   -639252.03549   -494989.03547  22240544.3054   22240541.9774
      1844.0964
 04  9 10 15  0 30.0000000  0  7G 1G11G14G15G19G22G25
   -637786.73049   -494151.38347  22452215.5474   22452213.8014
      1758.0704
   -408515.37549   -317612.19147  21975132.2814   21975127.9734
      1064.6844
    900479.00849    687566.84448  21055979.4614   21055976.7074
     -2728.6344
   1545841.18849   1183154.37147  23324845.9454   23324845.1054
     -4585.2984
   1143427.17249    872808.59847  23446316.8054   23446312.4184
     -3476.5394
   1066267.91849    816722.21147  22916848.7424   22916844.6174
     -3177.7214
   -666785.02049   -516443.29347  22235304.9384   22235302.4884
      1835.5324
 04  9 10 15  0 45.0000000  0  7G 1G11G14G15G19G22G25
   -664041.57449   -514609.73447  22447219.2194   22447217.5704
      1750.3234
   -424334.14149   -329938.51247  21972122.6254   21972117.9694
      1054.5844
    941532.78149    719556.78148  21063792.2194   21063788.8444
     -2736.9184
   1614714.96149   1236822.18847  23337952.2734   23337952.0044
     -4591.5854
   1195683.71149    913527.93447  23456260.8914   23456256.5784
     -3483.7694
   1114014.05949    853926.93047  22925934.7664   22925930.6484
     -3183.0764
   -694192.25049   -537799.55947  22230089.4304   22230086.3134
      1827.1494
 04  9 10 15  1  0.0000000  0  7G 1G11G14G15G19G22G25
   -690183.08249   -534979.73447  22442244.1484   22442243.2114
      1742.7674
   -440004.21149   -342148.96147  21969140.1954   21969136.2934
      1044.6714
    982707.69149    751641.10548  21071627.5784   21071624.0044
     -2744.9944
   1683679.85949   1290561.00047  23351075.6564   23351075.3134
     -4597.6604
   1248045.54749    954329.32447  23466224.7664   23466220.4064
     -3490.7894
   1161837.60949    891192.00847  22935035.5944   22935031.7624
     -3188.2374
   -721476.30149   -559059.85547  22224897.4064   22224894.7894
      1818.9374
 04  9 10 15  1 15.0000000  0  7G 1G11G14G15G19G22G25
   -716213.67249   -555263.32447  22437290.7584   22437289.8324
      1735.3734
   -455527.87149   -354245.32847  21966186.0864   21966182.5944
      1034.9114
   1024001.05549    783817.73848  21079485.4304   21079482.2384
     -2752.8914
   1752733.11349   1344368.66447  23364216.1484   23364215.8364
     -4603.5504
   1300509.71149    995210.46947  23476208.1884   23476204.5354
     -3497.6114
   1209735.91449    928515.30547  22944149.9534   22944146.0164
     -3193.2204
   -748639.32449   -580225.84447  22219728.5084   22219725.9924
      1810.8684
 04  9 10 15  1 30.0000000  0  7G 1G11G14G15G19G22G25
   -742134.23449   -575461.16047  22432358.3134   22432357.3484
      1728.0374
   -470905.80149   -366228.13747  21963260.2344   21963255.8594
      1025.1954
   1065411.49249    816085.58648  21087365.2034   21087362.2344
     -2760.6964
   1821873.48849   1398244.21947  23377373.1024   23377372.8874
     -4609.3584
   1353074.82049   1036170.26247  23486211.3754   23486208.0084
     -3504.3414
   1257707.97349    965896.08647  22953279.0784   22953274.6374
     -3198.1374
   -775681.93049   -601297.98847  22214582.2114   22214580.1914
      1802.8404
 04  9 10 15  1 45.0000000  0  7G 1G11G14G15G19G22G25
   -767947.33649   -595575.27047  22427446.6954   22427445.6564
      1720.8734
   -486140.38349   -378099.25847  21960360.9384   21960356.7154
      1015.6394
   1106936.12149    848442.43048  21095267.2584   21095264.0514
     -2768.3094
   1891097.95749   1452185.29347  23390546.1414   23390546.4144
     -4614.9654
   1405737.73049   1077206.27347  23496232.0944   23496229.7894
     -3510.8614
   1305751.00849   1003332.19547  22962421.1174   22962416.3914
     -3202.8694
   -802606.58249   -622278.22747  22209458.6804   22209456.8094
      1794.9774
 04  9 10 15  2  0.0000000  0  7G 1G11G14G15G19G22G25
   -793654.91449   -615607.17647  22422554.6884   22422553.6334
      1713.8394
   -501233.47349   -389860.11347  21957488.8834   21957484.5744
      1006.2064
   1148572.68449    880886.48848  21103190.4454   21103187.0434
     -2775.7714
   1960404.25049   1506190.12547  23403734.5704   23403734.4734
     -4620.4204
   1458496.15249   1118316.71547  23506272.1254   23506268.6134
     -3517.2284
   1353863.12949   1040822.12147  22971576.7734   22971572.2274
     -3207.4754
   -829415.08249   -643167.95747  22204357.2664   22204354.9924
      1787.2334
 04  9 10 15  2 15.0000000  0  7G 1G11G14G15G19G22G25
   -819257.61349   -635557.30947  22417682.3674   22417681.6954
      1706.8474
   -516185.66849   -401511.18447  21954643.5474   21954639.5434
       996.8134
   1190320.18049    913416.97348  21111134.7114   21111131.2934
     -2783.1664
   2029791.31649   1560257.93447  23416938.7194   23416938.9844
     -4625.8044
   1511348.94949   1159500.68047  23516329.9144   23516326.5744
     -3523.5204
   1402043.59049   1078365.29347  22980745.0394   22980741.3164
     -3212.0314
   -856107.70349   -663967.39147  22199277.7034   22199275.7194
      1779.5084
 04  9 10 15  2 30.0000000  0  7G 1G11G14G15G19G22G25
   -844756.77749   -655426.77047  22412830.2664   22412828.7504
      1699.9444
   -530998.07049   -413053.34047  21951825.1254   21951821.1134
       987.4934
   1232176.87149    946032.56648  21119099.8754   21119096.5084
     -2790.4464
   2099257.44949   1614387.32846  23430158.1724   23430157.8634
     -4631.0764
   1564294.21149   1200756.68047  23526405.0634   23526402.2034
     -3529.6844
   1450290.78549   1115960.47347  22989926.4454   22989921.6884
     -3216.4804
   -882685.66449   -684677.47747  22194220.0164   22194218.3594
      1771.8644
 04  9 10 15  2 45.0000000  0  7G 1G11G14G15G19G22G25
   -870153.74649   -675216.60247  22407997.4534   22407995.6334
      1693.1314
   -545671.83249   -424487.44947  21949032.4924   21949028.7624
       978.2514
   1274141.15649    978731.99648  21127085.1884   21127082.0124
     -2797.6194
   2168800.99649   1668577.05547  23443391.3524   23443392.0234
     -4636.2364
   1617330.12949   1242083.32447  23536497.5004   23536493.5394
     -3535.7284
   1498603.39549   1153606.61347  22999119.8134   22999115.0824
     -3220.8414
   -909149.83649   -705298.89547  22189184.2504   22189182.1374
      1764.2784
 04  9 10 15  3  0.0000000  0  7G 1G11G14G15G19G22G25
   -895448.50049   -694926.79347  22403183.7034   22403181.8204
      1686.3174
   -560206.73849   -435813.35247  21946266.9064   21946263.0784
       968.9944
   1316212.60949   1011514.92248  21135091.2894   21135087.8324
     -2804.7644
   2238421.52349   1722826.75847  23456639.8834   23456640.2934
     -4641.3684
   1670456.25449   1283480.27047  23546606.7504   23546602.5664
     -3541.7424
   1546981.23449   1191303.59447  23008326.0554   23008320.9144
     -3225.1894
   -935500.14549   -725831.57847  22184169.9384   22184167.7274
      1756.6874
 04  9 10 15  3 15.0000000  0  7G 1G11G14G15G19G22G25
   -920642.69549   -714558.64147  22398389.5394   22398387.8914
      1679.6134
   -574604.45349   -447032.36347  21943526.4844   21943522.8954
       959.8484
   1358389.27349   1044379.83248  21143117.1094   21143113.7704
     -2811.7784
   2308117.01249   1777134.88347  23469902.6954   23469902.5744
     -4646.3664
   1723670.49249   1324945.85947  23556733.0394   23556728.8244
     -3547.6164
   1595422.55549   1229050.04747  23017544.3054   23017539.6484
     -3229.4214
   -961738.12949   -746276.75047  22179177.1954   22179174.4064
      1749.1994
 04  9 10 15  3 30.0000000  0  7G 1G11G14G15G19G22G25
   -945738.53549   -734113.84847  22393613.6174   22393612.2774
      1673.0564
   -588867.07049   -458146.10247  21940812.5634   21940808.6604
       950.8414
   1400668.53149   1077324.69148  21151162.7734   21151159.3364
     -2818.6174
   2377884.82849   1831499.36747  23483179.0554   23483178.6454
     -4651.1884
   1776970.11349   1366478.01647  23566875.5394   23566870.9494
     -3553.3084
   1643925.05149   1266844.15247  23026773.6804   23026769.7034
     -3233.5004
   -987865.77049   -766635.94547  22174205.0864   22174202.2274
      1741.8434
 04  9 10 15  3 45.0000000  0  7G 1G11G14G15G19G22G25
   -970736.60949   -753592.86347  22388857.2114   22388855.6604
      1666.5384
   -602994.93749   -469154.84447  21938124.3444   21938120.0274
       941.8584
   1443049.55149   1110348.84448  21159227.8364   21159224.2304
     -2825.4014
   2447724.01249   1885919.44947  23496468.9064   23496468.4184
     -4655.9464
   1830353.89149   1408075.73047  23577034.8204   23577030.8874
     -3558.9184
   1692488.03149   1304685.38747  23036014.8984   23036011.0594
     -3237.5324
  -1013883.52049   -786909.50847  22169254.3594   22169251.0274
      1734.5174
 04  9 10 15  4  0.0000000  0  7G 1G11G14G15G19G22G25
   -995639.65649   -772997.84047  22384118.6094   22384117.0274
      1660.2034
   -616990.67649   -480060.62547  21935460.7974   21935457.1094
       933.0494
   1485529.14849   1143449.80948  21167311.3444   21167307.7274
     -2831.9734
   2517631.48849   1940392.75047  23509772.1024   23509771.8834
     -4660.4984
   1883818.69549   1449736.61747  23587208.7424   23587204.5984
     -3564.3204
   1741108.59849   1342571.50847  23045267.1414   23045262.6174
     -3241.3714
  -1039793.71949   -807099.27047  22164323.7504   22164320.7584
      1727.3474
 04  9 10 15  4 15.0000000  0  7G 1G11G14G15G19G22G25
  -1020447.08249   -792328.30147  22379397.6724   22379396.1294
      1653.8284
   -630853.70349   -490862.99247  21932822.8984   21932819.3284
       924.2024
   1528107.59049   1176627.80948  21175413.7664   21175410.0314
     -2838.5634
   2587607.46149   1994919.44147  23523087.8204   23523087.0084
     -4665.0654
   1937364.65649   1491460.71147  23597398.0084   23597394.7774
     -3569.7314
   1789787.10949   1380502.78547  23054530.1804   23054526.1374
     -3245.2344
  -1065595.71549   -827204.70347  22159413.6954   22159410.9024
      1720.1334
 04  9 10 15  4 30.0000000  0  7G 1G11G14G15G19G22G25
  -1045161.51649   -811586.29347  22374694.9844   22374693.3834
      1647.6294
   -644586.36749   -501563.79747  21930209.7344   21930205.9694
       915.5114
   1570781.96949   1209880.54748  21183534.3054   21183531.0744
     -2844.9594
   2657648.96149   2049497.18847  23536416.0474   23536415.7624
     -4669.4334
   1990988.71549   1533245.65647  23607603.2814   23607598.6094
     -3574.9374
   1838520.88349   1418477.11347  23063804.1644   23063799.9574
     -3248.9184
  -1091291.96549   -847227.74647  22154523.8524   22154520.8324
      1713.0834
 04  9 10 15  4 45.0000000  0  7G 1G11G14G15G19G22G25
  -1069782.22349   -830771.25847  22370009.1484   22370008.2304
      1641.3804
   -658187.75849   -512162.29347  21927621.2504   21927617.7274
       906.7594
   1613552.59849   1243208.30548  21191673.2344   21191669.9574
     -2851.3754
   2727756.22749   2104126.16847  23549758.0164   23549757.4224
     -4673.8184
   2044691.02349   1575091.58647  23617822.0314   23617817.0084
     -3580.1544
   1887310.56349   1456494.98447  23073088.9064   23073085.2274
     -3252.6454
  -1116881.39849   -867167.53947  22149653.8984   22149651.5434
      1705.9624
 04  9 10 15  5  0.0000000  0  7G 1G11G14G15G19G22G25
  -1094308.62149   -849882.73447  22365342.1644   22365340.9344
      1635.0934
   -671657.23049   -522657.98847  21925058.3444   21925054.5474
       897.9654
   1656419.74649   1276611.25048  21199830.8524   21199827.5354
     -2857.8104
   2797929.65249   2158806.69547  23563111.3594   23563111.2424
     -4678.2284
   2098471.73849   1616998.59847  23628055.8984   23628051.1844
     -3585.3814
   1936156.68849   1494556.85547  23082384.0554   23082380.8164
     -3256.4084
  -1142363.30949   -887023.55547  22144804.8594   22144802.7234
      1698.7944
 04  9 10 15  5 15.0000000  0  7G 1G11G14G15G19G22G25
  -1118741.59449   -868921.42647  22360693.0004   22360690.7034
      1628.8654
   -684995.50449   -533051.46947  21922520.1804   21922516.6134
       889.2184
   1699382.15249   1310088.43848  21208005.9844   21208002.6054
     -2864.1604
   2868167.93049   2213537.75846  23576477.0634   23576476.9534
     -4682.5524
   2152329.50449   1658965.65647  23638304.5234   23638300.7734
     -3590.5184
   1985058.15649   1532661.84847  23091689.3594   23091686.1374
     -3260.0984
  -1167738.45749   -906796.37947  22139975.8754   22139974.2704
      1691.6774
 04  9 10 15  5 30.0000000  0  7G 1G11G14G15G19G22G25
  -1143081.67249   -887887.71947  22356061.0234   22356058.7234
      1622.6724
   -698203.15649   -543343.16047  21920007.1024   21920003.4024
       880.5104
   1742438.88749   1343639.11748  21216199.6414   21216195.9414
     -2870.4494
   2938470.04349   2268318.56347  23589855.3914   23589855.4304
     -4686.8084
   2206263.32449   1700991.97747  23648568.3914   23648563.6844
     -3595.5884
   2034014.32049   1570809.46147  23101005.3674   23101001.9304
     -3263.7444
  -1193007.03149   -926486.15647  22135167.7664   22135165.6214
      1684.5724
 04  9 10 15  5 45.0000000  0  7G 1G11G14G15G19G22G25
  -1167330.19949   -906782.66447  22351446.5234   22351444.2384
      1616.5684
   -711281.27049   -553533.89147  21917517.8674   21917514.0234
       871.8744
   1785588.24649   1377261.97748  21224410.5864   21224406.8754
     -2876.6244
   3008834.28949   2323147.78946  23603244.9844   23603245.3554
     -4690.9504
   2260271.24249   1743076.05147  23658845.2584   23658841.3134
     -3600.5284
   2083023.71149   1608998.55147  23110331.6804   23110327.7274
     -3267.2934
  -1218170.20749   -946093.80947  22130379.2894   22130376.8554
      1677.5454
 04  9 10 15  6  0.0000000  0  7G 1G11G14G15G19G22G25
  -1191487.04749   -925606.17247  22346849.4224   22346847.1134
      1610.4574
   -724229.52349   -563623.44947  21915054.2034   21915050.4384
       863.2174
   1828830.03949   1410956.85948  21232639.6804   21232635.6684
     -2882.7864
   3079260.44949   2378025.28146  23616646.5784   23616646.2934
     -4695.0774
   2314352.99649   1785217.63347  23669136.1644   23669132.6334
     -3605.4504
   2132086.36349   1647229.14847  23119667.3594   23119664.0944
     -3270.8434
  -1243227.62949   -965619.05947  22125610.9384   22125608.4454
      1670.4954
 04  9 10 15  6 15.0000000  0  7G 1G11G14G15G19G22G25
  -1215553.80149   -944359.47347  22342269.9774   22342268.0514
      1604.4504
   -737049.30949   -573612.91047  21912614.6564   21912610.6254
       854.6524
   1872162.37549   1444722.29348  21240885.1884   21240881.7664
     -2888.8224
   3149746.57449   2432949.49246  23630060.3754   23630059.2664
     -4699.0754
   2368506.54349   1827415.18447  23679441.7424   23679436.5704
     -3610.2364
   2181200.61749   1685499.93047  23129014.1564   23129010.0744
     -3274.2844
  -1268180.51649   -985062.85547  22120862.7424   22120860.2424
      1663.5264
 04  9 10 15  6 30.0010000  0  7G 1G11G14G15G19G22G25
  -1239533.57849   -963045.02047  22337706.6304   22337705.0834
      1598.6524
   -749742.83649   -583503.97347  21910199.1384   21910195.4584
       846.2354
   1915586.33249   1478559.12948  21249148.6144   21249145.0634
     -2894.9304
   3220295.51649   2487922.65246  23643484.9974   23643484.1694
     -4703.2634
   2422733.49249   1869669.93847  23689760.9894   23689755.5994
     -3615.1304
   2230368.08649   1723812.19147  23138370.9664   23138366.8764
     -3277.8314
  -1293031.91449  -1004427.55947  22116133.7554   22116131.4814
      1656.7604
 04  9 10 15  6 45.0010000  0  7G 1G11G14G15G19G22G25
  -1263424.24649   -981661.11347  22333160.5754   22333158.9664
      1592.7114
   -762309.50449   -593296.18447  21907807.8964   21907804.0444
       837.7784
   1959094.60549   1512461.65648  21257428.3334   21257424.6424
     -2900.5524
   3290896.30949   2542936.22346  23656919.7084   23656919.4074
     -4706.7204
   2477024.93049   1911974.89547  23700091.9974   23700087.2084
     -3619.4294
   2279581.05149   1762159.91047  23147735.6464   23147731.4584
     -3280.8644
  -1317779.43449  -1023711.32847  22111424.5054   22111422.2824
      1649.8354
 04  9 10 15  7  0.0010000  0  7G 1G11G14G15G19G22G25
  -1287227.34049  -1000208.97347  22328630.8644   22328629.7044
      1586.8734
   -774749.84449   -602989.94547  21905440.7634   21905436.6924
       829.3564
   2002689.89549   1546431.99648  21265723.6224   21265720.5244
     -2906.3534
   3361553.50049   2597993.71946  23670365.4424   23670365.4314
     -4710.4794
   2531384.19149   1954332.72747  23710436.8254   23710431.5564
     -3623.9514
   2328842.71949   1800545.57847  23157110.1224   23157106.0324
     -3284.1114
  -1342424.48849  -1042915.25047  22106734.5994   22106732.2744
      1643.0044
 04  9 10 15  7 15.0010000  0  7G 1G11G14G15G19G22G25
  -1310939.90249  -1018686.29347  22324118.6464   22324116.7354
      1580.8384
   -787060.72349   -612582.85247  21903097.7944   21903093.6534
       820.7254
   2046374.85949   1580472.20348  21274036.9114   21274033.1494
     -2912.3314
   3432269.68449   2653097.19946  23683822.1224   23683822.1424
     -4714.4124
   2585813.70749   1996745.31347  23720793.3724   23720789.9074
     -3628.6344
   2378156.01649   1838971.49247  23166494.3024   23166490.1464
     -3287.5534
  -1366963.93749  -1062036.87947  22102065.1224   22102062.9664
      1635.9634
 04  9 10 15  7 30.0010000  0  7G 1G11G14G15G19G22G25
  -1334564.87549  -1037095.34847  22319622.7084   22319620.2244
      1574.9984
   -799245.05549   -622077.13747  21900779.3334   21900774.9744
       812.2894
   2090146.13349   1614579.66048  21282366.3334   21282362.7084
     -2918.0854
   3503041.50449   2708244.00846  23697289.5444   23697289.3024
     -4718.1214
   2640310.13749   2039210.03147  23731164.7314   23731160.1734
     -3633.0954
   2427517.85949   1877435.22347  23175886.7784   23175883.5174
     -3290.7904
  -1391400.35249  -1081078.23047  22097414.5754   22097413.0244
      1629.0944
 04  9 10 15  7 45.0010000  0  7G 1G11G14G15G19G22G25
  -1358102.03549  -1055436.00847  22315144.5524   22315141.0524
      1569.1444
   -811302.50049   -631472.56247  21898484.7554   21898480.8684
       803.8304
   2134003.53149   1648754.23848  21290711.9504   21290708.5324
     -2923.8274
   3573868.78549   2763434.03146  23710767.5604   23710767.3604
     -4721.8194
   2694873.13349   2081726.64547  23741547.8254   23741543.2284
     -3637.5334
   2476928.33649   1915936.84447  23185289.2394   23185286.2744
     -3294.0324
  -1415733.32049  -1100038.96547  22092784.2634   22092782.3884
      1622.1984
 04  9 10 15  8  0.0010000  0  7G 1G11G14G15G19G22G25
  -1381552.11749  -1073708.80947  22310682.2474   22310679.0994
      1563.3394
   -823233.55949   -640769.50847  21896214.4274   21896210.1574
       795.4044
   2177946.16849   1682995.23448  21299074.3564   21299070.7164
     -2929.5094
   3644750.35249   2818666.35246  23724256.2474   23724255.5634
     -4725.4384
   2749501.55149   2124294.24247  23751943.1534   23751937.7514
     -3641.8954
   2526386.59449   1954475.68847  23194700.5834   23194697.0284
     -3297.2174
  -1439963.36749  -1118919.50047  22088173.4664   22088171.9074
      1615.3364
 04  9 10 15  8 15.0010000  0  7G 1G11G14G15G19G22G25
  -1404915.84849  -1091914.30547  22306235.7314   22306233.3994
      1557.5824
   -835038.78949   -649968.41047  21893968.2944   21893963.7314
       787.0154
   2221972.93449   1717301.77748  21307451.9974   21307448.9744
     -2935.1184
   3715685.17649   2873940.17246  23737755.4034   23737754.0634
     -4728.9884
   2804194.23849   2166911.90247  23762350.9744   23762345.8534
     -3646.1794
   2575891.80549   1993051.10947  23204121.4584   23204117.4544
     -3300.3474
  -1464091.02349  -1137720.25447  22083582.1224   22083580.9354
      1608.5104
 04  9 10 15  8 30.0010000  0  7G 1G11G14G15G19G22G25
  -1428194.07849  -1110053.17647  22301805.9974   22301804.2714
      1551.8824
   -846719.00449   -659069.87947  21891745.4354   21891741.0674
       778.6814
   2266082.56649   1751672.90247  21315845.7714   21315842.6654
     -2940.6424
   3786671.95349   2929254.51646  23751262.7714   23751262.6534
     -4732.4524
   2858949.79349   2209578.54347  23772770.1924   23772765.4664
     -3650.3704
   2625442.93849   2031662.33247  23213551.3174   23213547.1814
     -3303.4094
  -1488116.92649  -1156441.71947  22079010.2944   22079008.5404
      1601.7274
 04  9 10 15  8 45.0010000  0  7G 1G11G14G15G19G22G25
  -1451385.94949  -1128124.73447  22297392.3964   22297391.1264
      1546.1254
   -858273.32049   -668073.24647  21889546.6224   21889542.1884
       770.2884
   2310275.60549   1786109.02048  21324255.8644   21324252.1424
     -2946.2034
   3857711.20749   2984609.73446  23764781.3564   23764780.8724
     -4735.9504
   2913768.50849   2252294.41047  23783201.9504   23783197.4354
     -3654.5814
   2675040.82049   2070309.98447  23222988.9424   23222985.6304
     -3306.5264
  -1512040.13749  -1175083.16047  22074457.3964   22074456.0484
      1594.8814
 04  9 10 15  9  0.0010000  0  7G 1G11G14G15G19G22G25
  -1474493.41049  -1146130.55547  22292995.4274   22292993.6034
      1540.4974
   -869703.34449   -676979.77347  21887371.7164   21887367.5054
       762.0024
   2354549.76249   1820608.33247  21332680.9974   21332677.2354
     -2951.6104
   3928800.64849   3040004.02746  23778309.3564   23778309.2784
     -4739.2964
   2968648.02349   2295057.62547  23793645.8644   23793641.0994
     -3658.6344
   2724683.39549   2108992.48447  23232436.3334   23232432.3254
     -3309.5054
  -1535862.39849  -1193645.94947  22069924.5444   22069922.7434
      1588.1514
 04  9 10 15  9 15.0010000  0  7G 1G11G14G15G19G22G25
  -1497515.25449  -1164069.65247  22288614.2314   22288612.5174
      1534.7904
   -881007.80949   -685788.46547  21885220.2314   21885216.2084
       753.6314
   2398905.89849   1855171.53148  21341121.3884   21341117.7984
     -2957.0764
   3999941.06349   3095438.05546  23791847.2314   23791846.4154
     -4742.6944
   3023589.02749   2337868.74647  23804100.3334   23804096.2004
     -3662.7344
   2774371.69549   2147710.59047  23241891.2164   23241887.7904
     -3312.5534
  -1559582.37149  -1212129.03147  22065410.7244   22065408.5484
      1581.3324
 04  9 10 15  9 30.0010000  0  7G 1G11G14G15G19G22G25
  -1520452.38749  -1181942.74247  22284249.6144   22284246.9424
      1529.1424
   -892187.41049   -694499.85247  21883092.9194   21883089.4274
       745.3074
   2443342.85549   1889797.71548  21349577.5994   21349573.9074
     -2962.4644
   4071131.32449   3150910.94946  23805394.4034   23805393.9424
     -4746.0174
   3078590.28149   2380726.83647  23814566.6304   23814562.9934
     -3666.7504
   2824104.85949   2186463.66047  23251354.9194   23251351.6964
     -3315.5444
  -1583200.56649  -1230532.82047  22060916.7944   22060914.3724
      1574.5464
 04  9 10 15  9 45.0010000  0  7G 1G11G14G15G19G22G25
  -1543305.05149  -1199750.01247  22279901.1464   22279898.4384
      1523.5114
   -903242.47749   -703114.19547  21880989.0914   21880985.7244
       737.0044
   2487859.89149   1924486.30148  21358048.8104   21358045.4114
     -2967.8024
   4142370.73049   3206422.11346  23818950.8644   23818950.6034
     -4749.2944
   3133650.92249   2423631.23047  23825044.2864   23825040.5404
     -3670.7094
   2873882.32049   2225251.25047  23260827.8414   23260823.5364
     -3318.4974
  -1606717.13349  -1248857.39547  22056441.6144   22056439.1814
      1567.7714
 04  9 10 15 10  0.0010000  0  7G 1G11G14G15G19G22G25
  -1566073.05149  -1217491.28947  22275568.3254   22275565.6494
      1517.8674
   -914172.61349   -711631.19147  21878909.0364   21878905.9544
       728.6764
   2532456.84449   1959237.15247  21366535.2784   21366531.6924
     -2973.1304
   4213659.06649   3261971.42247  23832516.5134   23832516.2084
     -4752.5564
   3188770.66849   2466581.64847  23835533.0754   23835529.6924
     -3674.6504
   2923704.18049   2264073.42647  23270308.0214   23270304.5674
     -3321.4574
  -1630131.71549  -1267102.51647  22051985.6224   22051983.1964
      1560.9724
 04  9 10 15 10 15.0010000  0  7G 1G11G14G15G19G22G25
  -1588757.51249  -1235167.48047  22271251.6224   22271249.5834
      1512.2974
   -924978.65649   -720051.50447  21876852.9584   21876848.9074
       720.4034
   2577132.42249   1994049.26247  21375036.8254   21375033.1574
     -2978.3724
   4284994.92649   3317557.75447  23846090.8024   23846090.6774
     -4755.7244
   3243947.98049   2509576.91847  23846033.2394   23846028.8414
     -3678.4874
   2973569.46149   2302929.44147  23279797.3174   23279793.8804
     -3324.3524
  -1653445.07849  -1285268.74247  22047549.4034   22047547.3214
      1554.2244
 04  9 10 15 10 30.0010000  0  7G 1G11G14G15G19G22G25
  -1611357.96149  -1252778.22747  22266950.8024   22266949.0014
      1506.6974
   -935660.09449   -728374.71147  21874820.2314   21874815.7714
       712.0964
   2621886.75049   2028922.75048  21383553.2944   21383549.5994
     -2983.6224
   4356378.30549   3373181.10947  23859674.6144   23859674.9034
     -4758.8924
   3299182.94549   2552617.11747  23856543.4354   23856539.5834
     -3682.3314
   3023478.37149   2341819.43847  23289294.7314   23289291.8804
     -3327.2614
  -1676656.68449  -1303355.66847  22043131.9274   22043130.0134
      1547.4404
 04  9 10 15 10 45.0010000  0  7G 1G11G14G15G19G22G25
  -1633875.43749  -1270324.32047  22262665.2714   22262663.9974
      1501.1654
   -946217.83249   -736601.53947  21872811.3334   21872806.8174
       703.8494
   2666718.43449   2063856.50447  21392084.5994   21392081.0484
     -2988.7794
   4427807.98449   3428840.55146  23873267.4354   23873267.3494
     -4761.9794
   3354473.98849   2595701.01247  23867066.0604   23867061.5674
     -3686.0704
   3073429.86349   2380742.62147  23298800.5444   23298797.1034
     -3330.0994
  -1699767.29749  -1321363.92647  22038734.1924   22038732.1694
      1540.7084
 04  9 10 15 11  0.0010000  0  7G 1G11G14G15G19G22G25
  -1656310.48049  -1287806.16047  22258396.0754   22258395.5524
      1495.6704
   -956652.12549   -744732.17647  21870825.9814   21870821.6494
       695.6204
   2711626.68449   2098849.93447  21400630.2394   21400626.7284
     -2993.8834
   4499283.05549   3484535.34846  23886868.8644   23886868.6144
     -4765.0054
   3409820.03549   2638827.76647  23877597.3964   23877593.4194
     -3689.7364
   3123423.28149   2419698.48047  23308313.6464   23308310.5564
     -3332.8954
  -1722777.09849  -1339293.62547  22034355.4584   22034353.3724
      1533.9874
 04  9 10 15 11 15.0010000  0  7G 1G11G14G15G19G22G25
  -1678661.87949  -1305222.82447  22254142.9504   22254141.2004
      1490.0934
   -966961.78149   -752765.68747  21868864.1614   21868859.8764
       687.3104
   2756612.30949   2133903.64148  21409190.9114   21409187.4934
     -2999.0424
   4570804.34049   3540266.16446  23900479.5444   23900478.5674
     -4768.0864
   3465221.89149   2681998.00847  23888139.7474   23888136.2084
     -3693.4574
   3173459.63349   2458687.78947  23317836.0604   23317832.4424
     -3335.7574
  -1745684.68449  -1357143.68047  22029996.4354   22029993.8104
      1527.1724
 04  9 10 15 11 30.0010000  0  7G 1G11G14G15G19G22G25
  -1700931.16449  -1322575.52047  22249905.6064   22249903.5244
      1484.6194
   -977148.16849   -760703.13747  21866925.7864   21866921.5674
       679.0924
   2801673.41049   2169016.16447  21417765.8964   21417762.4424
     -3004.0734
   4642369.87149   3596031.43846  23914098.0214   23914097.1964
     -4771.0354
   3520677.46949   2725210.11347  23898692.8644   23898689.4544
     -3697.0394
   3223537.25049   2497709.26247  23327365.3564   23327361.7314
     -3338.5084
  -1768491.48449  -1374915.20347  22025656.1534   22025653.8294
      1520.4534
 04  9 10 15 11 45.0010000  0  7G 1G11G14G15G19G22G25
  -1723118.10949  -1339864.05147  22245684.0364   22245682.1384
      1479.1304
   -987210.93049   -768544.26247  21865010.6144   21865007.1304
       670.8514
   2846809.89549   2204187.43847  21426354.6384   21426351.4114
     -3009.0994
   4713979.52049   3651831.15246  23927724.4114   23927724.1814
     -4773.9774
   3576186.46949   2768463.85947  23909256.1534   23909252.7044
     -3700.6004
   3273656.34049   2536763.04347  23336902.6064   23336898.6034
     -3341.2734
  -1791197.12549  -1392607.89847  22021335.5364   22021332.9784
      1513.7094
 04  9 10 15 12  0.0010000  0  7G 1G11G14G15G19G22G25
  -1745223.26649  -1357088.84847  22241477.0914   22241475.5214
      1473.6774
   -997150.45749   -776289.35247  21863119.3884   21863115.9154
       662.6354
   2892021.00449   2239416.86347  21434958.3414   21434954.7284
     -3014.0744
   4785632.52349   3707664.59846  23941359.7944   23941359.0364
     -4776.8674
   3631747.97749   2811758.48847  23919828.4584   23919825.4504
     -3704.1014
   3323816.28149   2575848.66447  23346447.5604   23346443.7784
     -3343.9964
  -1813801.83249  -1410221.93747  22017034.1534   22017031.0714
      1506.9804
 04  9 10 15 12 15.0010000  0  7G 1G11G14G15G19G22G25
  -1767246.34049  -1374249.68047  22237286.2714   22237284.7784
      1468.2054
  -1006966.35949   -783938.10547  21861251.7474   21861247.9934
       654.3934
   2937306.59049   2274704.31647  21443575.9584   21443572.1614
     -3019.0394
   4857328.64149   3763531.64846  23955003.0444   23955003.0564
     -4779.7414
   3687361.91849   2855093.98847  23930412.9274   23930407.7594
     -3707.5964
   3374017.25049   2614966.25847  23356000.2714   23355996.7124
     -3346.7314
  -1836305.13349  -1427756.96547  22012752.2314   22012749.2784
      1500.2204
 04  9 10 15 12 30.0010000  0  7G 1G11G14G15G19G22G25
  -1789187.45349  -1391346.64847  22233111.0054   22233109.4744
      1462.7414
  -1016658.57049   -791490.47747  21859406.5674   21859402.7984
       646.1474
   2982666.27049   2310049.50847  21452207.2714   21452203.5834
     -3023.9794
   4929067.44149   3819431.97746  23968654.2474   23968653.9544
     -4782.5874
   3743027.59849   2898469.80147  23941004.8564   23941001.0364
     -3711.0454
   3424259.06649   2654115.66047  23365561.5674   23365557.4034
     -3349.4544
  -1858706.85949  -1445212.84447  22008489.0214   22008486.2514
      1493.4484
 04  9 10 15 12 45.0010000  0  7G 1G11G14G15G19G22G25
  -1811045.57849  -1408378.94547  22228951.0604   22228950.3104
      1457.2084
  -1026225.90649   -798945.55147  21857586.3024   21857582.6774
       637.8224
   3028100.66449   2345452.91047  21460853.3884   21460849.3684
     -3028.9604
   5000849.52049   3875365.98846  23982314.0674   23982314.1574
     -4785.4724
   3798745.61749   2941886.40647  23951608.0754   23951603.9854
     -3714.5354
   3474542.57449   2693297.55547  23375130.0214   23375125.8334
     -3352.2344
  -1881005.75049  -1462588.59847  22004245.4034   22004242.8564
      1486.5934
 04  9 10 15 13  0.0010000  0  7G 1G11G14G15G19G22G25
  -1832822.40649  -1425347.89147  22224807.0834   22224806.1654
      1451.7894
  -1035670.02049   -806304.60947  21855789.4194   21855785.6884
       629.6084
   3073607.88349   2380913.06347  21469512.6854   21469509.4584
     -3033.8154
   5072672.90249   3931332.22746  23995981.7084   23995982.0014
     -4788.2264
   3854513.81349   2985342.12947  23962220.3644   23962216.2984
     -3717.8804
   3524866.04349   2732510.60547  23384706.3884   23384703.0564
     -3354.8984
  -1903203.41049  -1479885.44547  22000021.9114   22000018.9354
      1479.8444
 04  9 10 15 13 15.0010000  0  7G 1G11G14G15G19G22G25
  -1854518.25849  -1442253.74647  22220678.3254   22220677.2004
      1446.3904
  -1044991.08249   -813567.79747  21854015.4034   21854011.7824
       621.4044
   3119187.19949   2416429.40247  21478186.6774   21478183.5284
     -3038.6214
   5144536.90249   3987330.07846  24009656.5524   24009657.4274
     -4790.9334
   3910331.38749   3028836.27747  23972841.3254   23972837.9034
     -3721.1724
   3575229.03149   2771754.43847  23394289.5524   23394287.0094
     -3357.5334
  -1925299.89549  -1497103.46947  21995816.8884   21995814.0214
      1473.0994
 04  9 10 15 13 30.0010000  0  7G 1G11G14G15G19G22G25
  -1876132.51649  -1459096.01647  22216565.4814   22216564.5054
      1440.9514
  -1054188.36349   -820734.51647  21852265.3494   21852261.8294
       613.1524
   3164838.88349   2452002.10947  21486873.9354   21486870.2864
     -3043.4464
   5216441.80949   4043359.84846  24023340.6774   24023340.4034
     -4793.6604
   3966198.52349   3072369.10547  23983473.0214   23983469.3494
     -3724.4764
   3625632.02749   2811029.44147  23403881.2864   23403878.6304
     -3360.2004
  -1947294.44549  -1514242.07447  21991631.2474   21991628.6494
      1466.3034
 04  9 10 15 13 45.0010000  0  7G 1G11G14G15G19G22G25
  -1897664.82049  -1475874.43047  22212468.5284   22212466.9234
      1435.4874
  -1063261.33649   -827804.37547  21850538.7004   21850534.6534
       604.8654
   3210562.97349   2487631.25847  21495574.8884   21495571.6064
     -3048.2734
   5288387.55549   4099421.38346  24037031.0834   24037030.6494
     -4796.3834
   4022115.06649   3115940.40647  23994113.5914   23994110.2434
     -3727.7704
   3676075.44549   2850335.94947  23413480.6534   23413477.6884
     -3362.8954
  -1969186.46949  -1531300.77747  21987464.8334   21987462.8764
      1459.4684
 04  9 10 15 14  0.0010000  0  7G 1G11G14G15G19G22G25
  -1919116.21149  -1492589.80147  22208386.0914   22208384.3214
      1430.0934
  -1072210.81649   -834778.02347  21848835.6694   21848831.3644
       596.6324
   3256358.14849   2523315.77747  21504289.5834   21504286.1574
     -3053.0124
   5360372.74649   4155513.69546  24050729.6384   24050728.7474
     -4799.0134
   4078079.47349   3159549.00447  24004762.9664   24004759.7434
     -3730.9604
   3726557.97749   2889672.95347  23423087.0214   23423083.6384
     -3365.5024
  -1990976.87549  -1548280.29347  21983318.7634   21983316.2474
      1452.6944
 04  9 10 15 14 15.0010000  0  7G 1G11G14G15G19G22G25
  -1940486.20749  -1509241.73047  22204319.4584   22204317.7674
      1424.6664
  -1081036.24249   -841654.99647  21847156.4664   21847152.1224
       588.3624
   3302224.53549   2559055.81347  21513017.5914   21513014.6924
     -3057.7594
   5432397.45749   4211636.80946  24064435.7314   24064434.8174
     -4801.6474
   4134091.86349   3203194.98447  24015421.9504   24015418.4114
     -3734.1594
   3777080.05149   2929040.77347  23432701.3174   23432697.4704
     -3368.1384
  -2012664.87949  -1565180.02747  21979191.6064   21979189.3214
      1445.8674
 04  9 10 15 14 30.0010000  0  7G 1G11G14G15G19G22G25
  -1961775.14549  -1525830.52047  22200268.5524   22200266.4854
      1419.2634
  -1089737.88749   -848435.51247  21845500.4354   21845496.6304
       580.1104
   3348161.33649   2594850.70348  21521759.3414   21521756.1144
     -3062.4534
   5504461.01249   4267790.15246  24078148.7474   24078148.1964
     -4804.2374
   4190151.31649   3246877.63747  24026090.3254   24026085.8024
     -3737.2974
   3827641.23449   2968439.04747  23442322.9664   23442318.8254
     -3370.7464
  -2034250.71549  -1582000.15647  21975083.9744   21975081.2354
      1439.0564
 04  9 10 15 14 45.0010000  0  7G 1G11G14G15G19G22G25
  -1982982.97349  -1542356.08247  22196232.1774   22196230.4464
      1413.8554
  -1098315.52049   -855119.37947  21843868.1924   21843864.4544
       571.8424
   3394168.58649   2630700.49247  21530513.6064   21530510.8294
     -3067.1504
   5576563.23049   4323973.66446  24091869.0524   24091868.9354
     -4806.8154
   4246257.57049   3290596.75447  24036767.0834   24036762.1264
     -3740.4174
   3878241.58649   3007867.83647  23451951.6774   23451947.6694
     -3373.3574
  -2055733.96149  -1598740.35247  21970995.8564   21970993.1614
      1432.2164
 04  9 10 15 15  0.0010000  0  7G 1G11G14G15G19G22G25
  -2004109.81249  -1558818.53147  22192212.1774   22192210.8214
      1408.4564
  -1106769.06649   -861706.57047  21842259.7944   21842255.8254
       563.5704
   3440245.82449   2666604.81647  21539282.2634   21539279.1734
     -3071.8164
   5648703.54349   4380186.85546  24105597.1144   24105597.0834
     -4809.3544
   4302409.97349   3334351.84047  24047452.2714   24047448.3414
     -3743.4934
   3928880.74249   3047326.85947  23461587.7474   23461584.4114
     -3375.9444
  -2077114.68049  -1615400.64847  21966927.4664   21966924.7744
      1425.3814
 04  9 10 15 15 15.0010000  0  7G 1G11G14G15G19G22G25
  -2025156.53149  -1575218.57447  22188207.2554   22188205.6184
      1403.1154
  -1115099.39549   -868197.73447  21840674.1694   21840670.5564
       555.3554
   3486391.76649   2702562.66847  21548063.3104   21548059.9894
     -3076.3964
   5720880.74249   4436428.80546  24119332.1144   24119332.0094
     -4811.8134
   4358606.99249   3378141.68447  24058146.3884   24058142.7594
     -3746.4684
   3979557.72749   3086815.34047  23471231.4664   23471228.1034
     -3378.4664
  -2098393.51249  -1631981.53147  21962877.9664   21962875.7164
      1418.5894
 04  9 10 15 15 30.0010000  0  7G 1G11G14G15G19G22G25
  -2046122.95749  -1591556.05147  22184217.3414   22184215.6064
      1397.7624
  -1123306.07449   -874592.56247  21839112.7164   21839108.2984
       547.1124
   3532606.28549   2738573.96547  21556857.5674   21556854.5794
     -3080.9684
   5793094.70749   4492699.37946  24133073.7944   24133074.0564
     -4814.2644
   4414848.60249   3421966.29747  24068848.5834   24068844.9464
     -3749.4414
   4030272.72349   3126333.46547  23480882.6924   23480878.7124
     -3381.0004
  -2119569.89849  -1648482.58647  21958848.1224   21958846.2594
      1411.7594
 04  9 10 15 15 45.0010000  0  7G 1G11G14G15G19G22G25
  -2067010.72349  -1607832.23447  22180242.6614   22180240.9784
      1392.5184
  -1131390.71149   -880892.29347  21837574.6304   21837570.3454
       538.9764
   3578887.30549   2774637.06347  21565664.8644   21565661.7284
     -3085.4014
   5865343.35949   4548996.98446  24146822.8494   24146822.8724
     -4816.5774
   4471132.62549   3465823.94947  24079558.7864   24079555.0954
     -3752.2684
   4081023.86749   3165879.77047  23490540.3024   23490536.6104
     -3383.4104
  -2140645.39849  -1664905.04747  21954837.6774   21954835.3684
      1405.0334
 04  9 10 15 16  0.0010000  0  7G 1G11G14G15G19G22G25
  -2087819.89849  -1624047.17647  22176282.7784   22176281.5524
      1387.2784
  -1139353.30949   -887096.90247  21836059.3494   21836055.2314
       530.8404
   3625234.56349   2810751.78548  21574484.2784   21574481.3254
     -3089.8174
   5937626.34049   4605321.34046  24160577.2164   24160577.9704
     -4818.8654
   4527458.58649   3509714.25847  24090277.6144   24090273.5364
     -3755.0644
   4131811.12949   3205454.18447  23500204.2084   23500200.9194
     -3385.8174
  -2161619.82049  -1681248.74647  21950846.5914   21950843.8454
      1398.2954
 04  9 10 15 16 15.0010000  0  7G 1G11G14G15G19G22G25
  -2108550.32449  -1640200.74247  22172338.2084   22172336.3534
      1382.0284
  -1147193.50049   -893206.15647  21834567.1064   21834563.3254
       522.6794
   3671647.91049   2846918.02347  21583316.4504   21583313.4194
     -3094.2234
   6009943.44949   4661672.24646  24174338.2864   24174339.4584
     -4821.1414
   4583826.12549   3553637.00447  24101004.4974   24101000.2164
     -3757.8364
   4182634.58249   3245056.83247  23509875.9194   23509872.2784
     -3388.2304
  -2182492.84449  -1697513.43047  21946874.3254   21946871.9074
      1391.5354
 04  9 10 15 16 30.0010000  0  7G 1G11G14G15G19G22G25
  -2129201.82449  -1656292.80547  22168408.2784   22168406.2204
      1376.7674
  -1154911.02049   -899219.81247  21833098.9424   21833094.6654
       514.5014
   3718127.20349   2883135.63347  21592161.4664   21592158.3374
     -3098.6204
   6082294.38749   4718049.53146  24188107.5134   24188107.6034
     -4823.3964
   4640234.89149   3597591.85947  24111738.0994   24111734.5914
     -3760.5844
   4233494.29749   3284687.70347  23519555.1774   23519550.2984
     -3390.6484
  -2203264.09849  -1713698.79747  21942921.6774   21942919.2554
      1384.7504
 04  9 10 15 16 45.0010000  0  7G 1G11G14G15G19G22G25
  -2149773.55949  -1672322.70747  22164493.7244   22164491.2714
      1371.4494
  -1162504.82849   -905137.07447  21831653.4504   21831649.3924
       506.2544
   3764672.83649   2919404.93047  21601018.6854   21601015.6614
     -3103.0424
   6154679.71549   4774453.64846  24201880.3564   24201882.3764
     -4825.6894
   4696685.33249   3641579.19147  24122479.9664   24122477.0284
     -3763.3634
   4284391.00849   3324347.42647  23529240.1464   23529236.0674
     -3393.1144
  -2223932.49649  -1729804.02347  21938988.6534   21938986.4784
      1377.8934
 04  9 10 15 17  0.0010000  0  7G 1G11G14G15G19G22G25
  -2170264.58249  -1688289.74647  22160594.6464   22160592.3064
      1366.0684
  -1169973.84449   -910957.10247  21830232.0134   21830228.0714
       497.9344
   3811285.53149   2955726.50447  21609888.6304   21609885.0914
     -3107.5134
   6227100.09049   4830885.04346  24215661.9744   24215663.1494
     -4828.0254
   4753177.95749   3685599.39147  24133231.5054   24133226.3884
     -3766.1754
   4335325.58649   3364036.65647  23538932.5364   23538929.1614
     -3395.6394
  -2244496.97349  -1745828.28147  21935075.3174   21935073.0484
      1370.9654
 04  9 10 15 17 15.0010000  0  7G 1G11G14G15G19G22G25
  -2190674.09449  -1704193.26247  22156710.5364   22156708.4424
      1360.6344
  -1177317.16449   -916679.15647  21828834.6614   21828830.5794
       489.5554
   3857965.73049   2992100.65647  21618771.6144   21618768.3024
     -3112.0134
   6299555.85949   4887344.03946  24229450.6384   24229451.4894
     -4830.3854
   4809713.09049   3729652.73447  24143989.3964   24143984.6034
     -3769.0094
   4386298.59849   3403755.84047  23548632.1224   23548628.9814
     -3398.2014
  -2264956.54349  -1761770.78147  21931182.2714   21931179.8024
      1363.9714
 04  9 10 15 17 30.0010000  0  7G 1G11G14G15G19G22G25
  -2211003.90649  -1720034.68047  22152841.7084   22152840.1694
      1355.3214
  -1184536.52349   -922304.64547  21827460.7944   21827457.0954
       481.2914
   3904711.45749   3028525.87947  21627667.1144   21627663.4384
     -3116.3824
   6372044.89149   4943828.93846  24243244.7084   24243245.5214
     -4832.6024
   4866288.44149   3773737.39147  24154755.0214   24154750.3644
     -3771.6904
   4437308.28949   3443503.60247  23558338.7314   23558335.7944
     -3400.6464
  -2285312.73849  -1777632.75047  21927308.4424   21927305.6344
      1357.0804
 04  9 10 15 17 45.0010000  0  6G 1G11G14G19G22G25
  -2231252.16049  -1735812.53147  22148988.6854   22148987.3884
      1349.8844
  -1191629.91449   -927831.97347  21826111.2784   21826107.4194
       472.8934
   3951524.14849   3065003.27347  21636575.3254   21636571.4384
     -3120.8464
   4922905.35949   3817854.42247  24165529.5754   24165524.1964
     -3774.4614
   4488356.44549   3483281.32447  23568053.4354   23568050.2784
     -3403.2104
  -2305563.60549  -1793412.62547  21923454.7084   21923451.9354
      1350.0584
 04  9 10 15 18  0.0010000  0  6G 1G11G14G19G22G25
  -2251418.89549  -1751526.86747  22145150.5364   22145149.1614
      1344.4494
  -1198597.13749   -933261.00047  21824785.4354   21824781.4194
       464.4824
   3998403.54749   3101532.65247  21645496.1304   21645492.3454
     -3125.2934
   4979563.43449   3862003.52347  24176311.5834   24176305.6344
     -3777.2054
   4539442.86349   3523088.87147  23577774.8414   23577771.4154
     -3405.7614
  -2325709.07449  -1809110.37147  21919621.1224   21919618.4154
      1343.0314
 04  9 10 15 18 15.0010000  0  6G 1G11G14G19G22G25
  -2271505.44949  -1767178.71947  22141328.5444   22141326.3254
      1339.1044
  -1205439.52349   -938592.73447  21823483.2394   21823479.5754
       456.1594
   4045347.87549   3138112.63347  21654429.6464   21654425.9934
     -3129.6224
   5036260.87549   3906183.31647  24187100.8884   24187094.6654
     -3779.8294
   4590566.09849   3562925.10247  23587503.3334   23587499.2554
     -3408.2164
  -2345750.01649  -1824726.66447  21915807.2314   21915804.6064
      1336.0634
 04  9 10 15 18 30.0010000  0  6G 1G11G14G19G22G25
  -2291509.72349  -1782766.47347  22137521.9194   22137519.6654
      1333.6184
  -1212154.87949   -943825.49247  21822205.2634   21822201.0754
       447.6904
   4092358.94549   3174744.61347  21663375.6384   21663372.1494
     -3134.0714
   5092999.27049   3950395.01647  24197897.4664   24197892.5914
     -3782.5604
   4641728.17649   3602791.60947  23597238.9114   23597235.0014
     -3410.8054
  -2365684.15249  -1840259.73447  21912014.2084   21912011.4894
      1328.9424
 04  9 10 15 18 45.0010000  0  6G 1G11G14G19G22G25
  -2311429.98849  -1798288.76647  22133731.2554   22133728.9354
      1328.0184
  -1218741.30549   -948957.78947  21820951.8494   21820947.5874
       439.0954
   4139438.13349   3211429.67647  21672334.4034   21672330.8334
     -3138.6124
   5149779.80149   3994639.53947  24208701.4424   24208697.9704
     -3785.3694
   4692930.69549   3642689.62147  23606982.8174   23606979.2244
     -3413.5014
  -2385509.68749  -1855708.19947  21908241.7084   21908238.7474
      1321.7024
 04  9 10 15 19  0.0010000  0  6G 1G11G14G19G22G25
  -2331266.86749  -1813746.08247  22129956.5754   22129954.5444
      1322.4594
  -1225199.39849   -953990.09047  21819723.2634   21819718.9624
       430.5404
   4186584.66449   3248167.21547  21681306.0214   21681302.3214
     -3143.1024
   5206601.60949   4038916.21547  24219514.2004   24219511.0014
     -3788.1214
   4744173.05549   3682618.67647  23616733.4814   23616730.8804
     -3416.1574
  -2405226.96949  -1871072.28947  21904489.3564   21904486.8104
      1314.4854
 04  9 10 15 19 15.0010000  0  6G 1G11G14G19G22G25
  -2351019.35949  -1829137.62547  22126197.6464   22126196.1384
      1316.8334
  -1231528.00049   -958921.48047  21818519.0524   21818515.0054
       421.9074
   4233799.05949   3284957.62947  21690290.5754   21690286.8924
     -3147.6264
   5263465.13349   4083225.41447  24230334.8334   24230332.4114
     -3790.9024
   4795456.07849   3722579.43847  23626492.6694   23626489.5674
     -3418.8684
  -2424834.71949  -1886351.04347  21900758.3494   21900755.9854
      1307.1834
 04  9 10 15 19 30.0010000  0  6G 1G11G14G19G22G25
  -2370689.05949  -1844464.66447  22122455.0524   22122453.2164
      1311.3134
  -1237728.59849   -963753.12147  21817339.0604   21817335.0484
       413.3734
   4281079.59049   3321799.57847  21699287.6464   21699284.6574
     -3152.0354
   5320368.31649   4127565.53547  24241163.1694   24241160.7514
     -3793.5464
   4846778.12549   3762570.59047  23636259.1224   23636256.4704
     -3421.4704
  -2444334.39549  -1901545.57047  21897047.5604   21897045.6034
      1299.9784
 04  9 10 15 19 45.0010000  0  6G 1G11G14G19G22G25
  -2390276.32849  -1859727.47347  22118727.3414   22118725.9354
      1305.8184
  -1243801.33249   -968485.12947  21816183.3174   21816178.9934
       404.8494
   4328425.48049   3358692.46147  21708297.2714   21708293.8414
     -3156.3934
   5377310.35249   4171935.89847  24251999.0994   24251995.8334
     -3796.1364
   4898138.82049   3802591.84447  23646032.1384   23646029.5284
     -3424.0464
  -2463726.20749  -1916656.05947  21893357.2714   21893355.0754
      1292.7874
 04  9 10 15 20  0.0010000  0  6G 1G11G14G19G22G25
  -2409781.67249  -1874926.44147  22115016.3884   22115013.9074
      1300.3564
  -1249746.46949   -973117.71147  21815051.9504   21815047.7984
       396.3424
   4375836.07449   3395635.75847  21717319.5834   21717316.2204
     -3160.7064
   5434290.37949   4216335.87547  24262842.6224   24262838.6774
     -3798.6684
   4949537.58249   3842642.77747  23655813.7314   23655810.3924
     -3426.5844
  -2483010.47749  -1931682.75847  21889688.0444   21889685.5674
      1285.6184
 04  9 10 15 20 15.0010000  0  6G 1G11G14G19G22G25
  -2429204.75849  -1890061.30547  22111319.9584   22111317.9584
      1294.8724
  -1255563.58249   -977650.52747  21813944.9664   21813940.7474
       387.8084
   4423311.32049   3432629.44547  21726353.5524   21726350.2784
     -3165.0164
   5491308.20749   4260765.32047  24273691.8644   24273688.8294
     -3801.1894
   5000974.59049   3882723.52047  23665601.9664   23665597.8454
     -3429.1344
  -2502186.63349  -1946625.19947  21886038.8884   21886036.3414
      1278.4104
 04  9 10 15 20 30.0010000  0  6G 1G11G14G19G22G25
  -2448546.97349  -1905133.15247  22107639.2004   22107637.2244
      1289.4814
  -1261254.10249   -982084.71547  21812862.3414   21812858.0794
       379.3684
   4470849.48849   3469672.16047  21735399.6924   21735396.7984
     -3169.2114
   5548361.96149   4305222.75447  24284549.8254   24284546.0214
     -3803.5844
   5052448.33649   3922832.88347  23675396.4664   23675393.0174
     -3431.5834
  -2521255.86749  -1961484.31647  21882409.8024   21882407.6774
      1271.2824
 04  9 10 15 20 45.0010000  0  6G 1G11G14G19G22G25
  -2467808.64549  -1920142.23847  22103973.5754   22103971.4384
      1284.1114
  -1266818.29349   -986420.45347  21811803.3494   21811799.2394
       370.9464
   4518449.94549   3506763.40647  21744457.7944   21744454.7204
     -3173.3644
   5605450.84449   4349707.55547  24295413.7784   24295410.0324
     -3805.9264
   5103958.44549   3962970.57447  23685199.1924   23685195.0134
     -3434.0074
  -2540218.27349  -1976260.19947  21878801.3254   21878799.4074
      1264.1604
 04  9 10 15 21  0.0010000  0  6G 1G11G14G19G22G25
  -2486988.36349  -1935087.46147  22100324.0134   22100322.0134
      1278.6484
  -1272254.36349   -990656.35247  21810769.0524   21810764.7434
       362.4054
   4566113.83649   3543904.07447  21753527.8644   21753524.5754
     -3177.5934
   5662575.90249   4394220.54347  24306284.0914   24306280.0244
     -3808.3374
   5155506.29349   4003137.67247  23695008.2554   23695003.9624
     -3436.5234
  -2559072.22749  -1990951.57447  21875213.4744   21875211.1184
      1256.9304
 04  9 10 15 21 15.0010000  0  6G 1G11G14G19G22G25
  -2506087.07049  -1949969.56647  22096689.4584   22096687.3414
      1273.2474
  -1277563.27749   -994793.18047  21809758.6774   21809754.8644
       353.9284
   4613839.89849   3581093.19947  21762609.8724   21762606.9624
     -3181.7374
   5719735.74249   4438760.63747  24317160.7634   24317157.2284
     -3810.6564
   5207090.71549   4043333.28547  23704824.6774   23704820.6104
     -3438.9614
  -2577818.61349  -2005559.14147  21871646.5914   21871643.3454
      1249.7594
 04  9 10 15 21 30.0010000  0  6G 1G11G14G19G22G25
  -2525104.91049  -1964788.66847  22093070.8964   22093068.5634
      1267.8564
  -1282745.05149   -998830.92247  21808772.4744   21808768.7744
       345.4524
   4661627.69949   3618330.41847  21771703.5994   21771700.8294
     -3185.8534
   5776929.79749   4483327.37147  24328045.0994   24328040.9034
     -3812.9374
   5258711.63749   4083557.31647  23714647.2314   23714644.4354
     -3441.3954
  -2596457.06249  -2020082.59447  21868099.4194   21868096.6144
      1242.5634
 04  9 10 15 21 45.0010000  0  6G 1G11G14G19G22G25
  -2544041.70349  -1979544.59847  22089466.7864   22089464.6304
      1262.4534
  -1287799.47749  -1002769.44147  21807810.7084   21807806.7474
       336.9624
   4709477.13749   3655615.67647  21780808.9424   21780806.0014
     -3189.9624
   5834157.76249   4527920.55547  24338935.4664   24338931.5564
     -3815.1984
   5310369.15649   4123809.87147  23724477.6534   23724474.3994
     -3443.8354
  -2614987.20749  -2034521.65247  21864573.3334   21864570.3334
      1235.3434
 04  9 10 15 22  0.0010000  0  6G 1G11G14G19G22G25
  -2562898.28149  -1994238.02347  22085878.3964   22085876.6494
      1257.1054
  -1292727.09449  -1006609.16047  21806873.2314   21806869.3414
       328.5084
   4757387.09849   3692948.09047  21789926.2004   21789923.0014
     -3193.9974
   5891418.31649   4572539.11347  24349832.0834   24349827.8964
     -3817.3704
   5362062.38749   4164090.24647  23734314.6534   23734311.5994
     -3446.2154
  -2633409.99649  -2048877.05947  21861067.4504   21861064.8884
      1228.1864
 04  9 10 15 22 15.0010000  0  6G 1G11G14G19G22G25
  -2581676.04349  -2008870.03547  22082304.9504   22082304.0134
      1251.8514
  -1297529.23849  -1010351.09047  21805959.0674   21805955.8884
       320.1434
   4805355.90249   3730326.35547  21799053.9974   21799051.1144
     -3197.9204
   5948709.61349   4617181.64547  24360733.1694   24360730.6424
     -3819.4204
   5413789.65249   4204397.16847  23744158.3104   23744155.3214
     -3448.4844
  -2651726.59849  -2063149.71947  21857581.8884   21857579.4664
      1221.1074
 04  9 10 15 22 30.0010000  0  6G 1G11G14G19G22G25
  -2600372.32049  -2023438.53547  22078747.4354   22078746.3214
      1246.4184
  -1302203.09049  -1013993.05947  21805069.8724   21805066.1814
       311.5904
   4853385.99649   3767752.37947  21808194.3724   21808190.8064
     -3202.0064
   6006033.94549   4661849.94547  24371641.3884   24371639.0404
     -3821.6224
   5465553.72749   4244732.77347  23754008.1304   23754006.0714
     -3450.9384
  -2669934.03149  -2077337.31247  21854117.1854   21854114.9544
      1213.8294
 04  9 10 15 22 45.0010000  0  6G 1G11G14G19G22G25
  -2618987.29349  -2037943.68447  22075204.4114   22075203.5324
      1240.9984
  -1306748.73049  -1017535.11747  21804204.8414   21804200.7044
       303.0434
   4901476.78949   3805225.70747  21817345.5994   21817342.0794
     -3206.0534
   6063390.68049   4706543.46947  24382556.9814   24382553.1144
     -3823.7824
   5517354.36349   4285096.85547  23763866.0054   23763863.0994
     -3453.3764
  -2688032.20349  -2091439.76647  21850673.3724   21850671.2004
      1206.5454
 04  9 10 15 23  0.0010000  0  6G 1G11G14G19G22G25
  -2637521.12149  -2052385.61347  22071678.0134   22071676.3724
      1235.5894
  -1311166.36349  -1020977.44547  21803364.3884   21803360.1384
       294.5094
   4949627.79749   3842745.94147  21826508.2944   21826504.9504
     -3210.0674
   6120779.16849   4751261.72747  24393477.1064   24393474.0094
     -3825.8994
   5569191.16849   4325489.13347  23773729.6304   23773726.8964
     -3455.7874
  -2706021.18749  -2105457.14147  21847249.9744   21847247.7554
      1199.2664
 04  9 10 15 23 15.0010000  0  6G 1G11G14G19G22G25
  -2655974.26249  -2066764.66847  22068166.5364   22068165.0914
      1230.2094
  -1315456.18749  -1024320.16847  21802547.8804   21802543.9704
       285.9884
   4997838.27349   3880312.53947  21835682.6464   21835679.1884
     -3214.0324
   6178198.48449   4796004.01247  24404403.7634   24404400.5134
     -3827.9544
   5621063.70349   4365909.22347  23783601.1464   23783597.2594
     -3458.1694
  -2723901.28549  -2119389.66447  21843847.3644   21843845.0874
      1192.0074
 04  9 10 15 23 30.0010000  0  7G 1G11G14G19G22G25G20
  -2674346.19549  -2081080.43747  22064670.3414   22064668.7714
      1224.7964
  -1319617.54749  -1027562.79747  21801756.0994   21801752.2744
       277.4244
   5046108.47749   3917925.65247  21844868.0674   21844864.5994
     -3218.0144
   6235648.77749   4840770.43447  24415336.0284   24415332.9314
     -3830.0204
   5672972.41849   4406357.53147  23793479.4274   23793474.6924
     -3460.5814
  -2741671.69949  -2133236.73447  21840465.6534   21840463.7984
      1184.6944
                                  24234231.685

 04  9 10 15 23 45.0010000  0  6G 1G11G14G19G22G25
  -2692638.35249  -2095334.06647  22061189.3024   22061187.2824
      1219.4774
  -1323651.79349  -1030706.38747  21800988.0994   21800984.8564
       268.9504
   5094436.75049   3955584.02347  21854064.4664   21854060.9624
     -3221.8854
   6293128.19149   4885559.53547  24426274.6614   24426270.4854
     -3831.9614
   5724915.78149   4446832.84447  23803363.7714   23803359.5174
     -3462.8914
  -2759333.57849  -2146999.22747  21837104.8564   21837102.3564
      1177.4594
 04  9 10 15 24  0.0010000  0  6G 1G11G14G19G22G25
  -2710850.13749  -2109525.04747  22057724.0134   22057721.9854
      1214.1194
  -1327558.18449  -1033750.33247  21800244.6224   21800241.5564
       260.4264
   5142823.40249   3993287.89847  21863272.4814   21863268.9274
     -3225.7774
   6350636.82849   4930371.43047  24437217.7944   24437214.9504
     -3833.9094
   5776894.22749   4487335.49247  23813255.0994   23813251.2394
     -3465.2304
  -2776886.32049  -2160676.67647  21833764.8964   21833761.7744
      1170.1834
 04  9 10 15 24 15.0010000  0  6G 1G11G14G19G22G25
  -2728980.55949  -2123652.62547  22054274.0444   22054272.5524
      1208.6954
  -1331335.63349  -1036693.80147  21799525.7554   21799522.5714
       251.8304
   5191269.13349   4031037.79347  21872491.2714   21872487.6534
     -3229.7154
   6408175.27049   4975206.53547  24448167.2394   24448164.0994
     -3835.8964
   5828908.77749   4527866.26647  23823152.8564   23823150.3924
     -3467.6374
  -2794328.57449  -2174268.03547  21830445.5134   21830443.0604
      1162.8174
 04  9 10 15 24 30.0010000  0  6G 1G11G14G19G22G25
  -2747030.94949  -2137717.83647  22050839.4194   22050837.6224
      1203.3594
  -1334985.28549  -1039537.69547  21798831.5834   21798828.2944
       243.3104
   5239772.27749   4068832.42647  21881721.1694   21881717.5134
     -3233.5434
   6465741.66449   5020063.44947  24459122.0284   24459119.0364
     -3837.7604
   5880958.05549   4568424.08647  23833057.4894   23833055.2784
     -3469.9524
  -2811661.49649  -2187774.19147  21827146.8804   21827145.1264
      1155.5284
 04  9 10 15 24 45.0010000  0  6G 1G11G14G19G22G25
  -2765000.23849  -2151719.87147  22047419.5364   22047418.1924
      1197.9534
  -1338506.09049  -1042281.19147  21798161.5284   21798158.1534
       234.7204
   5288333.64149   4106672.43447  21890962.6534   21890958.2634
     -3237.4244
   6523336.68849   5064942.66847  24470082.2474   24470078.7984
     -3839.6684
   5933042.96149   4609009.69547  23842968.9814   23842966.5364
     -3472.3274
  -2828883.85949  -2201194.19547  21823870.1304   21823867.4424
      1148.1584
 04  9 10 15 25  0.0010000  0  6G 1G11G14G19G22G25
  -2782888.23449  -2165658.55947  22044015.4894   22044013.6464
      1192.5334
  -1341897.62549  -1044923.95347  21797516.2554   21797512.0244
       226.1024
   5336953.13349   4144557.72347  21900214.2084   21900210.2864
     -3241.2994
   6580960.15249   5109844.05547  24481046.9814   24481043.2904
     -3841.5644
   5985163.60549   4649623.12947  23852887.2004   23852884.5014
     -3474.7104
  -2845995.43049  -2214527.87547  21820613.5444   21820611.2314
      1140.7714
 04  9 10 15 25 15.0010000  0  6G 1G11G14G22G25G20
  -2800695.59849  -2179534.41447  22040626.7244   22040625.0754
      1187.1584
  -1345160.46949  -1047466.44947  21796895.5134   21796891.6774
       217.5234
   5385629.84049   4182487.60547  21909476.8964   21909472.9544
     -3245.1144
   6037319.36349   4690263.93847  23862812.1224   23862809.9274
     -3477.0514
  -2862996.49649  -2227775.44547  21817378.7084   21817375.6614
      1133.4044
                                  24194705.630

 04  9 10 15 25 30.0010000  0  6G 1G11G14G22G25G20
  -2818421.66449  -2193346.91847  22037253.5674   22037251.8884
      1181.7384
  -1348293.76649  -1049907.99647  21796299.2944   21796295.4544
       208.8864
   5434363.99649   4220462.25447  21918751.0444   21918746.9384
     -3248.9444
   6089510.84049   4730932.57847  23872743.7714   23872741.7004
     -3479.4324
  -2879886.25849  -2240936.28147  21814164.5914   21814161.3604
      1125.9844
   -101590.375 9                  24189065.106
      1975.901
 04  9 10 15 25 45.0010000  0  6G 1G11G14G22G25G20
  -2836067.06249  -2207096.57047  22033896.4894   22033894.2004
      1176.3604
  -1351298.14149  -1052249.07447  21795727.4274   21795723.9034
       200.2924
   5483154.77749   4258481.02747  21928036.0134   21928031.7674
     -3252.7194
   6141737.21549   4771628.42247  23882682.2314   23882679.2824
     -3481.7584
  -2896665.01249  -2254010.62147  21810971.7084   21810968.8454
      1118.5844
   -131220.418 9                  24183427.458
      1975.336
 04  9 10 15 26  0.0010000  0  6G 1G11G14G22G25G20
  -2853630.11349  -2220782.06247  22030554.0604   22030552.5994
      1170.8704
  -1354171.89549  -1054488.37947  21795180.6924   21795177.0994
       191.5844
   5532003.66049   4296545.06347  21937331.2864   21937327.7124
     -3256.5924
   6194000.05549   4812352.66047  23892627.4194   23892624.2744
     -3484.1894
  -2913331.01649  -2266997.10947  21807800.0364   21807797.0284
      1111.0674
   -160840.176 9                  24177791.966
      1974.651
 04  9 10 15 26 15.0010000  0  6G 1G11G14G22G25G20
  -2871110.28149  -2234402.94947  22027227.3804   22027226.0954
      1165.3454
  -1356914.25449  -1056625.28547  21794658.7394   21794655.4034
       182.8244
   5580910.81649   4334654.52047  21946638.2004   21946634.4854
     -3260.4774
   6246299.84449   4853105.69147  23902579.8254   23902576.2744
     -3486.6534
  -2929883.45349  -2279895.09447  21804650.4354   21804647.3374
      1103.4964
   -190449.156 9                  24172156.185
      1973.932
 04  9 10 15 26 30.0010000  0  6G 1G11G14G22G25G20
  -2888507.09849  -2247958.88747  22023916.7944   22023914.9234
      1159.7884
  -1359524.66449  -1058659.38348  21794161.9584   21794159.1924
       174.0274
   5629876.50849   4372809.57847  21955955.7864   21955952.2744
     -3264.3794
   6298637.18449   4893887.99247  23912539.8414   23912535.7284
     -3489.1564
  -2946321.67249  -2292704.09047  21801522.1064   21801518.8024
      1095.8814
   -220046.762 9                  24166523.763
      1973.174
 04  9 10 15 26 45.0010000  0  6G 1G11G14G22G25G20
  -2905821.82449  -2261450.87547  22020621.8494   22020620.0564
      1154.3154
  -1362004.19549  -1060591.49648  21793690.1144   21793687.2824
       165.3024
   5678899.05149   4411008.94147  21965284.2164   21965280.9194
     -3268.1704
   6351010.60949   4934698.41847  23922506.0214   23922502.6774
     -3491.5624
  -2962646.82849  -2305424.97347  21798415.3804   21798412.7244
      1088.3444
   -249634.105 9                  24160892.755
      1972.490
 04  9 10 15 27  0.0010000  0  6G 1G11G14G22G25G20
  -2923053.63349  -2274878.23447  22017343.4744   22017341.3174
      1148.7874
  -1364351.90649  -1062420.88747  21793243.2944   21793240.3994
       156.5144
   5727979.05949   4449253.07447  21974624.2554   21974620.4074
     -3272.0014
   6403420.88749   4975537.54347  23932479.3644   23932476.0604
     -3494.0184
  -2978857.78949  -2318056.87147  21795330.4744   21795327.7284
      1080.7314
   -279210.402 9                  24155265.771
      1971.753
 04  9 10 15 27 15.0010000  0  6G 1G11G14G22G25G20
  -2940203.28149  -2288241.57447  22014079.6144   22014077.4544
      1143.3104
  -1366568.58249  -1064148.18047  21792821.8254   21792818.3374
       147.7784
   5777115.44149   4487541.14547  21983974.4504   21983970.4894
     -3275.7594
   6455867.07849   5016404.68447  23942458.9034   23942455.9234
     -3496.4134
  -2994955.25049  -2330600.31647  21792267.3564   21792265.2354
      1073.1644
   -308776.457 9                  24149639.521
      1971.070
 04  9 10 15 27 30.0010000  0  6G 1G11G14G22G25G20
  -2957269.90249  -2301540.22747  22010832.3104   22010829.8294
      1137.7754
  -1368653.13349  -1065772.50047  21792424.7784   21792421.4154
       138.9704
   5826308.95749   4525873.73047  21993335.5214   21993332.1424
     -3279.5684
   6508350.09849   5057300.50047  23952446.9424   23952443.3844
     -3498.8684
  -3010938.07849  -2343054.45348  21789226.2084   21789223.9504
      1065.5224
   -338331.242 9                  24144015.060
      1970.319
 04  9 10 15 27 45.0010000  0  6G 1G11G14G22G25G20
  -2974255.11349  -2314775.43047  22007599.6614   22007597.9624
      1132.3474
  -1370607.07449  -1067295.05147  21792052.8174   21792049.7204
       130.2634
   5875557.69149   4564249.35247  22002707.2474   22002704.0714
     -3283.2494
   6560868.37149   5098223.78147  23962440.2314   23962438.2244
     -3501.2184
  -3026807.68449  -2355420.36348  21786206.0994   21786204.1064
      1057.9744
   -367876.305 8                  24138392.403
      1969.671
 04  9 10 15 28  0.0010000  0  6G 1G11G14G22G25G20
  -2991158.87949  -2327947.18447  22004382.8334   22004381.0094
      1126.9184
  -1372430.34049  -1068715.78947  21791706.1304   21791702.3024
       121.5514
   5924861.33649   4602667.74647  22012089.6304   22012086.5364
     -3286.9104
   6613421.74249   5139174.40247  23972441.0914   23972439.3024
     -3503.5584
  -3042563.91449  -2367697.93748  21783207.7944   21783205.6264
      1050.4154
   -397411.598 8                  24132771.778
      1969.020
 04  9 10 15 28 15.0010000  0  6G 1G11G14G22G25G20
  -3007981.20349  -2341055.46147  22001181.5364   22001180.6884
      1121.4884
  -1374122.78149  -1070034.58247  21791384.0524   21791379.9744
       112.8294
   5974219.62549   4641128.73847  22021482.1614   22021478.6774
     -3290.5534
   6666010.11749   5180152.30947  23982448.3024   23982446.9074
     -3505.8924
  -3058206.55149  -2379887.00047  21780230.8964   21780228.9074
      1042.8424
   -426936.863 8                  24127152.763
      1968.351
 04  9 10 15 28 30.0010000  0  6G 1G11G14G22G25G20
  -3024721.21149  -2354099.61347  21997996.3494   21997994.8134
      1116.0014
  -1375683.32849  -1071250.61347  21791087.0524   21791083.5014
       104.0364
   6023633.28149   4679632.85247  22030885.3564   22030882.3104
     -3294.2444
   6718634.29349   5221158.11747  23992462.5754   23992460.6464
     -3508.2784
  -3073734.53949  -2391986.71147  21777275.8024   21777273.8254
      1035.1994
   -456451.512 8                  24121533.646
      1967.643
 04  9 10 15 28 45.0010000  0  5G 1G11G14G22G25
  -3041379.18449  -2367079.84047  21994826.5364   21994824.7004
      1110.5324
  -1377112.28149  -1072364.09047  21790815.0134   21790811.5674
        95.2644
   6073101.59049   4718179.56347  22040298.5134   22040296.2314
     -3297.8874
   6771294.00849   5262191.60947  24002483.4194   24002481.3564
     -3510.6484
  -3089147.96949  -2403997.16047  21774343.1304   21774340.8884
      1027.5624
 04  9 10 15 29  0.0010000  0  6G 1G11G14G22G25G20
  -3057957.10549  -2379997.69147  21991671.7164   21991669.9274
      1105.1954
  -1378411.41449  -1073376.41047  21790568.1064   21790564.0564
        86.6094
   6122622.37149   4756767.16847  22049722.1224   22049719.4074
     -3301.3854
   6823987.12549   5303251.13747  24012510.5214   24012508.2394
     -3512.8744
  -3104448.72349  -2415919.81248  21771431.4034   21771429.4974
      1020.0504
                                  24110309.708

 04  9 10 15 29 15.0010000  0  6G 1G11G14G22G25G20
  -3074453.92249  -2392852.34047  21988532.1304   21988529.9934
      1099.7884
  -1379579.63349  -1074286.72747  21790345.8414   21790342.0094
        77.8814
   6172196.39549   4795396.24647  22059156.2944   22059153.0914
     -3304.9354
   6876714.69149   5344337.51647  24022544.7164   24022540.5484
     -3515.1714
  -3119635.42249  -2427753.60547  21768541.7714   21768539.4114
      1012.4474
    -40503.445 8                  24104698.271
      1965.704
 04  9 10 15 29 30.0010000  0  6G 1G11G14G22G25G20
  -3090866.55949  -2405641.39147  21985409.2314   21985407.1384
      1094.1764
  -1380613.69949  -1075092.50447  21790149.0994   21790145.5714
        68.9384
   6221826.48849   4834069.02747  22068600.2084   22068597.6034
     -3308.6734
   6929479.62949   5385453.00447  24032584.9034   24032581.0954
     -3517.6624
  -3134704.78149  -2439495.94547  21765673.8884   21765671.4934
      1004.6244
    -69976.098 9                  24099089.927
      1964.843
 04  9 10 15 29 45.0010000  0  6G 1G11G14G22G25G20
  -3107197.34049  -2418366.66047  21982301.2864   21982299.6694
      1088.7194
  -1381515.97749  -1075795.58647  21789977.2634   21789973.8134
        60.1524
   6271509.98049   4872783.41047  22078054.8104   22078051.8414
     -3312.2334
   6982279.50849   5426595.71147  24042632.9274   24042629.0634
     -3519.9924
  -3149658.97749  -2451148.55947  21762828.2944   21762825.3884
       996.9464
    -99438.191 8                  24093484.192
      1964.140
 04  9 10 15 30  0.0010000  0  6G 1G11G14G22G25G20
  -3123446.04749  -2431027.97347  21979209.3804   21979207.9934
      1083.2474
  -1382286.10549  -1076395.69147  21789830.6384   21789827.0604
        51.3424
   6321246.84049   4911539.38747  22087519.1064   22087516.0524
     -3315.7914
   7035114.57049   5467765.82447  24052686.9354   24052683.5324
     -3522.3374
  -3164497.65249  -2462711.15247  21760004.5994   21760002.0954
       989.2454
   -128889.395 8                  24087878.060
      1963.414
 04  9 10 15 30 15.0010000  0  6G 1G11G14G22G25G20
  -3139613.27349  -2443625.80147  21976132.8964   21976131.3804
      1077.8154
  -1382924.77349  -1076893.34847  21789708.8644   21789705.2594
        42.5784
   6371036.11749   4950336.20347  22096993.6854   22096991.0564
     -3319.2854
   7087984.10549   5508962.81647  24062747.7394   24062744.9354
     -3524.6364
  -3179221.23049  -2474184.05547  21757202.5054   21757200.1064
       981.5724
   -158330.273 8                  24082275.200
      1962.725
 04  9 10 15 30 30.0010000  0  6G 1G11G14G22G25G20
  -3155698.55549  -2456159.77047  21973071.8804   21973070.1064
      1072.3524
  -1383430.97349  -1077287.79347  21789612.8334   21789609.1384
        33.7474
   6420878.18849   4989174.16847  22106478.5524   22106476.1034
     -3322.8054
   7140888.55949   5550187.02747  24072815.5134   24072812.5834
     -3526.9644
  -3193829.02049  -2485566.74247  21754422.7864   21754420.2824
       973.8534
                                  24076675.138
      1962.037
 04  9 10 15 30 45.0010000  0  5G 1G11G14G22G25
  -3171701.78149  -2468629.78947  21970026.7004   21970024.4424
      1066.8824
  -1383804.69149  -1077579.01247  21789541.8884   21789537.7284
        24.9154
   6470772.93449   5028053.17247  22115973.2944   22115970.2674
     -3326.3164
   7193828.04349   5591438.51647  24082889.1224   24082886.1344
     -3529.2994
  -3208320.79349  -2496859.02048  21751664.8884   21751662.7634
       966.1184
 04  9 10 15 31  0.0010000  0  5G 1G11G14G22G25
  -3187623.93449  -2481036.64547  21966996.8104   21966994.5214
      1061.4774
  -1384046.73449  -1077767.63347  21789495.7634   21789491.6224
        16.1364
   6520719.06349   5066972.20747  22125477.2784   22125474.9154
     -3329.7424
   7246801.50049   5632716.52047  24092969.9194   24092966.7044
     -3531.5644
  -3222697.10949  -2508061.32447  21748929.6384   21748926.7354
       958.4214
 04  9 10 15 31 15.0010000  0  5G 1G11G14G22G25
  -3203464.89149  -2493380.23047  21963982.5754   21963980.3764
      1056.0644
  -1384156.89849  -1077853.48047  21789475.1304   21789470.8254
         7.3444
   6570716.32049   5105931.08647  22134991.7244   22134989.1384
     -3333.1514
   7299808.92649   5674020.93047  24103056.7944   24103053.6964
     -3533.8284
  -3236957.84449  -2519173.58247  21746215.8644   21746213.1654
       950.7164
 04  9 10 15 31 30.0010000  0  5G 1G11G14G22G25
  -3219223.47749  -2505659.62147  21960983.4584   21960981.3024
      1050.5724
  -1384133.80949  -1077835.50048  21789479.2314   21789475.6304
        -1.5394
   6620765.65649   5144930.53947  22144516.1534   22144512.8134
     -3336.6224
   7352851.42249   5715352.68847  24113150.6464   24113148.2474
     -3536.1664
  -3251101.71549  -2530194.77347  21743524.2004   21743521.8604
       942.9254
 04  9 10 15 31 45.0010000  0  6G 1G11G14G22G25G20
  -3234899.32849  -2517874.55547  21958000.7554   21957998.0994
      1045.0574
  -1383977.21149  -1077713.48447  21789509.1064   21789505.4114
       -10.4404
   6670867.20749   5183970.68047  22154049.9274   22154046.5054
     -3340.1034
   7405929.36749   5756712.07847  24123250.8644   24123248.6384
     -3538.5304
  -3265128.14849  -2541124.44147  21740854.9744   21740853.0134
       935.0964
    -92096.35518                  24048702.841

 04  9 10 15 32  0.0010000  0  6G 1G11G14G22G25G20
  -3250493.92249  -2530026.16847  21955033.1924   21955030.7634
      1039.6404
  -1383688.48449  -1077488.50847  21789563.7004   21789560.4704
       -19.2484
   6721019.29749   5223050.21547  22163593.7004   22163590.5404
     -3343.4734
   7459041.17649   5798097.85247  24133357.4664   24133354.6534
     -3540.7874
  -3279038.39849  -2551963.59047  21738208.1064   21738205.8604
       927.3504
   -121460.14818                  24043118.083

 04  9 10 15 32 15.0010000  0  6G 1G11G14G22G25G20
  -3266006.83649  -2542114.15647  21952081.1924   21952078.5524
      1034.1944
  -1383266.89849  -1077160.02747  21789644.5444   21789641.1104
       -28.1064
   6771222.00449   5262169.18047  22173146.9664   22173143.8374
     -3346.8474
   7512187.12949   5839510.23447  24143470.6144   24143468.1384
     -3543.0644
  -3292831.69149  -2562711.59847  21735583.1694   21735581.2124
       919.5534
   -150812.727 8                  24037532.239
      1956.839
 04  9 10 15 32 30.0010000  0  6G 1G11G14G22G25G20
  -3281437.02749  -2554137.66447  21949144.7394   21949142.8214
      1028.6794
  -1382711.56249  -1076727.30947  21789749.8644   21789747.1424
       -37.0224
   6821476.13349   5301328.22347  22182709.6854   22182706.8374
     -3350.2754
   7565368.28949   5880950.04347  24153591.0524   24153588.8134
     -3545.4114
  -3306506.91449  -2573367.59447  21732981.0284   21732978.6884
       911.6824
                                  24031946.497
      3913.677
 04  9 10 15 32 45.0010000  0  6G 1G11G14G22G25G20
  -3296784.91449  -2566097.04747  21946223.9664   21946222.4154
      1023.1924
  -1382022.65649  -1076190.50447  21789880.7784   21789877.5834
       -45.9274
   6871781.02049   5340526.80547  22192282.4664   22192279.6304
     -3353.6594
   7618584.14149   5922416.87946  24163717.3494   24163714.9424
     -3547.7234
  -3320064.29349  -2583931.76247  21730401.0994   21730398.5754
       903.8254
   -209481.41818                  24026365.224
      5870.516
 04  9 10 15 33  0.0010000  0  6G 1G11G14G22G25G20
  -3312051.60249  -2577993.15647  21943318.7864   21943317.2984
      1017.7794
  -1381201.22749  -1075550.42647  21790037.0994   21790033.7284
       -54.7624
   6922135.28949   5379763.86747  22201864.8494   22201861.8104
     -3356.9514
   7671833.59849   5963909.90247  24173851.0054   24173848.2594
     -3549.9644
  -3333504.68449  -2594404.78147  21727843.3174   21727840.6184
       896.0264
   -238798.85918                  24020788.653
      7827.354
 04  9 10 15 33 15.0010000  0  6G 1G11G14G22G25G20
  -3327237.00049  -2589825.92247  21940429.3964   21940426.9744
      1012.3604
  -1380247.01649  -1074806.89847  21790218.7944   21790215.1304
       -63.6144
   6972538.75849   5419039.27347  22211456.0134   22211453.2394
     -3360.2314
   7725116.68049   6005429.13747  24183990.3644   24183987.5244
     -3552.2054
  -3346827.94149  -2604786.53147  21725307.8724   21725305.1924
       888.2174
   -268105.129 8                  24015213.067
      1953.751
 04  9 10 15 33 30.0010000  0  6G 1G11G14G22G25G20
  -3342341.14149  -2601595.38347  21937554.7554   21937552.9464
      1006.9434
  -1379159.92249  -1073959.82047  21790425.6384   21790422.3644
       -72.4734
   7022991.30149   5458352.92247  22221056.8254   22221054.2984
     -3363.5034
   7778433.28549   6046974.48447  24194136.5364   24194133.4854
     -3554.4404
  -3360033.87149  -2615076.85547  21722794.9034   21722792.4934
       880.3954
   -297400.145 8                  24009639.138
      1953.001
 04  9 10 15 33 45.0010000  0  6G 1G11G14G22G25G20
  -3357363.77349  -2613301.30947  21934695.8494   21934694.2434
      1001.5094
  -1377939.76249  -1073009.04747  21790658.0134   21790654.1064
       -81.3444
   7073492.73449   5497704.65647  22230666.9664   22230664.6654
     -3366.7624
   7831783.50049   6088546.01247  24204288.7474   24204285.4814
     -3556.6814
  -3373122.24249  -2625275.57047  21720304.3804   21720302.0134
       872.5584
   -326683.766 8                  24004065.708
      1952.241
 04  9 10 15 34  0.0010000  0  6G 1G11G14G22G25G20
  -3372305.35949  -2624944.08247  21931853.0284   21931851.2864
       996.1064
  -1376586.84049  -1071954.81247  21790915.1064   21790911.8844
       -90.1954
   7124042.34449   5537093.94547  22240286.5834   22240283.4814
     -3369.9744
   7885166.85549   6130143.37147  24214447.3024   24214443.7594
     -3558.8904
  -3386093.16849  -2635382.76647  21717835.9894   21717833.4464
       864.7284
   -355956.352 8                  23998495.138
      1951.506
 04  9 10 15 34 15.0020000  0  6G 1G11G14G22G25G20
  -3387166.44949  -2636524.14147  21929024.9634   21929022.5724
       990.7394
  -1375100.50049  -1070796.62547  21791198.1114   21791194.6044
       -99.0894
   7174643.80949   5576523.62947  22249915.4714   22249912.4244
     -3373.4314
   7938587.32049   6171769.65647  24224613.1114   24224609.6114
     -3561.3644
  -3398946.69949  -2645398.50047  21715390.1744   21715387.4794
       856.9024
   -385219.176 8                  23992926.955
      1950.855
 04  9 10 15 34 30.0020000  0  6G 1G11G14G22G25G20
  -3401942.34449  -2648037.80147  21926213.5574   21926210.5024
       985.0604
  -1373478.08249  -1069532.40247  21791507.0494   21791503.1194
      -108.1614
   7225292.81649   5615990.36347  22259553.7524   22259551.1074
     -3376.6014
   7992040.50849   6213421.43447  24234785.4394   24234781.2524
     -3563.5464
  -3411678.31649  -2655319.21947  21712967.5964   21712965.0104
       848.7744
   -414465.594 8                  23987361.377
      1949.761
 04  9 10 15 34 45.0020000  0  6G 1G11G14G22G25G20
  -3416635.35949  -2659486.89547  21923417.4794   21923415.2134
       979.5344
  -1371720.82849  -1068163.13747  21791841.5024   21791837.6044
      -117.1504
   7275991.18049   5655495.55547  22269201.4944   22269198.2754
     -3379.8914
   8045528.52749   6255100.35547  24244963.6044   24244960.3934
     -3565.8684
  -3424290.10249  -2665146.56647  21710567.1434   21710564.5374
       840.7864
   -443698.832 8                  23981798.799
      1948.883
 04  9 10 15 35  0.0020000  0  6G 1G11G14G22G25G20
  -3431247.07049  -2670872.61747  21920636.8304   21920635.3224
       974.1144
  -1369830.11349  -1066689.85547  21792201.2294   21792197.4904
      -126.0484
   7326737.06349   5695037.77047  22278857.9794   22278854.6894
     -3383.0594
   8099049.80549   6296805.18047  24255148.0964   24255144.6934
     -3568.0854
  -3436783.43749  -2674881.61347  21708189.8854   21708187.3774
       832.8894
   -472920.332 8                  23976234.947
      1948.100
 04  9 10 15 35 15.0020000  0  6G 1G11G14G22G25G20
  -3445776.21549  -2682194.02347  21917871.9084   21917870.0024
       968.6104
  -1367804.61349  -1065111.55547  21792586.5884   21792583.0614
      -135.0334
   7377531.46149   5734617.79347  22288523.7604   22288520.9864
     -3386.2934
   8152605.48049   6338536.82047  24265338.8384   24265336.4364
     -3570.3784
  -3449156.91049  -2684523.26247  21705835.2754   21705832.6704
       824.8984
   -502128.60918                  23970679.744
      1947.317
 04  9 10 15 35 30.0020000  0  6G 1G11G14G22G25G20
  -3460223.29749  -2693451.48047  21915122.7054   21915120.7564
       963.1394
  -1365644.83649  -1063428.62147  21792997.5494   21792994.0614
      -143.9854
   7428373.59849   5774235.02347  22298198.7994   22298196.2364
     -3389.4764
   8206194.95749   6380294.78147  24275537.0644   24275534.2364
     -3572.6324
  -3461410.85949  -2694071.78547  21703503.3614   21703501.1154
       816.9304
   -531324.332 8                  23965124.064
      1946.382
 04  9 10 15 35 45.0020000  0  6G 1G11G14G22G25G20
  -3474588.98449  -2704645.50847  21912388.8774   21912386.5104
       957.7134
  -1363351.31249  -1061641.46147  21793434.1974   21793430.2294
      -152.9024
   7479262.57449   5813888.75047  22307882.9794   22307880.1044
     -3392.5984
   8259817.60549   6422078.59847  24285741.2364   24285738.1824
     -3574.8434
  -3473545.72349  -2703527.50847  21701194.2604   21701192.1044
       808.9914
   -560508.031 8                  23959570.088
      1945.580
 04  9 10 15 36  0.0020000  0  6G 1G11G14G22G25G20
  -3488872.97749  -2715775.89547  21909670.6974   21909668.2714
       952.2664
  -1360923.44949  -1059749.62947  21793896.1504   21793892.4794
      -161.8584
   7530198.54349   5853579.08647  22317575.7994   22317573.1824
     -3395.7314
   8313473.62149   6463888.41847  24295951.7604   24295949.4674
     -3577.0684
  -3485561.16449  -2712890.16847  21698907.4944   21698905.2324
       801.0294
   -589679.320 8                  23954019.463
      1944.753
 04  9 10 15 36 15.0020000  0  6G 1G11G14G22G25G20
  -3503074.09049  -2726841.68447  21906968.2364   21906966.5534
       946.7414
  -1358360.14849  -1057752.26248  21794384.0184   21794380.2874
      -170.8874
   7581182.33649   5893306.69947  22327277.8144   22327274.6194
     -3398.9204
   8367164.18449   6505725.16847  24306169.0414   24306166.4394
     -3579.3714
  -3497455.64549  -2722158.58647  21696644.1824   21696641.5804
       792.9654
   -618836.75018                  23948471.354
      1943.925
 04  9 10 15 36 30.0020000  0  6G 1G11G14G22G25G20
  -3517192.35949  -2737842.93047  21904281.8854   21904280.3854
       941.2184
  -1355661.35249  -1055649.31647  21794897.8464   21794893.8574
      -179.9204
   7632213.72749   5933071.39547  22336988.6664   22336985.1354
     -3402.0934
   8420889.15649   6547588.74247  24316392.5574   24316390.1584
     -3581.6654
  -3509229.11749  -2731332.72747  21694403.5644   21694401.0644
       784.8984
                                  23942924.439
      1943.098
 04  9 10 15 36 45.0020000  0  6G 1G11G14G22G25G20
  -3531228.18749  -2748779.93047  21901610.9164   21901608.9634
       935.7224
  -1352827.38749  -1053441.04347  21795436.6974   21795432.4674
      -188.9314
   7683292.05149   5972872.66047  22346708.5644   22346704.8074
     -3405.2224
   8474648.04349   6589478.70347  24326622.8384   24326620.2294
     -3583.9264
  -3520881.81249  -2740412.73447  21692186.6584   21692183.8304
       776.8464
   -677110.62118                  23937381.658
      1942.271
 04  9 10 15 37  0.0020000  0  6G 1G11G14G22G25G20
  -3545181.46549  -2759652.59447  21898955.6434   21898953.9674
       930.2184
  -1349858.04749  -1051127.28547  21796001.5964   21795997.8734
      -197.9564
   7734417.18049   6012710.40647  22356437.6044   22356434.0614
     -3408.3424
   8528440.94149   6631395.21147  24336859.5024   24336856.4044
     -3586.1934
  -3532413.39549  -2749398.36748  21689992.1504   21689989.8224
       768.7724
   -706226.992 8                  23931840.682
      1941.091
 04  9 10 15 37 15.0020000  0  6G 1G11G14G22G25G20
  -3559052.06249  -2770460.83247  21896316.1504   21896314.3694
       924.7074
  -1346753.17249  -1048707.90647  21796592.7524   21796589.2684
      -206.9924
   7785588.97749   6052584.50847  22366175.0884   22366171.6044
     -3411.4534
   8582268.01649   6673338.33647  24347102.1044   24347099.2324
     -3588.4724
  -3543823.53549  -2758289.37147  21687820.5334   21687817.8424
       760.6764
   -735329.508 8                  23926303.635
      1940.168
 04  9 10 15 37 30.0020000  0  6G 1G11G14G22G25G20
  -3572840.05949  -2781204.70347  21893692.2134   21893690.1274
       919.2004
  -1343512.68749  -1046182.85547  21797209.5964   21797205.8464
      -216.0324
   7836807.13749   6092494.73847  22375921.4794   22375918.2014
     -3414.5444
   8636129.02049   6715307.89847  24357351.4634   24357348.5724
     -3590.7344
  -3555112.38349  -2767085.86347  21685672.8774   21685669.9044
       752.5904
   -764418.180 9                  23920768.596
      1939.245
 04  9 10 15 37 45.0020000  0  6G 1G11G14G22G25G20
  -3586545.31249  -2791884.10547  21891084.4794   21891082.4984
       913.6844
  -1340136.41849  -1043552.01247  21797851.9634   21797848.4164
      -225.0854
   7888071.57049   6132441.02047  22385676.5184   22385673.2954
     -3417.6294
   8690023.92249   6757303.86747  24367607.6274   24367604.1434
     -3592.9934
  -3566279.46949  -2775787.47747  21683547.3854   21683544.6584
       744.4724
   -793492.672 8                  23915236.385
      1938.299
 04  9 10 15 38  0.0020000  0  6G 1G11G14G22G25G20
  -3600168.06649  -2802499.22747  21888491.7444   21888489.5964
       908.1844
  -1336624.45749  -1040815.41447  21798520.0964   21798516.5214
      -234.1314
   7939381.66049   6172422.88747  22395440.9864   22395437.3894
     -3420.6734
   8743952.50449   6799326.09447  24377869.2914   24377865.5414
     -3595.2394
  -3577324.79749  -2784394.22747  21681445.8694   21681443.0844
       736.3554
   -822553.184 8                  23909706.197
      1937.367
 04  9 10 15 38 15.0020000  0  6G 1G11G14G22G25G20
  -3613708.18449  -2813049.96547  21885915.6354   21885913.1044
       902.6744
  -1332976.60549  -1037972.94148  21799214.1664   21799211.0644
      -243.1904
   7990737.39549   6212440.32847  22405213.3074   22405210.3144
     -3423.7164
   8797914.88349   6841374.62947  24388138.3074   24388135.0804
     -3597.4924
  -3588248.20749  -2792905.96147  21679366.9794   21679364.5414
       728.2274
   -851599.430 8                  23904178.486
      1936.416
 04  9 10 15 38 30.0020000  0  6G 1G11G14G22G25G20
  -3627165.59849  -2823536.24247  21883354.2054   21883352.1894
       897.1614
  -1329192.80149  -1035024.52747  21799934.2364   21799930.5454
      -252.2544
   8042138.64149   6252493.23847  22414994.9394   22414992.3504
     -3426.7504
   8851911.15249   6883449.55547  24398413.2524   24398410.3304
     -3599.7514
  -3599049.37949  -2801322.45348  21677311.6974   21677309.5454
       720.0784
   -880631.234 8                  23898652.830
      1935.454
 04  9 10 15 38 45.0020000  0  6G 1G11G14G22G25G20
  -3640540.12549  -2833957.94147  21880809.4554   21880807.2014
       891.6354
  -1325272.71549  -1031969.90648  21800680.1274   21800676.9864
      -261.3394
   8093585.44549   6292581.63347  22424784.4394   22424782.0294
     -3429.7874
   8905941.35249   6925550.97347  24408695.1044   24408692.0144
     -3602.0134
  -3609727.89549  -2809643.36747  21675279.4004   21675277.3304
       711.9014
   -909648.410 8                  23893130.854
      1934.478
 04  9 10 15 39  0.0020000  0  6G 1G11G14G22G25G20
  -3653833.25849  -2844316.22748  21878280.1894   21878277.9434
       886.2094
  -1321217.72749  -1028810.18047  21801451.8614   21801448.9004
      -270.3334
   8145076.03949   6332704.14547  22434583.1974   22434580.1504
     -3432.7064
   8960004.09849   6967677.73847  24418983.0184   24418980.5614
     -3604.1834
  -3620285.04749  -2817869.71147  21673270.4244   21673268.3144
       703.8104
   -938652.191 9                  23887611.354
      1933.585
 04  9 10 15 39 15.0020000  0  6G 1G11G14G22G25G20
  -3667043.06649  -2854609.57047  21875766.1434   21875764.2484
       880.6544
  -1317025.86349  -1025543.79747  21802249.6584   21802246.4634
      -279.4584
   8196612.07449   6372862.05947  22444390.1504   22444386.9714
     -3435.7364
   9014101.17649   7009831.25847  24429277.5334   24429275.4394
     -3606.4724
  -3630718.84849  -2825999.94147  21671285.1194   21671282.8814
       695.5874
   -967640.566 9                  23882096.049
      1932.558
 04  9 10 15 39 30.0020000  0  6G 1G11G14G22G25G20
  -3680170.05549  -2864838.37547  21873268.3224   21873265.9124
       875.1334
  -1312697.41849  -1022170.99247  21803073.7914   21803069.6824
      -288.5634
   8248192.78949   6413054.80547  22454205.4714   22454202.8694
     -3438.7144
   9068231.98849   7052011.07047  24439578.4084   24439576.0414
     -3608.7214
  -3641029.59449  -2834034.28147  21669323.0024   21669321.0644
       687.3834
   -996613.961 9                  23876583.158
      1931.560
 04  9 10 15 39 45.0020000  0  6G 1G11G14G22G25G20
  -3693212.72349  -2875001.47347  21870786.2134   21870783.9004
       869.5114
  -1308230.75449  -1018690.50447  21803923.3074   21803919.5844
      -297.7784
   8299819.43449   6453283.33247  22464029.7684   22464026.9824
     -3441.7764
   9122397.93049   7094218.21147  24449885.3934   24449883.8694
     -3611.0634
  -3651215.58249  -2841971.41848  21667384.5024   21667382.3614
       679.0664
  -1025570.895 8                  23871072.088
      1930.462
 04  9 10 15 40  0.0020000  0  6G 1G11G14G22G25G20
  -3706172.78549  -2885100.20747  21868319.5494   21868317.6274
       864.0044
  -1303627.84449  -1015103.82848  21804799.5024   21804795.3034
      -306.8614
   8351490.11749   6493546.17247  22473862.5574   22473859.4164
     -3444.7124
   9176597.25849   7136451.40647  24460198.9864   24460198.1044
     -3613.2894
  -3661278.29349  -2849812.47747  21665469.5884   21665467.2914
       670.8474
  -1054512.770 9                  23865564.588
      1929.458
 04  9 10 15 40 15.0020000  0  6G 1G11G14G22G25G20
  -3719048.02049  -2895132.84847  21865869.7994   21865867.2914
       858.3494
  -1298886.27749  -1011409.11348  21805701.6664   21805697.6664
      -316.1044
   8403206.90649   6533844.93847  22483703.7754   22483700.8614
     -3447.7864
   9230832.32849   7178712.45347  24470519.6584   24470518.1154
     -3615.6714
  -3671215.48049  -2857555.73048  21663579.2604   21663576.2134
       662.4794
  -1083437.324 9                  23860060.393
      1928.304
 04  9 10 15 40 30.0020000  0  6G 1G11G14G22G25G20
  -3731839.92249  -2905100.55547  21863435.6044   21863433.3654
       852.7934
  -1294007.33649  -1007607.34847  21806630.1974   21806626.5334
      -325.2634
   8454968.09449   6574178.30947  22493553.9474   22493550.6504
     -3450.7464
   9285101.46949   7221000.01647  24480846.6434   24480845.7524
     -3617.9434
  -3681028.50849  -2865202.23848  21661711.7604   21661708.8964
       654.2024
  -1112345.937 9                  23854559.057
      1927.241
 04  9 10 15 40 45.0020000  0  6G 1G11G14G22G25G20
  -3744548.92249  -2915003.66847  21861017.3614   21861015.1704
       847.2674
  -1288991.40249  -1003698.83648  21807584.5334   21807581.3964
      -334.3964
   8506772.98449   6614545.74247  22503411.9004   22503408.6314
     -3453.6594
   9339404.19949   7263313.76647  24491180.0184   24491178.4674
     -3620.1824
  -3690717.59049  -2872752.17648  21659867.9004   21659865.1004
       645.9394
  -1141238.844 9                  23849060.588
      1926.194
 04  9 10 15 41  0.0020000  0  6G 1G11G14G22G25G20
  -3757174.52349  -2924841.78147  21858614.3854   21858612.7954
       841.7074
  -1283838.02049   -999683.21947  21808565.1894   21808561.6464
      -343.5594
   8558621.69149   6654947.30147  22513278.1274   22513274.8894
     -3456.5804
   9393740.96149   7305654.02746  24501520.1664   24501517.7054
     -3622.4514
  -3700282.13349  -2880205.05948  21658047.5964   21658045.2644
       637.6364
  -1170115.664 9                  23843565.869
      1925.121
 04  9 10 15 41 15.0020000  0  6G 1G11G14G22G25G20
  -3769717.17249  -2934615.26647  21856227.9634   21856226.0334
       836.1774
  -1278547.49649   -995560.74247  21809572.1274   21809567.7214
      -352.7024
   8610513.62149   6695382.55547  22523152.6584   22523149.8464
     -3459.4624
   9448111.29349   7348020.48447  24511866.7214   24511864.6664
     -3624.6894
  -3709722.39849  -2887561.09048  21656251.2914   21656248.7604
       629.3514
  -1198976.684 9                  23838074.439
      1924.068
 04  9 10 15 41 30.0020000  0  6G 1G11G14G22G25G20
  -3782175.88349  -2944323.32847  21853857.1744   21853854.6864
       830.5814
  -1273118.80949   -991330.58247  21810604.6584   21810600.3694
      -361.9124
   8662449.50049   6735852.03547  22533036.3304   22533033.6074
     -3462.3924
   9502516.03549   7390413.74647  24522219.3074   24522217.3034
     -3626.9834
  -3719037.18749  -2894819.37148  21654478.8774   21654476.0064
       620.9864
  -1227820.742 8                  23832584.299
      1922.937
 04  9 10 15 41 45.0020000  0  6G 1G11G14G22G25G20
  -3794551.04349  -2953966.30547  21851502.0804   21851499.8074
       825.0114
  -1267552.11749   -986992.91047  21811664.2834   21811660.1074
      -371.1134
   8714428.89149   6776355.43047  22542927.4084   22542925.5064
     -3465.2934
   9556954.89549   7432833.56347  24532578.7134   24532576.5574
     -3629.2574
  -3728226.73449  -2901980.04348  21652729.6434   21652727.2014
       612.6364
  -1256648.062 9                  23827099.057
      1921.821
 04  9 10 15 42  0.0020000  0  6G 1G11G14G22G25G20
  -3806843.54349  -2963544.85247  21849162.7214   21849160.2524
       819.5004
  -1261848.40649   -982548.47747  21812749.7294   21812745.8504
      -380.2474
   8766450.62949   6816891.81647  22552827.1744   22552824.4244
     -3468.1164
   9611426.86349   7475279.18847  24542944.7684   24542942.6824
     -3631.4654
  -3737291.64849  -2909043.61348  21651005.0644   21651002.7054
       604.3284
  -1285459.484 8                  23821616.080
      1920.761
 04  9 10 15 42 15.0020000  0  6G 1G11G14G22G25G20
  -3819052.48849  -2973058.30547  21846839.2834   21846836.7684
       813.9304
  -1256006.63749   -977996.44547  21813861.2364   21813857.7444
      -389.4514
   8818515.30149   6857461.67247  22562734.7834   22562731.8464
     -3470.9784
   9665932.83649   7517751.31347  24553317.0254   24553315.0724
     -3633.7324
  -3746230.93449  -2916009.28548  21649303.8934   21649301.3894
       595.9524
  -1314254.062 9                  23816137.908
      1919.639
 04  9 10 15 42 30.0020000  0  6G 1G11G14G22G25G20
  -3831177.67249  -2982506.49247  21844531.9794   21844529.7564
       808.3464
  -1250026.29349   -973336.44547  21814999.3854   21814995.6894
      -398.6904
   8870623.00049   6898065.03947  22572650.2364   22572647.6504
     -3473.8474
   9720472.93049   7560250.03547  24563695.2834   24563693.7134
     -3636.0064
  -3755044.30949  -2922876.84048  21647626.7994   21647624.1464
       587.5584
  -1343031.242 9                  23810660.338
      1918.479
 04  9 10 15 42 45.0020000  0  6G 1G11G14G22G25G20
  -3843219.64549  -2991889.81247  21842240.0724   21842238.3034
       802.7984
  -1243908.18749   -968569.10547  21816163.7444   21816159.6624
      -407.8744
   8922772.78549   6938701.21947  22582574.4474   22582571.3144
     -3476.6524
   9775046.46949   7602774.83247  24574081.1744   24574078.4434
     -3638.2364
  -3763732.27349  -2929646.68447  21645973.7364   21645970.4284
       579.1984
  -1371791.539 9                  23805188.869
      1917.353
 04  9 10 15 43  0.0020000  0  6G 1G11G14G22G25G20
  -3855179.00449  -3001208.77047  21839964.5884   21839962.5684
       797.2914
  -1237652.91049   -963694.86747  21817353.7914   21817350.2054
      -417.0184
   8974963.99649   6979369.66047  22592505.9714   22592502.9084
     -3479.4144
   9829652.94549   7645325.27347  24584472.6274   24584470.2794
     -3640.4324
  -3772295.06249  -2936318.98848  21644343.9394   21644340.7524
       570.8534
  -1400535.484 9                  23799718.885
      1916.263
 04  9 10 15 43 15.0020000  0  6G 1G11G14G22G25G20
  -3867054.59449  -3010462.46547  21837704.8614   21837702.7604
       791.7064
  -1231259.13349   -958712.71547  21818570.7444   21818566.8894
      -426.2524
   9027197.44549   7020071.02747  22602445.7754   22602442.5884
     -3482.2304
   9884293.41049   7687902.19947  24594870.2294   24594868.6354
     -3642.6984
  -3780731.34849  -2942892.71147  21642738.8304   21642735.8464
       562.4194
  -1429261.965 9                  23794251.846
      1915.099
 04  9 10 15 43 30.0020000  0  6G 1G11G14G22G25G20
  -3878846.53149  -3019650.96947  21835460.9244   21835458.9474
       786.1294
  -1224726.77349   -953622.57848  21819813.3074   21819810.5024
      -435.4914
   9079472.93849   7060805.14847  22612393.0574   22612390.2564
     -3485.0334
   9938967.68449   7730505.49647  24605274.5184   24605272.6274
     -3644.9524
  -3789041.19549  -2949367.91048  21641157.5494   21641154.6784
       553.9904
  -1457970.793 9                  23788788.135
      1913.922
 04  9 10 15 43 45.0020000  0  6G 1G11G14G22G25G20
  -3890555.27049  -3028774.62147  21833232.8224   21833230.9394
       780.5834
  -1218056.37949   -948424.87548  21821082.7364   21821080.1894
      -444.6934
   9131789.70349   7101571.44147  22622348.9324   22622346.0924
     -3487.7844
   9993675.28549   7773134.72347  24615685.0574   24615682.9754
     -3647.1734
  -3797224.87549  -2955744.79348  21639600.1354   21639597.0724
       545.5794
  -1486662.266 9                  23783327.986
      1912.765
 04  9 10 15 44  0.0020000  0  6G 1G11G14G22G25G20
  -3902181.62949  -3037834.09847  21831020.3304   21831017.7564
       775.0914
  -1211248.65649   -943120.16447  21822378.5964   21822375.5574
      -453.8484
   9184146.78149   7142369.12547  22632312.3694   22632309.5494
     -3490.4724
  10048415.33649   7815789.25847  24626101.5644   24626099.5804
     -3649.3374
  -3805283.07849  -2962023.91048  21638066.7994   21638063.4164
       537.2144
  -1515337.082 9                  23777871.814
      1911.654
 04  9 10 15 44 15.0020000  0  6G 1G11G14G22G25G20
  -3913725.38749  -3046829.21947  21828823.5574   21828820.9674
       769.5844
  -1204303.41049   -937708.28547  21823699.7834   21823696.3144
      -463.0164
   9236544.19949   7183198.25447  22642283.2214   22642280.4474
     -3493.1614
  10103188.07049   7858469.27347  24636524.4324   24636522.1114
     -3651.5164
  -3813215.48049  -2968204.99648  21636557.3144   21636554.1624
       528.8274
  -1543994.992 9                  23772418.166
      1910.527
 04  9 10 15 44 30.0020000  0  6G 1G11G14G22G25G20
  -3925186.46149  -3055759.91847  21826642.9554   21826640.4284
       764.0724
  -1197220.28149   -932188.95747  21825047.9554   21825044.2134
      -472.2094
   9288981.75849   7224058.66047  22652261.7834   22652259.0534
     -3495.8374
  10157993.48049   7901174.73447  24646953.5024   24646950.7874
     -3653.6944
  -3821021.80549  -2974287.83648  21635071.6894   21635068.8854
       520.4224
  -1572635.852 8                  23766966.861
      1909.391
 04  9 10 15 44 45.0020000  0  6G 1G11G14G22G25G20
  -3936565.00049  -3064626.28947  21824477.5414   21824475.2444
       758.5694
  -1189999.32049   -926562.24647  21826422.1114   21826418.5804
      -481.3974
   9341459.16049   7264950.10247  22662247.7604   22662244.5884
     -3498.4934
  10212831.49249   7943905.60947  24657389.1974   24657387.0534
     -3655.8674
  -3828702.02049  -2980272.41848  21633610.4944   21633607.3424
       512.0144
  -1601259.449 9                  23761520.986
      1908.240
 04  9 10 15 45  0.0020000  0  6G 1G11G14G22G25G20
  -3947861.03549  -3073428.38348  21822327.9864   21822325.9944
       753.0694
  -1182640.62549   -920828.21947  21827822.2444   21827818.8894
      -490.5804
   9393976.09449   7305872.37547  22672241.4554   22672237.8424
     -3501.1294
  10267701.96949   7986661.76247  24667830.6274   24667828.9944
     -3658.0324
  -3836256.03549  -2986158.66048  21632172.9084   21632170.1154
       503.6014
  -1629865.812 9                  23756077.432
      1907.091
 04  9 10 15 45 15.0020000  0  6G 1G11G14G22G25G20
  -3959073.75449  -3082165.55948  21820194.4324   21820192.5144
       747.5154
  -1175143.41849   -914986.25447  21829249.2364   21829245.4474
      -499.8144
   9446533.27749   7346825.99647  22682242.8384   22682240.1544
     -3503.8124
  10322605.54749   8029443.71146  24678278.8854   24678276.6704
     -3660.2394
  -3843682.76649  -2991945.72748  21630759.8694   21630756.7404
       495.1154
  -1658454.03549  -1762108.75056  23750637.8694   23750636.3344
      1905.8824
 04  9 10 15 45 30.0020000  0  6G 1G11G14G22G25G20
  -3970205.25049  -3090839.43047  21818075.8934   21818073.9394
       742.1004
  -1167509.72349   -909037.93047  21830701.9794   21830697.9364
      -508.9134
   9499128.17249   7387808.99247  22692251.2604   22692249.1114
     -3506.3264
  10377540.14849   8072249.86746  24688732.3614   24688730.0724
     -3662.3074
  -3850984.17649  -2997635.13348  21629369.9634   21629367.5614
       486.7614
  -1687026.05149  -1784372.68046  23745200.6044   23745198.0644
      1904.8014
 04  9 10 15 45 45.0020000  0  6G 1G11G14G22G25G20
  -3981253.52749  -3099448.44947  21815973.6824   21815971.7294
       736.5524
  -1159737.25449   -902981.48047  21832181.0184   21832177.0574
      -518.1654
   9551762.75049   7428822.93047  22702267.0024   22702264.9324
     -3508.9724
  10432507.80149   8115081.75046  24699192.1044   24699189.6434
     -3664.5104
  -3858158.22349  -3003225.28148  21628004.5964   21628002.5644
       478.2704
  -1715579.77349  -1806622.31246  23739767.2994   23739763.8304
      1903.5824
 04  9 10 15 46  0.0020000  0  6G 1G11G14G22G25G20
  -3992219.04749  -3107992.96948  21813886.5494   21813885.2754
       731.0354
  -1151826.50449   -896817.26247  21833685.9864   21833682.5964
      -527.3834
   9604436.36349   7469867.27747  22712290.6584   22712288.6974
     -3511.5744
  10487508.02049   8157939.00846  24709659.2834   24709655.4204
     -3666.6814
  -3865205.19549  -3008716.41848  21626664.1354   21626661.3304
       469.7984
  -1744115.45349  -1828857.96546  23734337.3774   23734333.1704
      1902.3794
 04  9 10 15 46 15.0020000  0  6G 1G11G14G22G25G20
  -4003101.10949  -3116472.47347  21811815.8384   21811813.8304
       725.4714
  -1143776.73049   -890544.72347  21835217.9634   21835214.3304
      -536.6524
   9657149.50449   7510942.42247  22722321.8144   22722319.2794
     -3514.2094
  10542541.41849   8200822.12146  24720130.8774   24720128.4904
     -3668.8934
  -3872124.09449  -3014107.77048  21625347.4004   21625344.5254
       461.2604
  -1772632.32449  -1851078.90246  23728910.2684   23728905.8854
      1901.1254
 04  9 10 15 46 30.0020000  0  6G 1G11G14G22G25G20
  -4013899.79749  -3124887.01248  21809761.1114   21809759.2134
       719.9134
  -1135588.05949   -884163.94547  21836776.3384   21836773.0104
      -545.9114
   9709901.87149   7552048.12947  22732360.3614   22732357.8654
     -3516.8244
  10597607.80549   8243730.93046  24730610.3074   24730607.8934
     -3671.0924
  -3878915.06649  -3019399.41848  21624055.3224   21624052.2054
       452.7324
  -1801130.35249  -1873285.17646  23723486.4164   23723483.2644
      1899.8684
 04  9 10 15 46 45.0020000  0  6G 1G11G14G22G25G20
  -4024615.06249  -3133236.54748  21807722.1744   21807719.9244
       714.3514
  -1127260.26649   -877674.76647  21838360.6824   21838357.4984
      -555.1864
   9762693.18849   7593184.19147  22742405.8694   22742403.8814
     -3519.4214
  10652707.26649   8286665.58246  24741095.3614   24741093.1394
     -3673.2974
  -3885577.77749  -3024591.14148  21622787.0254   21622784.2914
       444.1814
  -1829609.29349  -1895476.51246  23718068.1894   23718064.9204
      1898.5964
 04  9 10 15 47  0.0020000  0  6G 1G11G14G22G25G20
  -4035246.74249  -3141520.96948  21805699.0724   21805695.9714
       708.7794
  -1118793.33249   -871077.16447  21839971.7524   21839968.7874
      -564.4624
   9815523.55149   7634350.68047  22752459.5334   22752456.7994
     -3522.0244
  10707839.89849   8329626.03946  24751586.0254   24751583.9284
     -3675.5094
  -3892111.90649  -3029682.66448  21621543.8774   21621541.3224
       435.6094
  -1858068.80549  -1917652.80146  23712652.7994   23712650.4244
      1897.3014
 04  9 10 15 47 15.0020000  0  6G 1G11G14G22G25G20
  -4045795.34849  -3149740.64848  21803691.6504   21803689.2564
       703.2404
  -1110187.55149   -864371.37147  21841610.0254   21841606.2524
      -573.7194
   9868392.21949   7675547.01247  22762519.9554   22762517.3384
     -3524.5784
  10763005.19949   8372611.94946  24762084.2914   24762081.6314
     -3677.6874
  -3898517.98849  -3034674.41448  21620324.2834   21620322.3114
       427.0724
  -1886509.29349  -1939814.19546  23707240.5964   23707238.2604
      1896.0334
 04  9 10 15 47 30.0020000  0  6G 1G11G14G22G25G20
  -4056259.80149  -3157894.75448  21801700.2914   21801698.2914
       697.6304
  -1101441.76249   -857556.46548  21843273.8774   21843270.5374
      -583.0534
   9921300.08249   7716773.88747  22772588.3144   22772585.2644
     -3527.1914
  10818204.25449   8415624.14547  24772587.7364   24772585.6464
     -3679.9374
  -3904794.75449  -3039565.39148  21619129.9474   21619127.2914
       418.4514
  -1914929.46549  -1961959.80946  23701832.7994   23701830.6154
      1894.6784
 04  9 10 15 47 45.0020000  0  6G 1G11G14G22G25G20
  -4066640.36749  -3165983.48848  21799724.8224   21799722.4864
       692.0384
  -1092556.14549   -850632.61747  21844964.7684   21844961.4864
      -592.3744
   9974246.66449   7758030.93847  22782663.6664   22782660.4124
     -3529.7724
  10873436.69149   8458662.37946  24783098.0254   24783096.5294
     -3682.1624
  -3910942.20349  -3044355.60248  21617960.3224   21617957.5924
       409.8304
  -1943329.57849  -1984089.76246  23696428.5884   23696425.5414
      1893.3414
 04  9 10 15 48  0.0020000  0  6G 1G11G14G22G25G20
  -4076937.28949  -3174007.05948  21797765.2134   21797762.9364
       686.4614
  -1083530.89849   -843599.96547  21846682.7294   21846679.2604
      -601.6834
  10027231.45749   7799317.76247  22792746.4794   22792742.8894
     -3532.3204
  10928702.22749   8501726.37546  24793614.9554   24793612.7094
     -3684.3694
  -3916960.46149  -3049045.14548  21616814.8694   21616811.9514
       401.2174
  -1971709.75049  -2006204.14846  23691028.5644   23691023.9124
      1892.0114
 04  9 10 15 48 15.0020000  0  6G 1G11G14G22G25G20
  -4087151.41849  -3181966.10248  21795821.4324   21795819.3264
       680.9424
  -1074366.79749   -836459.12147  21848426.6434   21848423.1504
      -610.9404
  10080253.54349   7840633.65247  22802836.1114   22802833.1974
     -3534.8064
  10983999.87549   8544815.41046  24804137.4164   24804135.5184
     -3686.5104
  -3922850.27049  -3053634.59848  21615693.9794   21615691.4434
       392.6544
  -2000070.66849  -2028303.57046  23685630.9084   23685627.0374
      1890.7284
 04  9 10 15 48 30.0020000  0  6G 1G11G14G22G25G20
  -4097281.47349  -3189859.62948  21793893.9474   21793891.7714
       675.3374
  -1065062.62949   -829209.12947  21850197.2214   21850192.8264
      -620.2784
  10133313.89849   7881979.35247  22812933.3384   22812930.2604
     -3537.3574
  11039330.99249   8587930.46946  24814666.6974   24814664.8424
     -3688.7414
  -3928610.21149  -3058122.85948  21614598.0804   21614595.5684
       383.9964
  -2028410.83649  -2050386.78546  23680237.9164   23680233.6934
      1889.3454
 04  9 10 15 48 45.0020000  0  6G 1G11G14G22G25G20
  -4107327.48449  -3197687.68448  21791982.3224   21791980.0374
       669.7344
  -1055618.35549   -821849.97747  21851993.9714   21851990.9124
      -629.6184
  10186412.29349   7923354.69547  22823037.2054   22823034.8184
     -3539.8934
  11094695.37149   8631071.53946  24825202.2834   24825200.1044
     -3690.9594
  -3934240.17249  -3062509.84048  21613526.5644   21613524.1234
       375.3314
  -2056730.28948  -2072453.90646  23674847.8464   23674844.5184
      1887.9644
 04  9 10 15 49  0.0020000  0  5G 1G11G14G25G20
  -4117290.54749  -3205451.09847  21790086.3074   21790083.7564
       664.2044
  -1046034.96549   -814382.39847  21853817.9244   21853814.0614
      -638.8934
  10239547.61749   7964758.80947  22833148.6664   22833146.6784
     -3542.3554
  -3939741.01649  -3066796.20348  21612480.3074   21612477.7644
       366.7234
  -2085029.88349  -2094505.40246  23669463.1744   23669459.3464
      1886.6404
 04  9 10 15 49 15.0020000  0  5G 1G11G14G25G20
  -4127170.06249  -3213149.41048  21788206.6114   21788204.0534
       658.6344
  -1036311.92249   -806806.01247  21855667.9634   21855663.9434
      -648.2034
  10292720.11349   8006191.90247  22843267.0414   22843265.1584
     -3544.8334
  -3945112.10249  -3070981.44948  21611457.9554   21611455.0844
       358.0724
  -2113308.84049  -2116540.96946  23664082.4944   23664078.0334
      1885.2644
 04  9 10 15 49 30.0020000  0  5G 1G11G14G25G20
  -4136964.74249  -3220781.61747  21786342.3224   21786340.2174
       652.9794
  -1026447.89549   -799119.77047  21857544.9944   21857541.3694
      -657.6024
  10345930.82449   8047654.77047  22853392.6504   22853391.0374
     -3547.3814
  -3950351.98449  -3075064.46548  21610460.7444   21610458.1074
       349.3264
  -2141565.72349  -2138559.36746  23658705.2914   23658701.0764
      1883.7924
 04  9 10 15 49 45.0020000  0  5G 1G11G14G25G20
  -4146675.68749  -3228348.55947  21784494.4164   21784492.3144
       647.3964
  -1016443.77049   -791324.34847  21859448.1824   21859445.2564
      -666.9424
  10399178.55949   8089146.46147  22863525.7054   22863523.1464
     -3549.8494
  -3955461.64549  -3079046.01248  21609488.4324   21609485.9364
       340.6444
  -2169801.53949  -2160561.27046  23653331.9714   23653327.6074
      1882.3884
 04  9 10 15 50  0.0020000  0  5G 1G11G14G25G20
  -4156300.52349  -3235848.43448  21782662.6664   21782660.6434
       641.6564
  -1006297.34049   -783418.05148  21861379.0884   21861375.9674
      -676.4294
  10452465.45349   8130668.69947  22873665.8464   22873663.2794
     -3552.4604
  -3960438.62949  -3082924.17248  21608541.2214   21608538.5724
       331.7994
  -2198013.77349  -2182544.88346  23647963.9004   23647959.2754
      1880.8164
 04  9 10 15 50 15.0020000  0  5G 1G11G14G25G20
  -4165840.24649  -3243281.96548  21780847.6664   21780845.2914
       635.9824
   -996009.35549   -775401.44148  21863337.3614   21863333.9714
      -685.8664
  10505790.39849   8172220.57047  22883813.2444   22883810.1784
     -3554.9964
  -3965283.68749  -3086699.54348  21607619.6434   21607616.4864
       323.0044
  -2226203.23449  -2204510.70746  23642599.1274   23642595.1974
      1879.2974
 04  9 10 15 50 30.0020000  0  5G 1G11G14G25G20
  -4175295.08649  -3250649.36748  21779048.4474   21779046.0104
       630.3234
   -985579.92649   -767274.62948  21865321.6354   21865318.3464
      -695.2954
  10559152.89849   8213801.71547  22893967.3144   22893965.2754
     -3557.5004
  -3969996.92649  -3090372.18748  21606722.6434   21606719.5614
       314.2164
  -2254369.92649  -2226458.77346  23637239.4554   23637235.6314
      1877.7794
 04  9 10 15 50 45.0020000  0  5G 1G11G14G25G20
  -4184664.74249  -3257950.39548  21777265.3464   21777262.9204
       624.6444
   -975008.93749   -759037.49648  21867333.9084   21867329.7644
      -704.7334
  10612553.15249   8255412.27347  22904129.2364   22904126.9904
     -3560.0174
  -3974577.95349  -3093941.82048  21605851.0644   21605847.8384
       305.4024
  -2282513.39549  -2248388.75046  23631883.3074   23631879.8264
      1876.2314
 04  9 10 15 51  0.0020000  0  5G 1G11G14G25G20
  -4193949.88349  -3265185.57048  21775498.4634   21775496.0024
       619.0094
   -964296.94949   -750690.49248  21869372.1434   21869368.4754
      -714.1334
  10665990.28549   8297051.56647  22914298.5254   22914295.9324
     -3562.4764
  -3979027.16849  -3097408.73848  21605004.1974   21605000.9674
       296.6144
  -2310634.32049  -2270301.16046  23626531.9324   23626528.8504
      1874.7284
 04  9 10 15 51 15.0020000  0  5G 1G11G14G25G20
  -4203151.15649  -3272355.39148  21773747.5334   21773745.3934
       613.4184
   -953444.52349   -742234.06647  21871437.1744   21871433.5764
      -723.4954
  10719463.38349   8338718.89147  22924473.9864   22924471.6864
     -3564.8734
  -3983345.15249  -3100773.39148  21604182.4164   21604179.4324
       287.8664
  -2338733.20749  -2292196.35246  23621184.5494   23621181.8734
      1873.2594
 04  9 10 15 51 30.0020000  0  5G 1G11G14G25G20
  -4212269.58649  -3279460.65648  21772012.1824   21772010.3814
       607.8954
   -942452.55549   -733668.91447  21873528.9004   21873525.4284
      -732.7984
  10772971.37149   8380413.40247  22934656.2524   22934653.5724
     -3567.1994
  -3987532.75049  -3104036.44148  21603385.5964   21603382.8814
       279.1734
  -2366810.65649  -2314074.84446  23615841.7754   23615839.5764
      1871.8304
 04  9 10 15 51 45.0020000  0  5G 1G11G14G25G20
  -4221304.77749  -3286501.06648  21770292.9634   21770290.7794
       602.3464
   -931320.71149   -724994.75847  21875647.2524   21875643.7364
      -742.1234
  10826514.34049   8422135.15647  22944844.9944   22944841.9474
     -3569.5314
  -3991589.53549  -3107197.56648  21602613.6274   21602610.7604
       270.4524
  -2394866.32849  -2335936.43746  23610503.3224   23610500.3464
      1870.3784
 04  9 10 15 52  0.0020000  0  5G 1G11G14G25G20
  -4230256.23849  -3293476.22748  21768589.5884   21768587.3614
       596.7644
   -920048.48449   -716211.21547  21877792.2994   21877788.6044
      -751.4824
  10880092.65649   8463884.48047  22955040.5804   22955036.9434
     -3571.8884
  -3995514.85949  -3110256.25448  21601866.6664   21601863.5184
       261.6884
  -2422899.52749  -2357780.46546  23605168.3854   23605165.7954
      1868.8804
 04  9 10 15 52 15.0020000  0  5G 1G11G14G25G20
  -4239123.72349  -3300385.94948  21766902.1894   21766899.5574
       591.1664
   -908635.58649   -707318.05148  21879963.9004   21879959.9514
      -760.8604
  10933706.39149   8505661.38747  22965242.8614   22965239.6434
     -3574.2494
  -3999308.39549  -3113212.24648  21601144.2834   21601142.0614
       252.9024
  -2450909.94549  -2379606.73846  23599838.3384   23599835.9204
      1867.3614
 04  9 10 15 52 30.0020000  0  5G 1G11G14G25G20
  -4247907.75449  -3307230.64547  21765230.3614   21765227.9324
       585.6024
   -897082.44949   -698315.62148  21882162.5024   21882158.9984
      -770.2094
  10987354.91049   8547465.39847  22975452.0804   22975449.1584
     -3576.5684
  -4002970.50449  -3116065.83648  21600447.7364   21600445.0334
       244.1414
  -2478897.92649  -2401415.54746  23594511.1434   23594509.7364
      1865.8654
 04  9 10 15 52 45.0020000  0  5G 1G11G14G25G20
  -4256609.00449  -3314010.83248  21763574.6114   21763572.6464
       580.0834
   -885389.79749   -689204.47747  21884387.7294   21884384.3894
      -779.5104
  11041037.16849   8589295.69947  22985667.9084   22985664.6544
     -3578.8174
  -4006501.79349  -3118817.48048  21599775.8464   21599773.0184
       235.4194
  -2506863.90649  -2423207.19546  23589190.0724   23589188.2134
      1864.3994
 04  9 10 15 53  0.0020000  0  5G 1G11G14G25G20
  -4265226.57449  -3320725.81248  21761934.9554   21761932.4794
       574.5054
   -873556.62549   -679983.82448  21886639.2444   21886635.7714
      -788.8784
  11094753.98449   8631152.93447  22995889.4944   22995886.5414
     -3581.1214
  -4009901.15249  -3121466.32848  21599128.9004   21599126.2054
       226.6244
  -2534806.85249  -2444980.91446  23583873.0024   23583870.7254
      1862.8634
 04  9 10 15 53 15.0020000  0  5G 1G11G14G25G20
  -4273761.14549  -3327376.12148  21760310.9004   21760308.9514
       568.9714
   -861583.67649   -670654.26648  21888917.7914   21888914.7954
      -798.1974
  11148504.50049   8673036.42647  23006117.7994   23006114.2484
     -3583.3684
  -4013169.30149  -3124012.93048  21598506.9714   21598503.9984
       217.8774
  -2562727.21949  -2466737.06646  23578560.2294   23578557.3934
      1861.3584
 04  9 10 15 53 30.0020000  0  5G 1G11G14G25G20
  -4282212.81249  -3333961.82048  21758702.5414   21758700.0024
       563.4454
   -849470.92649   -661215.75848  21891222.3934   21891219.0064
      -807.5174
  11202288.45349   8714945.97347  23016353.0574   23016349.2794
     -3585.5974
  -4016305.98049  -3126457.08248  21597909.9634   21597907.3614
       209.1124
  -2590625.05549  -2488475.63746  23573251.1194   23573248.0064
      1859.8564
 04  9 10 15 53 45.0020000  0  5G 1G11G14G25G20
  -4290580.78149  -3340482.31648  21757110.1434   21757107.6464
       557.8654
   -837217.55149   -651667.67648  21893554.4554   21893550.8034
      -816.8924
  11256106.37949   8756881.99247  23026594.2214   23026590.8224
     -3587.8624
  -4019310.25449  -3128798.07048  21597338.5884   21597335.4324
       200.2854
  -2618499.37149  -2510195.89546  23567946.8934   23567943.9554
      1858.2884
 04  9 10 15 54  0.0020000  0  5G 1G11G14G25G20
  -4298865.81249  -3346938.16847  21755533.4944   21755530.9674
       552.3354
   -824824.17649   -642010.50047  21895912.7524   21895909.7014
      -826.2254
  11309957.43049   8798843.82847  23036841.4244   23036838.9944
     -3590.0704
  -4022182.79349  -3131036.41048  21596791.6894   21596788.9364
       191.5034
  -2646350.79349  -2531898.30946  23562646.6274   23562643.7134
      1856.7614
 04  9 10 15 54 15.0020000  0  5G 1G11G14G25G20
  -4307067.04349  -3353328.73047  21753972.6114   21753969.8264
       546.7494
   -812289.84849   -632243.49648  21898297.7684   21898295.0024
      -835.6224
  11363842.33249   8840832.03147  23047095.7834   23047092.7604
     -3592.3274
  -4024922.53549  -3133171.26248  21596270.4864   21596267.4514
       182.6494
  -2674178.16849  -2553581.98047  23557351.7524   23557348.7294
      1855.1584
 04  9 10 15 54 30.0020000  0  5G 1G11G14G25G20
  -4315184.53949  -3359654.05147  21752428.0644   21752425.7134
       541.1664
   -799614.75849   -622366.80548  21900709.8774   21900707.2644
      -845.0064
  11417760.85249   8882846.43447  23057355.6744   23057353.5374
     -3594.5684
  -4027529.53149  -3135202.68748  21595774.4714   21595771.8344
       173.8004
  -2701981.50449  -2575246.90247  23552060.8304   23552058.0764
      1853.5564
 04  9 10 15 54 45.0020000  0  5G 1G11G14G25G20
  -4323219.39149  -3365914.96147  21750898.7754   21750896.7214
       535.6574
   -786799.98449   -612381.27048  21903148.3384   21903145.3114
      -854.3184
  11471711.69549   8924886.02047  23067622.3304   23067619.8074
     -3596.7234
  -4030004.81249  -3137131.47748  21595303.1274   21595300.6664
       165.0194
  -2729761.64849  -2596893.75847  23546774.6044   23546771.4674
      1852.0104
 04  9 10 15 55  0.0020000  0  5G 1G11G14G25G20
  -4331170.57449  -3372110.67647  21749385.8144   21749383.8184
       530.0794
   -773844.59049   -602286.17248  21905613.8694   21905610.7174
      -863.6934
  11525695.75049   8966951.49647  23077894.9864   23077893.1744
     -3598.9374
  -4032347.25849  -3138956.75048  21594857.3934   21594854.9364
       156.1634
  -2757517.40649  -2618521.60947  23541492.9474   23541489.4944
      1850.3844
 04  9 10 15 55 15.0020000  0  5G 1G11G14G25G20
  -4339038.88749  -3378241.81648  21747888.3694   21747886.6044
       524.5544
   -760749.28549   -592082.03548  21908105.9084   21908102.4514
      -873.0204
  11579711.86349   9009041.95347  23088174.3614   23088172.3614
     -3601.0744
  -4034557.62149  -3140679.10548  21594436.9554   21594434.3544
       147.3584
  -2785249.49249  -2640131.00447  23536215.5804   23536212.6114
      1848.8064
 04  9 10 15 55 30.0020000  0  6G 1G11G14G23G25G20
  -4346824.66849  -3384308.65248  21746407.1974   21746404.8614
       519.0524
   -747514.25449   -581769.03948  21910624.1274   21910620.8504
      -882.3354
  11633759.66849   9051157.09447  23098459.1744   23098456.6704
     -3603.1874
    -78088.33659    -54602.01657  24829622.2134   24829618.7054

  -4036635.90649  -3142298.55148  21594041.3304   21594038.6394
       138.5524
  -2812958.16449  -2661722.16047  23530942.8774   23530940.0294
      1847.2454
 04  9 10 15 55 45.0020000  0  6G 1G11G14G23G25G20
  -4354527.44949  -3390310.80948  21744941.1894   21744939.0294
       513.5194
   -734139.07849   -571346.83248  21913169.7054   21913165.9984
      -891.6784
  11687839.40649   9093297.10247  23108750.1354   23108747.7134
     -3605.3164
   -109067.94949    -78741.96147  24823726.2444   24823723.3934
      2065.3084
  -4038581.61749  -3143814.67648  21593671.4474   21593668.4124
       129.7144
  -2840642.67649  -2683294.50447  23525674.7054   23525671.6664
      1845.6344
 04  9 10 15 56  0.0020000  0  6G 1G11G14G23G25G20
  -4362149.68749  -3396250.21148  21743490.8144   21743488.8774
       508.1494
   -720626.07449   -560817.23448  21915741.2604   21915737.6744
      -900.8674
  11741948.55149   9135460.04747  23119046.8144   23119043.8694
     -3607.2764
   -140013.93749   -102855.68447  24817837.7524   24817834.2564
      2063.0664
  -4040397.09849  -3145229.33248  21593325.9244   21593323.3344
       121.0324
  -2868305.27349  -2704849.74647  23520411.1584   23520407.4364
      1844.1734
 04  9 10 15 56 15.0020000  0  6G 1G11G14G23G25G20
  -4369690.73849  -3402126.34848  21742055.7214   21742053.4554
       502.7374
   -706974.64549   -550179.76248  21918339.1504   21918335.7604
      -910.0954
  11796087.60949   9177646.29747  23129349.1274   23129346.2254
     -3609.2714
   -170925.32849   -126942.45347  24811955.5334   24811951.9514
      2060.7594
  -4042081.40649  -3146541.76648  21593005.4004   21593002.4754
       112.2874
  -2895945.07049  -2726387.26247  23515151.4944   23515148.1354
      1842.6534
 04  9 10 15 56 30.0020000  0  6G 1G11G14G23G25G20
  -4377150.43749  -3407939.09047  21740636.5184   21740634.0064
       497.3134
   -693184.61349   -539434.29747  21920962.7054   21920959.6864
      -919.3354
  11850256.53149   9219855.82047  23139657.3384   23139654.6784
     -3611.2614
   -201802.11749   -151002.27747  24806079.9164   24806075.9824
      2058.4534
  -4043634.44149  -3147751.91848  21592709.9634   21592706.7714
       103.5364
  -2923561.84449  -2747906.80147  23509896.1194   23509892.5374
      1841.1184
 04  9 10 15 56 45.0020000  0  6G 1G11G14G23G25G20
  -4384528.74649  -3413688.41048  21739232.5184   21739229.7564
       491.8874
   -679256.08249   -528580.91047  21923613.5254   21923609.6354
      -928.5694
  11904455.03949   9262088.38747  23149970.9084   23149968.5644
     -3613.2344
   -232644.17249   -175035.03547  24800210.6744   24800207.3964
      2056.1374
  -4045056.09849  -3148859.69948  21592438.9474   21592436.3654
        94.7774
  -2951155.35549  -2769408.23047  23504644.9634   23504641.1354
      1839.5674
 04  9 10 15 57  0.0020000  0  6G 1G11G14G23G25G20
  -4391825.16449  -3419373.93448  21737844.2994   21737841.2054
       486.4284
   -665188.27749   -517619.00848  21926290.7834   21926286.7134
      -937.8544
  11958683.66049   9304344.41047  23160290.0884   23160287.8694
     -3615.2414
   -263450.78949   -199040.16447  24794347.9944   24794345.1394
      2053.7744
  -4046345.62149  -3149864.50848  21592193.5884   21592190.8224
        85.9684
  -2978724.92249  -2790891.01247  23499398.4084   23499394.2714
      1837.9714
 04  9 10 15 57 15.0020000  0  6G 1G11G14G23G25G20
  -4399040.14549  -3424995.99248  21736471.6044   21736468.3144
       480.9994
   -650981.74249   -506548.98848  21928993.7834   21928990.5104
      -947.1024
  12012941.76249   9346623.42647  23170615.2754   23170612.7324
     -3617.2074
   -294222.35249   -223018.02047  24788491.9944   24788490.2994
      2051.4384
  -4047503.35949  -3150766.62548  21591973.6504   21591970.5644
        77.1834
  -3006270.85949  -2812355.36347  23494155.9164   23494152.1974
      1836.3964
 04  9 10 15 57 30.0020000  0  6G 1G11G14G23G25G20
  -4406171.48849  -3430552.87948  21735114.1114   21735111.1194
       475.4234
   -636634.25849   -495369.13748  21931724.3224   21931721.1004
      -956.4994
  12067231.34049   9388926.98047  23180945.7364   23180944.0334
     -3619.3054
   -324956.58649   -246966.77747  24782643.5254   24782641.4124
      2048.9494
  -4048527.12149  -3151564.35548  21591778.8074   21591776.0144
        68.2514
  -3033790.70749  -2833799.41847  23488919.6664   23488916.0214
      1834.6574
 04  9 10 15 57 45.0020000  0  6G 1G11G14G23G25G20
  -4413219.00849  -3436044.44148  21733773.1114   21733770.2564
       469.8354
   -622145.66849   -484079.34848  21934481.7444   21934478.1974
      -965.9064
  12121552.35549   9431255.02047  23191282.8304   23191281.0104
     -3621.4014
   -355653.20749   -270886.23447  24776803.6274   24776800.2484
      2046.4414
  -4049416.57049  -3152257.43448  21591609.3854   21591606.7874
        59.2974
  -3061284.21949  -2855222.92647  23483688.1504   23483684.0144
      1832.9014
 04  9 10 15 58  0.0020000  0  6G 1G11G14G23G25G20
  -4420184.10549  -3441471.77048  21732447.1974   21732445.5414
       464.3404
   -607517.29349   -472680.62548  21937265.4394   21937261.7054
      -975.2254
  12175903.27749   9473606.34847  23201625.6044   23201623.5614
     -3623.3954
   -386313.48449   -294777.35247  24770969.1504   24770965.8144
      2044.0184
  -4050172.88349  -3152846.75848  21591465.3304   21591462.3034
        50.4214
  -3088752.50049  -2876626.79347  23478461.1274   23478456.6824
      1831.2194
 04  9 10 15 58 15.0020000  0  6G 1G11G14G23G25G20
  -4427066.76249  -3446834.86748  21731137.8384   21731135.4324
       458.8444
   -592748.97349   -461172.85947  21940075.6744   21940071.7914
      -984.5554
  12230284.07049   9515980.95747  23211974.1434   23211971.3774
     -3625.3864
   -416937.23049   -318640.00047  24765141.7214   24765137.9754
      2041.5834
  -4050796.02749  -3153332.30548  21591346.6274   21591343.7254
        41.5434
  -3116195.36749  -2898010.81647  23473238.6274   23473234.2954
      1829.5244
 04  9 10 15 58 30.0020000  0  6G 1G11G14G23G25G20
  -4433866.48049  -3452133.33248  21729843.6354   21729841.6934
       453.3154
   -577840.42649   -449555.80548  21942912.7294   21942908.8894
      -993.9034
  12284694.96549   9558379.03147  23222328.5184   23222325.7644
     -3627.3934
   -447523.86349   -342473.71147  24759320.9794   24759317.2134
      2039.1094
  -4051285.36349  -3153713.60948  21591253.8614   21591250.6504
        32.6224
  -3143612.22749  -2919374.60547  23468021.1974   23468017.3424
      1827.7914
 04  9 10 15 58 45.0020000  0  6G 1G11G14G23G25G20
  -4440582.49249  -3457366.57448  21728566.0024   21728563.8034
       447.7344
   -562790.78549   -437828.82448  21945776.3304   21945772.9434
     -1003.3094
  12339136.51649   9600801.00447  23232687.9554   23232685.3694
     -3629.4374
   -478072.56649   -366277.87147  24753506.7914   24753503.8034
      2036.5804
  -4051640.09449  -3153990.01248  21591186.2054   21591183.6114
        23.6494
  -3171002.11749  -2940717.38747  23462808.6664   23462805.4594
      1825.9934
 04  9 10 15 59  0.0020000  0  6G 1G11G14G23G25G20
  -4447214.62949  -3462534.47748  21727303.8854   21727301.2484
       442.1424
   -547599.84449   -425991.74648  21948667.2364   21948663.7644
     -1012.7294
  12393608.83249   9643246.93447  23243054.0104   23243051.5884
     -3631.4884
   -508583.17649   -390052.34047  24747700.7604   24747697.7324
      2034.0414
  -4051859.85249  -3154161.24648  21591144.2214   21591141.6004
        14.6514
  -3198364.76649  -2962038.91847  23457601.4714   23457598.5104
      1824.1774
 04  9 10 15 59 15.0020000  0  6G 1G11G14G23G25G20
  -4453763.51249  -3467637.49648  21726057.6044   21726054.9324
       436.5924
   -532268.13349   -414044.97348  21951584.9004   21951581.4864
     -1022.1144
  12448111.16049   9685716.25447  23253425.1274   23253423.0724
     -3633.4894
   -539056.12149   -413797.50447  24741902.4634   24741898.9634
      2031.5304
  -4051945.18449  -3154227.73448  21591128.3224   21591125.5064
         5.6894
  -3225700.51649  -2983339.48847  23452399.7524   23452397.2954
      1822.3834
 04  9 10 15 59 30.0020000  0  6G 1G11G14G23G25G20
  -4460229.15249  -3472675.66048  21724827.4714   21724824.0104
       431.0434
   -516795.89549   -401988.69548  21954529.3464   21954525.9714
     -1031.4834
  12502643.27749   9728208.80947  23263802.2754   23263799.5724
     -3635.4744
   -569491.29749   -437513.21547  24736110.3304   24736107.2484
      2029.0124
  -4051896.02349  -3154189.41848  21591137.3544   21591134.5334
        -3.2774
  -3253009.07449  -3004618.88747  23447203.4084   23447200.5534
      1820.5714
 04  9 10 15 59 45.0020000  0  6G 1G11G14G23G25G20
  -4466610.90649  -3477648.45748  21723612.6584   21723610.1784
       425.4504
   -501182.37949   -389822.34048  21957500.2364   21957497.0064
     -1040.9014
  12557205.68849   9770724.93047  23274185.2294   23274182.8034
     -3637.4944
   -599887.98449   -461198.90647  24730326.8224   24730323.1274
      2026.4464
  -4051711.67249  -3154045.77048  21591172.3774   21591169.2604
       -12.2904
  -3280289.83249  -3025876.60547  23442012.0644   23442009.7644
      1818.7174
 04  9 10 16  0  0.0020000  0  6G 1G11G14G23G25G20
  -4472908.70349  -3482555.82048  21722414.0574   21722412.5534
       419.8534
   -485427.34849   -377545.70748  21960498.1504   21960494.8184
     -1050.3354
  12611798.37949   9813264.65247  23284573.9944   23284570.9124
     -3639.5134
   -630246.01649   -484854.46947  24724549.1274   24724546.6074
      2023.8694
  -4051391.84049  -3153796.53148  21591233.6274   21591230.0294
       -21.3224
  -3307542.37149  -3047112.34847  23436826.4714   23436823.5414
      1816.8364
 04  9 10 16  0 15.0020000  0  6G 1G11G14G23G25G20
  -4479122.58649  -3487397.79348  21721231.5024   21721230.1074
       414.2594
   -469530.84449   -365158.83647  21963522.8464   21963519.6464
     -1059.7674
  12666421.13349   9855827.80947  23294968.1744   23294965.8574
     -3641.5174
   -660565.25449   -508479.81246  24718780.1434   24718776.5144
      2021.2834
  -4050936.39849  -3153441.64148  21591320.0254   21591316.9394
       -30.3634
  -3334766.51649  -3068325.97747  23431645.4084   23431642.6504
      1814.9434
 04  9 10 16  0 30.0020000  0  6G 1G11G14G23G25G20
  -4485252.69149  -3492174.48848  21720065.1274   21720063.5414
       408.6744
   -453493.01249   -352661.85248  21966574.8774   21966572.0614
     -1069.1894
  12721073.60549   9898414.12547  23305368.4554   23305366.3424
     -3643.4984
   -690845.71149   -532074.96946  24713016.6354   24713014.2294
      2018.6974
  -4050345.47749  -3152981.18048  21591432.4794   21591429.4714
       -39.3954
  -3361962.33249  -3089517.51247  23426470.6744   23426468.1194
      1813.0544
 04  9 10 16  0 45.0020000  0  6G 1G11G14G23G25G20
  -4491300.08649  -3496886.73848  21718914.4474   21718912.6354
       403.1604
   -437315.11349   -340055.72348  21969653.6664   21969650.4754
     -1078.5274
  12775754.65249   9941022.69947  23315773.4864   23315771.6114
     -3645.4034
   -721088.36749   -555640.66847  24707262.4554   24707259.8654
      2016.1774
  -4049620.04349  -3152415.90248  21591570.4164   21591567.5374
       -48.3624
  -3389130.53949  -3110687.54747  23421300.7834   23421298.0294
      1811.2144
 04  9 10 16  1  0.0020000  0  6G 1G11G14G23G25G20
  -4497263.18049  -3501533.30148  21717779.3614   21717777.7484
       397.5404
   -420995.44149   -327339.10947  21972759.2294   21972756.1584
     -1087.9784
  12830465.65649   9983654.62947  23326185.5104   23326182.4984
     -3647.4004
   -751291.57449   -579175.62147  24701514.8074   24701512.3344
      2013.5474
  -4048758.45749  -3151744.52348  21591734.8694   21591731.3464
       -57.4394
  -3416269.52049  -3131834.80547  23416136.6664   23416133.6194
      1809.2654
 04  9 10 16  1 15.0020000  0  6G 1G11G14G23G25G20
  -4503144.42649  -3506116.07848  21716660.5104   21716658.2604
       392.0834
   -404536.41849   -314513.92247  21975891.0254   21975887.7324
     -1097.2684
  12885204.05549  10026307.90647  23336601.3694   23336598.7714
     -3649.2274
   -781457.73449   -602681.72347  24695775.4164   24695771.3224
      2011.0774
  -4047762.96149  -3150968.81248  21591924.0884   21591921.3504
       -66.3664
  -3443381.55549  -3152961.05547  23410976.7684   23410974.3424
      1807.4694
 04  9 10 16  1 30.0030000  0  6G 1G11G14G23G25G20
  -4508942.05549  -3510633.70748  21715557.1324   21715554.6444
       386.5094
   -387934.94949   -301577.73847  21979050.3664   21979047.0894
     -1106.7654
  12939975.44149  10068986.87547  23347024.2654   23347021.7964
     -3651.4264
   -811586.59449   -626158.72747  24690041.5934   24690037.8004
      2008.5914
  -4046631.27749  -3150086.96548  21592138.8824   21592136.2574
       -75.4464
  -3470465.99649  -3174065.82047  23405823.1014   23405819.6014
      1805.6294
 04  9 10 16  1 45.0030000  0  6G 1G11G14G23G25G20
  -4514655.90249  -3515086.04748  21714469.9294   21714467.0624
       380.9234
   -371193.74249   -288532.65647  21982236.1634   21982233.0194
     -1116.0804
  12994771.84049  10111685.34047  23357451.6164   23357449.1634
     -3653.0934
   -841674.63749   -649603.96547  24684316.1634   24684311.9794
      2005.8704
  -4045364.13349  -3149099.58648  21592380.3354   21592377.5544
       -84.4764
  -3497519.72749  -3195146.64147  23400674.4994   23400672.2614
      1803.5824
 04  9 10 16  2  0.0030000  0  6G 1G11G14G23G25G20
  -4520286.35949  -3519473.43048  21713398.3664   21713396.1364
       375.3644
   -354311.50849   -275377.70347  21985448.9294   21985445.4524
     -1125.4824
  13049596.67649  10154405.95347  23367884.0154   23367882.1984
     -3654.9894
   -871723.81649   -673018.88747  24678597.8194   24678593.6874
      2003.2794
  -4043961.46149  -3148006.58648  21592647.5074   21592644.7454
       -93.5114
  -3524544.36349  -3216204.78947  23395532.6324   23395529.0774
      1801.6424
 04  9 10 16  2 15.0030000  0  6G 1G11G14G23G25G20
  -4525832.63749  -3523795.19948  21712343.0224   21712340.8944
       369.7524
   -337287.48849   -262112.26247  21988688.4214   21988685.1404
     -1134.9354
  13104450.53149  10197149.16847  23378322.4524   23378319.9794
     -3656.9244
   -901733.14849   -696402.77746  24672886.6944   24672883.3234
      2000.6224
  -4042422.28149  -3146807.22348  21592940.4134   21592937.6984
      -102.6124
  -3551538.94549  -3237239.54747  23390395.3514   23390392.4564
      1799.6394
 04  9 10 16  2 30.0030000  0  6G 1G11G14G23G25G20
  -4531295.13349  -3528051.69548  21711303.7264   21711301.9954
       364.1664
   -320122.23049   -248736.75048  21991954.6244   21991951.2024
     -1144.3514
  13159332.99249  10239914.68047  23388766.3664   23388763.7224
     -3658.8314
   -931702.89149   -719755.81247  24667183.5304   24667179.9914
      1997.9834
  -4040746.68749  -3145501.55948  21593258.9134   21593256.4294
      -111.7064
  -3578503.57449  -3258250.96147  23385264.5304   23385261.2334
      1797.6424
 04  9 10 16  2 45.0030000  0  6G 1G11G14G23G25G20
  -4536675.52049  -3532244.19148  21710279.8354   21710277.9134
       358.6924
   -302817.37149   -235252.46147  21995247.7724   21995244.5814
     -1153.6574
  13214242.30149  10282701.12547  23399215.1794   23399212.9764
     -3660.6214
   -961634.48449   -743079.11347  24661487.9134   24661484.1634
      1995.4404
  -4038936.31249  -3144090.86748  21593603.8744   21593600.9054
      -120.6924
  -3605439.74249  -3279240.17647  23380138.8744   23380135.8664
      1795.7454
 04  9 10 16  3  0.0030000  0  6G 1G11G14G23G25G20
  -4541972.84449  -3536371.97348  21709271.7334   21709269.5694
       353.1554
   -285371.81249   -221658.52047  21998568.0854   21998564.7334
     -1163.0374
  13269179.26249  10325509.13747  23409669.5624   23409667.1634
     -3662.4644
   -991527.04749   -766371.99647  24655799.8974   24655795.6474
      1992.8384
  -4036990.25049  -3142574.44948  21593973.9994   21593971.0424
      -129.7384
  -3632346.27349  -3300206.29747  23375018.6084   23375015.4954
      1793.7694
 04  9 10 16  3 15.0030000  0  6G 1G11G14G23G25G20
  -4547187.73449  -3540435.51248  21708279.3584   21708276.8004
       347.6594
   -267786.40249   -207955.61748  22001914.0544   22001910.6244
     -1172.3614
  13324143.02749  10368338.01647  23420128.6634   23420126.5344
     -3664.2514
  -1021381.17649   -789634.94547  24650119.4444   24650115.2614
      1990.2754
  -4034908.98449  -3140952.68448  21594369.9684   21594366.9214
      -138.7514
  -3659223.73049  -3321149.76647  23369903.7724   23369901.0584
      1791.8304
 04  9 10 16  3 30.0030000  0  6G 1G11G14G23G25G20
  -4552318.62949  -3544433.60948  21707302.8434   21707300.6044
       342.0604
   -250059.52049   -194142.46548  22005287.5074   22005283.4604
     -1181.7924
  13379134.97749  10411188.84047  23430593.3904   23430592.1364
     -3666.1304
  -1051195.18049   -812866.62547  24644446.1474   24644441.3154
      1987.6004
  -4032690.84049  -3139224.25448  21594791.8354   21594788.7024
      -147.8764
  -3686070.21949  -3342069.09847  23364794.6474   23364792.0774
      1789.7664
 04  9 10 16  3 45.0030000  0  6G 1G11G14G23G25G20
  -4557367.32849  -3548367.65648  21706342.5154   21706339.5934
       336.5804
   -232192.90649   -180220.44948  22008687.2104   22008683.7534
     -1191.1084
  13434153.25049  10454060.18447  23441062.8044   23441061.7264
     -3667.8854
  -1080970.69149   -836068.32447  24638779.8744   24638775.2534
      1985.0344
  -4030337.46149  -3137390.44948  21595239.6944   21595236.4014
      -156.8924
  -3712887.35949  -3362965.56647  23359691.5774   23359688.7614
      1787.8094
 04  9 10 16  4  0.0030000  0  6G 1G11G14G23G25G20
  -4562332.52749  -3552236.64148  21705397.3584   21705394.9524
       331.0134
   -214185.34849   -166188.59447  22012114.2264   22012110.0304
     -1200.5044
  13489199.00449  10496952.93447  23451538.2724   23451536.2144
     -3669.7174
  -1110706.20749   -859238.86347  24633120.9054   24633117.0344
      1982.3684
  -4027847.52749  -3135450.23448  21595713.5154   21595710.3274
      -165.9964
  -3739673.61749  -3383837.96547  23354594.5074   23354591.5584
      1785.7514
 04  9 10 16  4 15.0030000  0  6G 1G11G14G23G25G20
  -4567214.95349  -3556041.12548  21704468.1474   21704465.7184
       325.4954
   -196037.41049   -152047.35947  22015567.3974   22015563.2614
     -1209.8624
  13544271.40649  10539866.47747  23462018.0154   23462015.9644
     -3671.4934
  -1140402.51249   -882378.84447  24627470.2494   24627465.2294
      1979.7544
  -4025221.82049  -3133404.21948  21596212.8664   21596210.0814
      -175.0474
  -3766429.60549  -3404686.79347  23349503.1944   23349499.8394
      1783.7334
 04  9 10 16  4 30.0030000  0  6G 1G11G14G23G25G20
  -4572013.64549  -3559780.35948  21703555.2964   21703552.6404
       319.9134
   -177748.25849   -137796.08647  22019047.9604   22019043.7144
     -1219.2774
  13599371.20349  10582801.32447  23472502.9684   23472500.3084
     -3673.3204
  -1170058.48849   -905487.40647  24621826.3514   24621822.0584
      1977.0654
  -4022459.06649  -3131251.42648  21596738.9764   21596735.8944
      -184.1844
  -3793154.20349  -3425511.15247  23344417.2024   23344414.1164
      1781.6404
 04  9 10 16  4 45.0030000  0  6G 1G11G14G23G25G20
  -4576728.91049  -3563454.58248  21702657.7184   21702655.1044
       314.3514
   -159318.23849   -123435.03547  22022554.6014   22022551.2374
     -1228.6684
  13654498.06349  10625757.28147  23482993.8044   23482990.8044
     -3675.1244
  -1199674.25449   -928564.60947  24616191.5774   24616186.4834
      1974.3844
  -4019559.56649  -3128992.07448  21597290.6014   21597287.6874
      -193.3004
  -3819847.37549  -3446311.03147  23339338.6714   23339335.2884
      1779.5454
 04  9 10 16  5  0.0030000  0  6G 1G11G14G23G25G20
  -4581362.00849  -3567064.79348  21701776.1404   21701773.3274
       308.8734
   -140748.56249   -108965.16848  22026088.5074   22026085.4404
     -1237.9784
  13709650.44149  10668733.14147  23493488.5154   23493485.8234
     -3676.8254
  -1229251.02049   -951611.44947  24610563.0384   24610557.9604
      1971.7844
  -4016524.45749  -3126627.04348  21597868.1634   21597865.4334
      -202.3414
  -3846510.17249  -3467087.22347  23334263.6794   23334261.1944
      1777.5204
 04  9 10 16  5 15.0030000  0  6G 1G11G14G23G25G20
  -4585911.89849  -3570610.15248  21700910.6014   21700907.7694
       303.3264
   -122038.16049    -94385.63748  22029648.7104   22029645.9564
     -1247.3604
  13764829.52349  10711729.79347  23503988.7264   23503986.4914
     -3678.6054
  -1258787.68049   -974626.98447  24604942.6474   24604936.9564
      1969.1114
  -4013352.69949  -3124155.53548  21598471.7964   21598468.6444
      -211.4514
  -3873141.42249  -3487838.82847  23329196.0854   23329193.6124
      1775.4174
 04  9 10 16  5 30.0030000  0  6G 1G11G14G23G25G20
  -4590378.52049  -3574090.63748  21700060.0774   21700057.7064
       297.7754
   -103187.19149    -79696.57448  22033236.1404   22033233.4524
     -1256.7314
  13820034.96549  10754746.97747  23514494.1874   23514492.0344
     -3680.3634
  -1288284.15249   -997611.25447  24599328.6474   24599323.6554
      1966.4324
  -4010044.17649  -3121577.47348  21599101.3824   21599098.6474
      -220.5684
  -3899740.91049  -3508565.69147  23324134.5224   23324131.6404
      1773.2994
 04  9 10 16  5 45.0030000  0  6G 1G11G14G23G25G20
  -4594762.72349  -3577506.89848  21699225.9294   21699223.5894
       292.2804
    -84196.37149    -64898.53947  22036850.1474   22036846.9644
     -1266.0554
  13875265.84849  10797784.00847  23525004.1164   23525002.2764
     -3682.0594
  -1317741.06249  -1020564.71146  24593723.1634   24593717.8044
      1963.7944
  -4006599.75049  -3118893.50048  21599756.6794   21599753.8314
      -229.6284
  -3926309.21549  -3529268.25447  23319078.6944   23319075.5584
      1771.2204
 04  9 10 16  6  0.0030000  0  6G 1G11G14G23G25G20
  -4599064.83649  -3580859.18448  21698407.1794   21698405.0734
       286.8084
    -65065.92249    -49991.70747  22040490.5624   22040487.4724
     -1275.3634
  13930521.73849  10840840.53147  23535518.7414   23535517.2964
     -3683.7264
  -1347158.53949  -1043487.41046  24588124.9444   24588119.6014
      1961.1654
  -4003019.44949  -3116103.65248  21600438.2334   21600435.2764
      -238.6874
  -3952846.41849  -3549946.57847  23314028.6084   23314025.5034
      1769.1474
 04  9 10 16  6 15.0030000  0  6G 1G11G14G23G25G20
  -4603284.54749  -3584147.27048  21697604.0074   21697602.1044
       281.3144
    -45795.61749    -34975.89848  22044157.5384   22044154.3004
     -1284.6874
  13985802.82449  10883916.66447  23546038.6404   23546036.3544
     -3685.4064
  -1376536.31649  -1066379.18747  24582534.4914   24582530.1474
      1958.5184
  -3999302.92249  -3113207.64148  21601145.4604   21601142.3624
      -247.7684
  -3979352.07849  -3570600.32847  23308985.1634   23308981.9914
      1767.0444
 04  9 10 16  6 30.0030000  0  6G 1G11G14G23G25G20
  -4607421.83249  -3587371.12948  21696816.7804   21696814.8354
       275.8194
    -26385.58249    -19851.20747  22047851.1714   22047847.8474
     -1294.0024
  14041109.01249  10927012.35547  23556562.9994   23556560.6444
     -3687.0794
  -1405874.19149  -1089239.85947  24576951.9914   24576947.2924
      1955.8584
  -3995450.12549  -3110205.46548  21601878.8044   21601875.6084
      -256.8534
  -4005825.94949  -3591229.32847  23303946.9524   23303943.7064
      1764.9254
 04  9 10 16  6 45.0030000  0  6G 1G11G14G23G25G20
  -4611475.71949  -3590530.00048  21696045.2494   21696043.2454
       270.2594
     -6834.90649     -4616.92647  22051571.1324   22051568.5224
     -1303.3784
  14096441.06649  10970128.19947  23567092.9684   23567089.7924
     -3688.8044
  -1435171.05149  -1112068.60546  24571376.8354   24571372.8434
      1953.1244
  -3991459.90649  -3107096.20748  21602637.7414   21602634.8544
      -266.0154
  -4032266.88349  -3611832.64547  23298916.0544   23298912.9954
      1762.7294
 04  9 10 16  7  0.0030000  0  6G 1G11G14G23G25G20
  -4615445.68049  -3593623.48048  21695290.1084   21695287.8394
       264.6644
     12857.05549     10727.44148  22055318.7184   22055315.7494
     -1312.7974
  14151799.41049  11013264.54747  23577626.9834   23577623.8944
     -3690.5564
  -1464426.39149  -1134864.93747  24565809.4054   24565806.5774
      1950.3564
  -3987331.72349  -3103879.43448  21603423.7024   21603420.5544
      -275.2124
  -4058674.12949  -3632409.71147  23293890.9374   23293887.9374
      1760.4834
 04  9 10 16  7 15.0030000  0  6G 1G11G14G23G25G20
  -4619332.90649  -3596652.48848  21694550.3664   21694548.1634
       259.1484
     32689.11749     26180.98448  22059092.5224   22059089.5154
     -1322.1374
  14207182.78149  11056420.37547  23588166.5384   23588163.2024
     -3692.2254
  -1493641.19949  -1157629.71547  24560250.2184   24560246.7964
      1947.6544
  -3983066.77049  -3100556.09448  21604235.1474   21604232.3664
      -284.3304
  -4085048.56249  -3652961.22747  23288871.9214   23288869.1284
      1758.2964
 04  9 10 16  7 30.0030000  0  6G 1G11G14G23G25G20
  -4623137.07049  -3599616.77048  21693826.2964   21693824.0384
       253.6114
     52661.55149     41743.89547  22062893.1554   22062889.7144
     -1331.4964
  14262591.23849  11099595.75847  23598710.2574   23598707.6364
     -3693.8974
  -1522815.13349  -1180362.65647  24554699.4214   24554695.7414
      1944.9294
  -3978664.62149  -3097125.84848  21605073.0624   21605070.1754
      -293.4774
  -4111389.75449  -3673486.82447  23283859.3044   23283856.6204
      1756.0794
 04  9 10 16  7 45.0030000  0  6G 1G11G14G23G25G20
  -4626858.90649  -3602516.89548  21693118.1794   21693115.5224
       248.1224
     72773.54749     57415.55547  22066720.8434   22066716.9404
     -1340.8004
  14318024.12549  11142790.18047  23609258.5464   23609256.5224
     -3695.5264
  -1551948.80549  -1203064.19147  24549155.3744   24549151.3474
      1942.2454
  -3974125.89149  -3093589.16848  21605936.5854   21605933.7184
      -302.5824
  -4137698.20349  -3693986.92247  23278852.8584   23278849.9444
      1753.8974
 04  9 10 16  8  0.0030000  0  6G 1G11G14G23G25G20
  -4630497.99649  -3605352.55948  21692425.6164   21692423.3544
       242.6064
     93025.55949     73196.31348  22070574.5464   22070571.0464
     -1350.1344
  14373481.66449  11186003.80147  23619811.4134   23619809.0264
     -3697.1694
  -1581041.58249  -1225733.88347  24543619.0224   24543614.3124
      1939.5184
  -3969449.98449  -3089945.61348  21606826.3824   21606823.6364
      -311.7274
  -4163973.20749  -3714460.94147  23273852.9834   23273850.4524
      1751.6674
 04  9 10 16  8 15.0030000  0  6G 1G11G14G23G25G20
  -4634054.34849  -3608123.73448  21691748.7574   21691746.3394
       237.0904
    113417.47349     89086.08648  22074454.6474   22074451.8394
     -1359.4614
  14428963.68849  11229236.51647  23630369.4214   23630366.9794
     -3698.8024
  -1610093.45349  -1248371.69946  24538090.5934   24538084.6794
      1936.7914
  -3964636.95349  -3086195.19148  21607742.1634   21607739.6204
      -320.8694
  -4190214.60949  -3734908.78147  23268859.0544   23268856.4834
      1749.4274
 04  9 10 16  8 30.0030000  0  6G 1G11G14G23G25G20
  -4637528.80149  -3610831.10548  21691087.8124   21691085.6124
       231.6304
    133948.53549    105084.28947  22078361.8274   22078358.9874
     -1368.7374
  14484469.32049  11272487.62147  23640932.1874   23640929.4724
     -3700.3764
  -1639105.18749  -1270978.23446  24532569.2024   24532564.9254
      1934.1164
  -3959687.46949  -3082338.45348  21608684.0694   21608681.6014
      -329.9664
  -4216422.99649  -3755330.89847  23263872.4994   23263869.1124
      1747.2264
 04  9 10 16  8 45.0030000  0  6G 1G11G14G23G25G20
  -4640920.52749  -3613474.00848  21690442.1874   21690440.1904
       226.1154
    154619.41449    121191.42648  22082295.6084   22082291.9334
     -1378.0594
  14539999.18449  11315757.61347  23651499.4684   23651496.7924
     -3701.9914
  -1668075.72749  -1293552.64146  24527055.6014   24527051.7534
      1931.3694
  -3954600.74649  -3078374.76648  21609651.8274   21609649.5074
      -339.1154
  -4242597.40649  -3775726.53547  23258890.7724   23258888.6944
      1744.9614
 04  9 10 16  9  0.0030000  0  6G 1G11G14G23G25G20
  -4644231.03549  -3616053.61748  21689812.5624   21689810.7804
       220.7014
    175428.65649    137406.38347  22086255.1714   22086251.7844
     -1387.2834
  14595551.67249  11359045.23847  23662070.5774   23662068.2724
     -3703.4994
  -1697006.34049  -1316095.97346  24521550.8274   24521547.0344
      1928.7084
  -3949378.23849  -3074305.28148  21610646.0154   21610642.8824
      -348.1674
  -4268739.04749  -3796096.63347  23253916.9294   23253914.2534
      1742.7764
 04  9 10 16  9 15.0030000  0  6G 1G11G14G23G25G20
  -4647458.03549  -3618568.16048  21689198.5384   21689196.5544
       215.1334
    196378.60549    153730.98447  22090242.0304   22090238.3394
     -1396.6634
  14651128.93449  11402352.14847  23672646.3904   23672644.1364
     -3705.1514
  -1725894.80949  -1338606.43747  24516053.8434   24516050.0384
      1925.8984
  -3944017.56649  -3070128.12948  21611666.0774   21611662.9684
      -357.3784
  -4294845.37949  -3816439.22747  23248948.7724   23248946.7334
      1740.4224
 04  9 10 16  9 30.0030000  0  6G 1G11G14G23G25G20
  -4650601.91849  -3621017.94148  21688600.1944   21688598.1084
       209.5924
    217468.75449    170164.84847  22094255.3904   22094251.7574
     -1406.0104
  14706730.52049  11445678.00047  23683227.1404   23683224.7184
     -3706.7724
  -1754741.56249  -1361084.42647  24510565.5854   24510560.3704
      1923.1174
  -3938518.88749  -3065843.44948  21612712.3124   21612709.1984
      -366.5794
  -4320916.74249  -3836754.55947  23243986.8744   23243984.7064
      1738.0914
 04  9 10 16  9 45.0030000  0  6G 1G11G14G23G25G20
  -4653663.70349  -3623403.73848  21688017.4994   21688015.1834
       204.1194
    238698.18449    186707.24647  22098294.9914   22098291.6084
     -1415.2954
  14762355.33249  11489021.95347  23693812.6324   23693809.6444
     -3708.3214
  -1783547.24249  -1383530.40247  24505083.5934   24505079.2334
      1920.3794
  -3932883.30949  -3061452.08648  21613784.6874   21613781.2224
      -375.7054
  -4346953.66049  -3857043.07047  23239033.2964   23239029.7764
      1735.7954
 04  9 10 16 10  0.0030000  0  6G 1G11G14G23G25G20
  -4656642.38749  -3625724.78948  21687450.6084   21687448.4174
       198.5794
    260067.77349    203358.85547  22102361.3514   22102358.3824
     -1424.6394
  14818004.25449  11532384.72347  23704402.3434   23704399.3514
     -3709.9284
  -1812310.81649  -1405943.58247  24499609.8194   24499606.0624
      1917.5724
  -3927109.81649  -3056953.25448  21614883.3904   21614880.2724
      -384.8994
  -4372955.13349  -3877303.96547  23234085.5154   23234081.4684
      1733.4324
 04  9 10 16 10 15.0030000  0  6G 1G11G14G23G25G20
  -4659538.03949  -3627981.13748  21686899.5544   21686897.6324
       193.0434
    281577.39549    220119.59047  22106454.5694   22106451.6444
     -1433.9754
  14873677.02049  11575766.03147  23714996.9054   23714993.9524
     -3711.5184
  -1841032.42249  -1428324.03147  24494143.9054   24494140.7224
      1914.7744
  -3921198.30549  -3052346.89148  21616008.3274   21616004.8944
      -394.1014
  -4398920.89549  -3897537.04747  23229144.3824   23229140.5154
      1731.0514
 04  9 10 16 10 30.0030000  0  6G 1G11G14G23G25G20
  -4662352.35949  -3630174.11348  21686363.9374   21686362.3624
       187.6214
    303225.25849    236988.03947  22110574.1794   22110570.9994
     -1443.1914
  14929371.68449  11619164.45347  23725594.9444   23725592.7454
     -3712.9784
  -1869713.53149  -1450672.94547  24488687.0464   24488683.1904
      1912.0744
  -3915150.57049  -3047634.35948  21617159.4524   21617155.6754
      -403.1824
  -4424852.57449  -3917743.55147  23224209.6244   23224206.1514
      1728.7794
 04  9 10 16 10 45.0030000  0  6G 1G11G14G23G25G20
  -4665085.05149  -3632303.47748  21685844.0224   21685842.7534
       182.1794
    325011.73449    253964.49647  22114720.0544   22114717.0894
     -1452.4324
  14985088.60949  11662580.21547  23736197.5694   23736194.8784
     -3714.4624
  -1898353.73449  -1472989.99647  24483237.2494   24483233.9254
      1909.3474
  -3908966.04349  -3042815.25848  21618335.8434   21618332.4484
      -412.3024
  -4450749.55149  -3937922.99647  23219280.6164   23219278.0734
      1726.4654
 04  9 10 16 11  0.0030000  0  6G 1G11G14G23G25G20
  -4667734.49249  -3634367.97348  21685339.9604   21685338.4054
       176.6294
    346938.22749    271050.06648  22118892.5154   22118889.5224
     -1461.7664
  15040829.21549  11706014.40247  23746805.0464   23746803.0584
     -3716.0404
  -1926951.35949  -1495273.83247  24477794.9764   24477791.3004
      1906.5084
  -3902643.16449  -3037888.33248  21619539.1324   21619536.3084
      -421.5254
  -4476610.03549  -3958074.01647  23214359.6714   23214356.8124
      1724.0324
 04  9 10 16 11 15.0030000  0  6G 1G11G14G23G25G20
  -4670302.62549  -3636369.12148  21684851.3434   21684849.0894
       171.2094
    369002.67649    288243.13347  22123091.2104   22123087.6984
     -1470.9634
  15096591.44549  11749465.44947  23757415.9214   23757413.9564
     -3717.4824
  -1955508.21949  -1517525.91847  24472360.4604   24472356.3784
      1903.7914
  -3896183.74249  -3032855.01248  21620768.4374   21620765.4254
      -430.6284
  -4502435.72749  -3978197.93747  23209445.3354   23209443.0034
      1721.7134
 04  9 10 16 11 30.0030000  0  6G 1G11G14G23G25G20
  -4672788.54749  -3638306.19948  21684378.0854   21684376.0114
       165.7284
    391206.38349    305544.70747  22127316.3354   22127313.0154
     -1480.2474
  15152376.21549  11792934.04347  23768031.1324   23768028.8234
     -3718.9854
  -1984023.17649  -1539745.34846  24466934.3194   24466929.8004
      1900.9974
  -3889586.75049  -3027714.50048  21622023.9374   21622020.8394
      -439.7994
  -4528225.39849  -3998293.77747  23204538.5694   23204535.2064
      1719.3114
 04  9 10 16 11 45.0030000  0  6G 1G11G14G23G25G20
  -4675191.59849  -3640178.70748  21683920.9444   21683919.1164
       160.2034
    413549.77349    322955.12147  22131567.8664   22131564.7264
     -1489.5594
  15208183.95749  11836420.55147  23778650.9684   23778648.8974
     -3720.5164
  -2012495.52349  -1561931.60246  24461516.1324   24461511.2884
      1898.1574
  -3882851.58649  -3022466.32448  21623305.2654   21623302.5114
      -449.0114
  -4553978.18749  -4018360.89147  23199637.7804   23199634.9404
      1716.8534
 04  9 10 16 12  0.0030000  0  6G 1G11G14G23G25G20
  -4677513.34049  -3641987.85948  21683479.1404   21683476.5624
       154.7834
    436031.35949    340473.22747  22135846.1874   22135842.9444
     -1498.7724
  15264013.06349  11879923.72347  23789275.0694   23789272.7534
     -3721.9404
  -2040926.70349  -1584085.76646  24456105.1714   24456101.3084
      1895.4124
  -3875979.70749  -3017111.60948  21624613.3124   21624610.2614
      -458.1254
  -4579695.49649  -4038400.36747  23194743.7334   23194740.7964
      1714.4874
 04  9 10 16 12 15.0030000  0  6G 1G11G14G23G25G20
  -4679752.47749  -3643732.64548  21683053.0074   21683050.3274
       149.2764
    458652.28149    358099.91447  22140150.6874   22140147.4994
     -1508.0614
  15319864.78549  11923444.50447  23799903.6794   23799901.3314
     -3723.4484
  -2069315.34849  -1606206.77746  24450704.0854   24450699.6474
      1892.5764
  -3868969.70749  -3011649.28548  21625946.8744   21625944.0854
      -467.3334
  -4605375.74249  -4058410.93747  23189856.6164   23189853.7614
      1712.0164
 04  9 10 16 12 30.0030000  0  6G 1G11G14G23G25G20
  -4681909.43749  -3645413.39548  21682642.7184   21682640.7534
       143.7974
    481411.98049    375834.71947  22144482.1874   22144478.9874
     -1517.3134
  15375738.60249  11966982.48447  23810535.3514   23810533.4914
     -3724.9214
  -2097661.81249  -1628294.91046  24445309.3194   24445305.4524
      1889.7644
  -3861822.02049  -3006079.64848  21627307.2724   21627304.6284
      -476.5124
  -4631019.08649  -4078392.77047  23184976.8974   23184974.1084
      1709.5564
 04  9 10 16 12 45.0030000  0  6G 1G11G14G23G25G20
  -4683984.73049  -3647030.50048  21682247.6944   21682245.5544
       138.3534
    504309.82449    393677.18847  22148839.0304   22148836.7144
     -1526.5234
  15431633.80549  12010537.16447  23821172.1474   23821170.3394
     -3726.3474
  -2125966.37549  -1650350.40247  24439922.8514   24439919.9174
      1886.9714
  -3854537.10249  -3000403.09048  21628693.6474   21628690.5224
      -485.6614
  -4656625.83249  -4098346.09047  23180103.8194   23180101.2294
      1707.1164
 04  9 10 16 13  0.0030000  0  6G 1G11G14G23G25G20
  -4685978.77349  -3648584.29748  21681868.1474   21681865.6554
       132.9364
    527345.72349    411627.22347  22153223.1474   22153220.1244
     -1535.7274
  15487549.95749  12054108.14147  23831813.0544   23831810.7264
     -3727.7434
  -2154229.39549  -1672373.50046  24434545.0854   24434542.0154
      1884.2014
  -3847115.25449  -2994619.82848  21630105.8974   21630102.9604
      -494.7904
  -4682196.12949  -4118271.00047  23175238.6014   23175235.0734
      1704.6864
 04  9 10 16 13 15.0030000  0  6G 1G11G14G23G25G20
  -4687890.57449  -3650074.01248  21681504.0464   21681502.2804
       127.4534
    550520.53149    429685.49247  22157633.3044   22157630.5934
     -1544.9874
  15543487.95349  12097696.13747  23842457.0304   23842455.9014
     -3729.2004
  -2182449.84049  -1694363.46547  24429174.5304   24429170.9054
      1881.3634
  -3839555.43449  -2988729.05948  21631544.5854   21631541.3544
      -503.9884
  -4707728.89849  -4138166.64147  23170379.7964   23170376.4874
      1702.1854
 04  9 10 16 13 30.0030000  0  6G 1G11G14G23G25G20
  -4689721.25849  -3651500.50848  21681155.9444   21681153.8124
       122.0464
    573832.92649    447851.00048  22162069.4834   22162066.9914
     -1554.1604
  15599446.42649  12141300.10547  23853105.8664   23853104.3624
     -3730.5654
  -2210628.65649  -1716320.94946  24423812.8354   24423808.4764
      1878.5884
  -3831858.80149  -2982731.68748  21633009.0464   21633005.7264
      -513.1094
  -4733224.88749  -4158033.64147  23165528.1474   23165525.0584
      1699.7334
 04  9 10 16 13 45.0030000  0  6G 1G11G14G23G25G20
  -4691469.21949  -3652862.55948  21680823.0224   21680821.0034
       116.5314
    597284.53149    466124.96948  22166532.0694   22166529.3544
     -1563.4404
  15655426.91049  12184921.21147  23863759.1634   23863757.0814
     -3732.0324
  -2238764.18049  -1738244.73846  24418458.5074   24418454.5074
      1875.7024
  -3824023.69549  -2976626.41448  21634500.0854   21634496.8744
      -522.3404
  -4758682.33649  -4177870.59847  23160683.4684   23160680.9294
      1697.1634
 04  9 10 16 14  0.0030000  0  6G 1G11G14G23G25G20
  -4693134.74649  -3654160.38348  21680506.5694   21680504.4334
       111.0354
    620874.98449    484507.12948  22171020.9444   22171018.1944
     -1572.6974
  15711429.03149  12228559.18847  23874415.1244   23874413.6944
     -3733.4754
  -2266856.65649  -1760134.96546  24413112.5304   24413108.6634
      1872.8324
  -3816050.41849  -2970413.47348  21636017.2184   21636013.9374
      -531.5524
  -4784101.32449  -4197677.57447  23155846.4994   23155843.9014
      1694.5994
 04  9 10 16 14 15.0030000  0  6G 1G11G14G23G25G20
  -4694718.17249  -3655394.20748  21680204.9994   21680203.0384
       105.5624
    644603.89849    502997.19147  22175536.6084   22175533.5814
     -1581.9284
  15767452.45349  12272213.77747  23885076.3514   23885074.7334
     -3734.8954
  -2294906.16449  -1781991.71546  24407774.8434   24407770.7024
      1869.9674
  -3807939.09849  -2964092.96148  21637560.6084   21637557.6444
      -540.7554
  -4809481.90249  -4217454.64147  23151016.3904   23151014.4764
      1692.0394
 04  9 10 16 14 30.0030000  0  6G 1G11G14G23G25G20
  -4696219.96949  -3656564.43748  21679919.0774   21679917.2064
       100.1204
    668470.75049    521594.71547  22180078.4374   22180075.2884
     -1591.1234
  15823496.46149  12315884.41047  23895740.9604   23895739.1984
     -3736.2674
  -2322913.12149  -1803815.31646  24402445.2884   24402441.1514
      1867.1304
  -3799690.19149  -2957665.24248  21639130.2104   21639127.0504
      -549.9274
  -4834824.33649  -4237201.97347  23146194.2024   23146191.7064
      1689.4964
 04  9 10 16 14 45.0030000  0  6G 1G11G14G23G25G20
  -4697640.47349  -3657671.32448  21679649.2574   21679646.8154
        94.7004
    692475.10949    540299.39147  22184645.9374   22184642.8434
     -1600.2914
  15879560.67649  12359570.77747  23906409.9834   23906409.0384
     -3737.6144
  -2350877.67249  -1825605.86747  24397123.8744   24397119.8514
      1864.3034
  -3791304.10949  -2951130.62948  21640726.2104   21640723.3904
      -559.0724
  -4860128.61349  -4256919.59847  23141379.3434   23141375.9564
      1686.9524
 04  9 10 16 15  0.0030000  0  6G 1G11G14G23G25G20
  -4698977.91849  -3658713.48448  21679394.8354   21679392.4334
        89.1634
    716618.78149    559112.61347  22189240.5694   22189237.4954
     -1609.5784
  15935646.87149  12403274.26647  23917083.2494   23917081.1164
     -3739.0804
  -2378797.93049  -1847361.89547  24391810.8974   24391807.2574
      1861.3514
  -3782778.90649  -2944487.60948  21642348.5154   21642345.2964
      -568.3474
  -4885392.77049  -4276605.95747  23136571.6474   23136568.3904
      1684.2774
 04  9 10 16 15 15.0030000  0  6G 1G11G14G23G25G20
  -4700232.98049  -3659691.46548  21679155.7184   21679153.2964
        83.6714
    740900.87149    578033.69947  22193861.0694   22193857.9914
     -1618.8064
  15991754.21549  12446994.23847  23927759.6944   23927758.6514
     -3740.4904
  -2406674.55949  -1869083.92247  24386506.6474   24386502.1554
      1858.4424
  -3774115.21549  -2937736.68448  21643996.9524   21643994.1204
      -577.5794
  -4910617.31249  -4296261.45347  23131771.1404   23131767.8314
      1681.6364
 04  9 10 16 15 30.0030000  0  6G 1G11G14G23G25G20
  -4701406.56649  -3660605.94948  21678932.2884   21678929.6124
        78.2394
    765320.67649    597062.07047  22198508.0694   22198504.8004
     -1627.9874
  16047881.61349  12490729.82047  23938440.6474   23938439.4404
     -3741.8274
  -2434508.37149  -1890772.58647  24381209.2574   24381204.5974
      1855.5884
  -3765313.86349  -2930878.48448  21645672.3584   21645669.0384
      -586.7574
  -4935802.90649  -4315886.59047  23126978.8194   23126975.5344
      1679.0404
 04  9 10 16 15 45.0030000  0  6G 1G11G14G23G25G20
  -4702497.78549  -3661456.24648  21678724.9374   21678722.1714
        72.7484
    789878.89149    616198.31347  22203181.8194   22203177.6474
     -1637.2144
  16104029.84049  12534481.63747  23949125.7724   23949123.6514
     -3743.2154
  -2462298.41849  -1912427.14146  24375920.8824   24375915.4094
      1852.6704
  -3756374.09049  -2923912.44148  21647373.3974   21647370.5224
      -595.9854
  -4960948.39549  -4335480.47747  23122193.5854   23122190.3044
      1676.3664
 04  9 10 16 16  0.0030000  0  6G 1G11G14G23G25G20
  -4703506.00449  -3662241.86748  21678532.9914   21678530.4684
        67.2154
    814576.10549    635442.87547  22207881.1014   22207877.6554
     -1646.4814
  16160199.53949  12578250.21547  23959814.5624   23959811.6634
     -3744.6474
  -2490043.84049  -1934046.95746  24370641.6634   24370636.1594
      1849.6954
  -3747295.11749  -2916837.91448  21649101.1014   21649098.1044
      -605.2654
  -4986052.87549  -4355042.40247  23117416.0154   23117413.1874
      1673.6324
 04  9 10 16 16 15.0030000  0  6G 1G11G14G23G25G20
  -4704432.31649  -3662963.67648  21678356.5154   21678354.3154
        61.7544
    839411.16849    654794.84047  22212607.4214   22212604.2534
     -1655.6714
  16216389.51649  12622034.57847  23970506.7884   23970504.2494
     -3745.9984
  -2517745.65649  -1955632.78947  24365370.7334   24365365.8354
      1846.7884
  -3738077.98849  -2909655.73448  21650854.6714   21650852.5504
      -614.4754
  -5011117.29349  -4374573.10547  23112646.5774   23112643.1754
      1670.9614
 04  9 10 16 16 30.0030000  0  6G 1G11G14G23G25G20
  -4705277.47349  -3663622.23848  21678195.8124   21678193.0974
        56.3444
    864383.35949    674253.65647  22217359.4764   22217356.6754
     -1664.8134
  16272598.85549  12665834.03147  23981203.0384   23981200.7104
     -3747.2894
  -2545404.49649  -1977185.12147  24360105.8434   24360103.4294
      1843.9234
  -3728723.50049  -2902366.51648  21652634.6014   21652632.3664
      -623.6334
  -5036142.02749  -4394072.90647  23107884.4914   23107881.3904
      1668.3164
 04  9 10 16 16 45.0030000  0  6G 1G11G14G23G25G20
  -4706039.54749  -3664216.06648  21678050.9374   21678048.1674
        50.8054
    889494.39849    693820.68447  22222137.6474   22222134.7804
     -1674.0694
  16328829.44149  12709650.02747  23991903.2024   23991900.9564
     -3748.7064
  -2573018.36349  -1998702.37947  24354851.2804   24354848.5344
      1840.9244
  -3719229.62149  -2894968.67648  21654441.6244   21654438.8864
      -632.9254
  -5061124.98049  -4413540.14847  23103130.9834   23103127.7334
      1665.5304
 04  9 10 16 17  0.0030000  0  6G 1G11G14G23G25G20
  -4706719.23849  -3664745.69148  21677921.9524   21677918.8084
        45.3134
    914743.58249    713495.34847  22226942.3274   22226939.6834
     -1683.2794
  16385080.39149  12753481.89847  24002607.7264   24002605.4834
     -3750.0634
  -2600587.83249  -2020185.06247  24349605.0934   24349602.4834
      1837.9654
  -3709597.14549  -2887462.85248  21656274.9524   21656271.3864
      -642.1654
  -5086066.67649  -4432975.23047  23098384.5464   23098381.5774
      1662.7804
 04  9 10 16 17 15.0030000  0  6G 1G11G14G23G25G20
  -4707317.24249  -3665211.66848  21677807.4374   21677805.4764
        39.8674
    940130.21149    733277.12147  22231774.0304   22231770.5694
     -1692.4424
  16441351.02049  12797329.09047  24013315.3974   24013314.2334
     -3751.3754
  -2628113.41449  -2041633.54347  24344367.9374   24344363.6474
      1835.0394
  -3699826.62149  -2879849.47348  21658133.6794   21658130.8544
      -651.3684
  -5110967.48849  -4452378.45347  23093645.6404   23093643.1124
      1660.0544
 04  9 10 16 17 30.0030000  0  6G 1G11G14G23G25G20
  -4707834.04349  -3665614.36748  21677709.2964   21677707.1124
        34.4534
    965653.65649    753165.50447  22236630.4524   22236627.5854
     -1701.5634
  16497640.62949  12841191.09047  24024027.0154   24024026.1714
     -3752.6414
  -2655595.55149  -2063048.16847  24339137.9524   24339133.8354
      1832.1424
  -3689918.46149  -2872128.81648  21660018.9214   21660016.5424
      -660.5444
  -5135827.62949  -4471749.97347  23088915.0304   23088912.0894
      1657.3434
 04  9 10 16 17 45.0030000  0  6G 1G11G14G23G25G20
  -4708268.90249  -3665953.21948  21677626.4994   21677623.8084
        28.9914
    991314.64549    773161.05547  22241513.5154   22241510.3124
     -1710.7334
  16553949.97349  12885068.45747  24034742.4134   24034740.7264
     -3753.9564
  -2683033.39849  -2084428.30147  24333916.3664   24333911.2694
      1829.1904
  -3679871.81249  -2864300.25448  21661931.2024   21661928.6594
      -669.7774
  -5160646.07449  -4491089.02047  23084192.2334   23084189.3514
      1654.5634
 04  9 10 16 18  0.0030000  0  6G 1G11G14G23G25G20
  -4708621.68049  -3666228.11748  21677559.4524   21677557.2184
        23.5184
   1017113.35949    793263.90647  22246423.0074   22246420.0624
     -1719.9144
  16610279.14549  12928961.27747  24045461.3584   24045459.6164
     -3755.2784
  -2710426.69549  -2105773.70747  24328704.2024   24328699.2334
      1826.2204
  -3669686.57849  -2856363.71148  21663869.6874   21663866.9724
      -679.0164
  -5185422.54349  -4510395.35947  23079477.4054   23079474.3194
      1651.7654
 04  9 10 16 18 15.0030000  0  6G 1G11G14G23G25G20
  -4708892.88749  -3666439.44948  21677507.9684   21677505.9994
        18.0804
   1043048.97749    813473.44147  22251358.3274   22251354.7844
     -1729.0414
  16666627.55149  12972869.09047  24056184.6944   24056182.2964
     -3756.5604
  -2737775.72749  -2127084.64547  24323499.7334   24323494.9404
      1823.2694
  -3659363.37549  -2848319.65648  21665834.1794   21665831.0894
      -688.2144
  -5210157.31249  -4529669.21947  23074770.7414   23074767.0624
      1648.9854
 04  9 10 16 18 30.0030000  0  6G 1G11G14G23G25G20
  -4709082.48049  -3666587.18048  21677471.6554   21677469.6474
        12.6404
   1069121.66849    833789.79747  22256319.9214   22256316.6514
     -1738.1794
  16722995.07049  13016791.79747  24066910.4834   24066908.3124
     -3757.8354
  -2765080.47749  -2148361.04747  24318303.9374   24318298.9214
      1820.3174
  -3648901.96949  -2840167.90248  21667824.5074   21667821.5934
      -697.4274
  -5234849.97749  -4548910.26647  23070072.3124   23070068.5224
      1646.1784
 04  9 10 16 18 45.0030000  0  6G 1G11G14G23G25G20
  -4709191.44549  -3666672.08648  21677450.7574   21677448.3624
         7.2644
   1095330.31349    854212.09047  22261307.4994   22261304.2144
     -1747.2434
  16779380.66849  13060728.58647  24077640.4444   24077638.6984
     -3759.0404
  -2792341.78949  -2169603.62547  24313115.4994   24313110.4764
      1817.4214
  -3638303.27049  -2831909.18448  21669841.1634   21669838.4484
      -706.5804
  -5259501.38749  -4568119.16047  23065381.4684   23065378.2694
      1643.4274
 04  9 10 16 19  0.0030000  0  6G 1G11G14G23G25G20
  -4709219.35949  -3666693.82848  21677446.1714   21677443.4294
         1.8614
   1121675.25849    874740.60547  22266320.8434   22266317.4794
     -1756.3304
  16835784.68849  13104679.73447  24088373.9684   24088371.3584
     -3760.2684
  -2819558.96949  -2190811.80947  24307937.0774   24307931.7764
      1814.4794
  -3627566.82849  -2823543.12148  21671884.3974   21671881.9294
      -715.7634
  -5284110.73449  -4587295.28147  23060698.1874   23060694.9564
      1640.6234
 04  9 10 16 19 15.0030000  0  6G 1G11G14G23G25G20
  -4709166.71949  -3666652.81648  21677455.7724   21677453.3584
        -3.5094
   1148155.93849    895374.87547  22271359.7494   22271356.8704
     -1765.3794
  16892206.54349  13148644.77047  24099110.7334   24099108.2614
     -3761.4574
  -2846732.53949  -2211985.99647  24302765.7804   24302761.2104
      1811.5714
  -3616693.15249  -2815070.12548  21673953.5694   21673950.6084
      -724.9124
  -5308678.33649  -4606438.85947  23056022.6554   23056019.6474
      1637.8404
 04  9 10 16 19 30.0030000  0  6G 1G11G14G23G25G20
  -4709033.27349  -3666548.82848  21677481.4214   21677479.0264
        -8.8964
   1174772.51649    916115.04747  22276424.8584   22276422.0854
     -1774.4394
  16948646.47349  13192623.90647  24109850.6554   24109848.9174
     -3762.6624
  -2873862.22349  -2233125.96947  24297603.1634   24297598.4054
      1808.6464
  -3605682.03549  -2806490.02748  21676048.8514   21676045.8624
      -734.0744
  -5333203.65249  -4625549.47747  23051355.9834   23051352.6044
      1635.0214
 04  9 10 16 19 45.0030000  0  6G 1G11G14G23G25G20
  -4708818.85249  -3666381.73448  21677521.6794   21677519.4214
       -14.2954
   1201525.19149    936961.27747  22281515.5304   22281512.3624
     -1783.5124
  17005104.54749  13236617.16447  24120594.6874   24120593.0034
     -3763.8724
  -2900947.62549  -2254231.44947  24292448.8434   24292443.4794
      1805.6934
  -3594533.23849  -2797802.66048  21678170.8664   21678167.4684
      -743.2534
  -5357686.28549  -4644626.84847  23046696.8044   23046693.7414
      1632.1764
 04  9 10 16 20  0.0030000  0  6G 1G11G14G23G25G20
  -4708523.24649  -3666151.40248  21677578.2024   21677575.9644
       -19.7074
   1228414.07449    957913.62947  22286632.3354   22286628.7964
     -1792.5924
  17061580.71949  13280624.52747  24131341.6324   24131340.1514
     -3765.0784
  -2927988.48449  -2275302.24247  24287303.2884   24287298.4524
      1802.7244
  -3583246.43749  -2789007.75448  21680318.7724   21680315.2764
      -752.4534
  -5382125.86349  -4663670.66847  23042045.8584   23042043.0624
      1629.3054
 04  9 10 16 20 15.0030000  0  6G 1G11G14G23G25G20
  -4708146.03149  -3665857.46548  21677649.6714   21677647.7574
       -25.1484
   1255439.46549    978972.36347  22291775.0624   22291771.6874
     -1801.6934
  17118075.49649  13324646.38747  24142093.0624   24142090.4834
     -3766.3184
  -2954984.17649  -2296337.86347  24282165.8744   24282161.6014
      1799.7134
  -3571821.41849  -2780105.13748  21682492.6084   21682489.1634
      -761.6684
  -5406521.63749  -4682680.35247  23037404.0384   23037400.8434
      1626.3854
 04  9 10 16 20 30.0030000  0  6G 1G11G14G23G25G20
  -4707687.60249  -3665500.24648  21677737.0854   21677735.2534
       -30.5624
   1282600.87949   1000137.07847  22296943.7184   22296941.0584
     -1810.7614
  17174588.39149  13368682.38347  24152846.5774   24152844.6164
     -3767.5264
  -2981935.11749  -2317338.57047  24277036.9914   24277033.5114
      1796.7294
  -3560258.41449  -2771095.00448  21684692.9444   21684689.9404
      -770.8674
  -5430873.74249  -4701656.02047  23032769.6944   23032766.4874
      1623.4744
 04  9 10 16 20 45.0030000  0  6G 1G11G14G23G25G20
  -4707148.98449  -3665080.55148  21677839.5854   21677837.5934
       -35.9084
   1309897.19149   1021406.91447  22302138.3354   22302135.3234
     -1819.7544
  17231118.27349  13412731.59447  24163604.0464   24163602.1674
     -3768.6594
  -3008842.02349  -2338304.97747  24271917.0384   24271913.8584
      1793.7944
  -3548558.37549  -2761978.08248  21686919.3274   21686916.2924
      -780.0034
  -5455182.90649  -4720598.21147  23028143.4134   23028140.9564
      1620.6114
 04  9 10 16 21  0.0030000  0  6G 1G11G14G23G25G20
  -4706530.80949  -3664598.84848  21677957.1164   21677955.3544
       -41.2124
   1337327.78149   1042781.36747  22307358.4054   22307355.1474
     -1828.7064
  17287664.26249  13456793.35947  24174363.8044   24174362.9374
     -3769.7334
  -3035705.62549  -2359237.64847  24266804.8744   24266800.6044
      1790.9074
  -3536721.95749  -2752754.89848  21689171.6244   21689168.4444
      -789.0954
  -5479449.65249  -4739507.35547  23023526.4604   23023523.0974
      1617.7834
 04  9 10 16 21 15.0030000  0  6G 1G11G14G23G25G20
  -4705832.96149  -3664055.07048  21678090.1474   21678088.0504
       -46.5234
   1364892.65249   1064260.47347  22312603.4294   22312600.3154
     -1837.6584
  17344226.55949  13500867.82847  24185127.3044   24185126.4444
     -3770.8204
  -3062525.66449  -2380136.37147  24261701.9994   24261695.8664
      1788.0034
  -3524748.96549  -2743425.29348  21691450.2104   21691446.4174
      -798.1994
  -5503673.46149  -4758383.03147  23018916.6944   23018913.1874
      1614.9214
 04  9 10 16 21 30.0030000  0  6G 1G11G14G23G25G20
  -4705055.07049  -3663448.92248  21678238.2334   21678236.2654
       -51.8594
   1392592.34849   1085844.63747  22317874.2884   22317871.3584
     -1846.6464
  17400805.47349  13544955.27347  24195894.1874   24195893.1714
     -3771.9284
  -3089301.60949  -2401000.73447  24256606.1874   24256601.1514
      1785.0634
  -3512639.13349  -2733989.05948  21693754.4994   21693750.9294
      -807.3224
  -5527853.79349  -4777224.85247  23014315.1714   23014311.7224
      1612.0224
 04  9 10 16 21 45.0030000  0  6G 1G11G14G23G25G20
  -4704195.93449  -3662779.46548  21678401.1244   21678399.2804
       -57.2764
   1420427.69149   1107534.49247  22323171.2264   22323168.4524
     -1855.6904
  17457402.18049  13589056.57447  24206664.2334   24206662.5894
     -3773.1144
  -3116032.09049  -2421829.65647  24251519.3744   24251514.4764
      1782.0324
  -3500391.08649  -2724445.12148  21696085.1014   21696082.0654
      -816.5364
  -5551989.08249  -4796031.57047  23009722.3824   23009718.9134
      1609.0194
 04  9 10 16 22  0.0030000  0  6G 1G11G14G23G25G20
  -4703256.16049  -3662047.18048  21678580.2184   21678578.9444
       -62.6524
   1448398.04749   1129329.56347  22328493.6714   22328491.1164
     -1864.6904
  17514016.01649  13633171.19947  24217437.3974   24217436.4014
     -3774.2564
  -3142717.71149  -2442623.61347  24246441.3274   24246436.7454
      1779.0414
  -3488005.48049  -2714794.00048  21698442.0224   21698438.9914
      -825.7074
  -5576079.61349  -4814803.40647  23005138.0624   23005134.1634
      1606.0354
 04  9 10 16 22 15.0030000  0  6G 1G11G14G23G25G20
  -4702234.78949  -3661251.29348  21678774.7184   21678772.6444
       -68.0914
   1476504.25449   1151230.50447  22333841.9914   22333839.8514
     -1873.7474
  17570647.77049  13677299.79747  24228213.8354   24228212.3864
     -3775.4504
  -3169357.29749  -2463381.69147  24241372.0464   24241368.0544
      1775.9724
  -3475481.37549  -2705034.95748  21700825.0464   21700822.4914
      -834.9404
  -5600124.36349  -4833539.57047  23000562.4834   23000558.9374
      1602.9834
 04  9 10 16 22 30.0030000  0  6G 1G11G14G23G25G20
  -4701133.70349  -3660393.30948  21678984.2024   21678982.0694
       -73.4064
   1504744.52049   1173235.91047  22339216.0304   22339213.6834
     -1882.6844
  17627295.44149  13721440.79347  24238993.7184   24238992.0734
     -3776.5114
  -3195952.60249  -2484105.29747  24236310.4604   24236306.1594
      1773.0204
  -3462820.57449  -2695169.39848  21703234.5384   21703231.5194
      -844.0534
  -5624124.88749  -4852241.28547  22995995.4374   22995991.7064
      1600.0354
 04  9 10 16 22 45.0030000  0  6G 1G11G14G23G25G20
  -4699951.52749  -3659472.13748  21679209.0934   21679206.7804
       -78.8124
   1533119.95349   1195346.62947  22344615.8664   22344613.2374
     -1891.6964
  17683960.42249  13765595.26647  24249776.7654   24249775.3624
     -3777.6654
  -3222502.21149  -2504793.27047  24231258.8514   24231254.5544
      1769.9744
  -3450021.85549  -2685196.37548  21705670.1554   21705667.1084
      -853.2484
  -5648079.49649  -4870907.21547  22991437.0854   22991433.1714
      1596.9744
 04  9 10 16 23  0.0030000  0  6G 1G11G14G23G25G20
  -4698688.35949  -3658487.85548  21679449.6714   21679447.4094
       -84.2114
   1561630.45349   1217562.58247  22350041.4524   22350038.8004
     -1900.7004
  17740642.44149  13809763.03147  24260563.6794   24260561.9684
     -3778.8014
  -3249006.02349  -2525445.60247  24226214.6014   24226210.8194
      1766.9214
  -3437085.08649  -2675115.78148  21708132.2884   21708128.4684
      -862.4514
  -5671988.10249  -4889537.28947  22986887.1634   22986883.4724
      1593.9074
 04  9 10 16 23 15.0030000  0  6G 1G11G14G23G25G20
  -4697344.63349  -3657440.78948  21679705.2804   21679702.7414
       -89.5824
   1590275.47349   1239883.36347  22355492.7334   22355489.8314
     -1909.6684
  17797341.08649  13853943.77047  24271352.5464   24271351.3274
     -3779.9104
  -3275464.41849  -2546062.50047  24221179.3904   24221176.5464
      1763.8934
  -3424010.83249  -2664928.05548  21710619.9444   21710616.4294
      -871.6174
  -5695850.80149  -4908131.59847  22982346.6014   22982343.2144
      1590.8474
 04  9 10 16 23 30.0030000  0  6G 1G11G14G23G25G20
  -4695920.40649  -3656331.00448  21679976.4914   21679973.9914
       -94.9484
   1619054.73449   1262308.74247  22360968.8974   22360965.8154
     -1918.6174
  17854056.20349  13898137.32847  24282145.2024   24282144.4214
     -3781.0084
  -3301877.36349  -2566644.00847  24216153.2334   24216149.6904
      1760.8634
  -3410799.14149  -2654633.23048  21713133.9134   21713130.7844
      -880.7794
  -5719667.45749  -4926690.02047  22977814.4214   22977810.7184
      1587.7774
 04  9 10 16 23 45.0030000  0  6G 1G11G14G23G25G20
  -4694416.85249  -3655159.41048  21680262.4914   21680259.9334
      -100.2374
   1647967.06649   1284837.82047  22366470.9994   22366467.5854
     -1927.4894
  17910786.52749  13942342.76247  24292940.9604   24292939.7294
     -3782.0224
  -3328245.88749  -2587190.89147  24211136.3194   24211132.3044
      1757.9024
  -3397451.09849  -2644232.15648  21715673.9764   21715670.9094
      -889.8704
  -5743438.95749  -4945213.25447  22973290.5934   22973287.4834
      1584.7674
 04  9 10 16 24  0.0030000  0  6G 1G11G14G23G25G20
  -4692832.99649  -3653925.23848  21680563.9834   21680561.5934
      -105.5904
   1677013.51649   1307471.41447  22371998.4604   22371995.0584
     -1936.4304
  17967532.93049  13986560.68847  24303739.4054   24303738.4724
     -3783.0934
  -3354568.97349  -2607702.34847  24206126.8664   24206123.3944
      1754.8724
  -3383965.71549  -2633724.06248  21718240.4604   21718237.4564
      -899.0264
  -5767164.14849  -4963700.41447  22968775.8974   22968772.6044
      1581.6794
 04  9 10 16 24 15.0030000  0  6G 1G11G14G23G25G20
  -4691169.30549  -3652628.85248  21680880.2024   21680878.1834
      -110.9134
   1706193.34449   1330208.93047  22377550.9764   22377547.7104
     -1945.3224
  18024294.83249  14030790.69947  24314540.6794   24314538.9054
     -3784.1274
  -3380846.91449  -2628178.63347  24201126.7574   24201123.5264
      1751.8634
  -3370343.48449  -2623109.33648  21720832.6244   21720829.4604
      -908.1494
  -5790843.08249  -4982151.52347  22964269.6944   22964266.6874
      1578.5964
 04  9 10 16 24 30.0030000  0  6G 1G11G14G23G25G20
  -4689425.70349  -3651270.20348  21681212.4214   21681209.6794
      -116.2404
   1735506.44549   1353050.28947  22383129.1874   22383126.0424
     -1954.2074
  18081072.31349  14075032.85247  24325344.9914   24325342.6554
     -3785.1654
  -3407079.60249  -2648619.66047  24196134.4134   24196131.3394
      1748.8464
  -3356584.34849  -2612387.93748  21723450.9294   21723448.0624
      -917.2764
  -5814475.52349  -5000566.40647  22959772.7494   22959769.4604
      1575.4964
 04  9 10 16 24 45.0030000  0  6G 1G11G14G23G25G20
  -4687602.93749  -3649849.85548  21681558.8744   21681556.5504
      -121.5184
   1764952.09449   1375994.94547  22388732.4134   22388729.3514
     -1963.0434
  18137864.44149  14119286.44947  24336152.2494   24336149.9604
     -3786.1424
  -3433267.64849  -2669025.90647  24191151.4994   24191147.6014
      1745.8704
  -3342689.16449  -2601560.51248  21726094.8974   21726092.1444
      -926.3464
  -5838061.91849  -5018945.41447  22955284.6404   22955281.4374
      1572.4264
 04  9 10 16 25  0.0030000  0  6G 1G11G14G23G25G20
  -4685701.22349  -3648368.00448  21681920.9764   21681918.2184
      -126.7814
   1794530.00849   1399042.64547  22394361.2574   22394357.6944
     -1971.8614
  18194671.09449  14163551.32047  24346962.5774   24346959.7654
     -3787.1104
  -3459411.01649  -2689397.35547  24186175.9764   24186172.4214
      1742.8914
  -3328657.89849  -2590627.06248  21728764.9764   21728762.2184
      -935.4184
  -5861602.21549  -5037288.49247  22950805.0544   22950802.1124
      1569.3534
 04  9 10 16 25 15.0030000  0  6G 1G11G14G23G25G20
  -4683720.66849  -3646824.70748  21682297.4834   21682295.3124
      -132.0374
   1824240.00049   1422193.27047  22400014.6164   22400011.5344
     -1980.6664
  18251492.12149  14207827.39847  24357775.3194   24357772.9724
     -3788.0684
  -3485509.78149  -2709734.04747  24181209.4374   24181205.5544
      1739.9184
  -3314490.84449  -2579587.80148  21731460.7414   21731458.3044
      -944.4704
  -5885096.25049  -5055595.52047  22946334.1554   22946331.3704
      1566.2694
 04  9 10 16 25 30.0030000  0  6G 1G11G14G23G25G20
  -4681660.91049  -3645219.70348  21682689.6164   21682687.4684
      -137.3174
   1854082.59049   1445447.22747  22405693.6474   22405690.3624
     -1989.5064
  18308327.80549  14252114.90647  24368590.7494   24368588.9444
     -3789.0464
  -3511563.52349  -2730035.63747  24176251.3664   24176247.8434
      1736.9164
  -3300187.62949  -2568442.44548  21734182.7654   21734179.8274
      -953.5484
  -5908543.37949  -5073866.00847  22941872.4684   22941869.5424
      1563.1424
 04  9 10 16 25 45.0030000  0  6G 1G11G14G23G25G20
  -4679521.55149  -3643552.66848  21683097.2574   21683094.4914
      -142.6244
   1884057.77049   1468804.49647  22411397.5544   22411394.3864
     -1998.3454
  18365178.52749  14296414.12147  24379408.6714   24379406.9564
     -3790.0484
  -3537571.69949  -2750301.73047  24171302.7574   24171299.3084
      1733.8784
  -3285747.78949  -2557190.61348  21736930.3044   21736927.4764
      -962.6564
  -5931942.93449  -5092099.43047  22937419.3124   22937416.4684
      1559.9704
 04  9 10 16 26  0.0030000  0  6G 1G11G14G23G25G20
  -4677302.39849  -3641823.45748  21683519.2654   21683516.9764
      -147.9434
   1914165.78149   1492265.27047  22417127.1014   22417123.8194
     -2007.2014
  18422044.25449  14340725.02747  24390230.4764   24390228.6874
     -3791.0484
  -3563533.91849  -2770532.02047  24166362.3044   24166358.7294
      1730.8154
  -3271171.08649  -2545832.15248  21739704.6014   21739701.4014
      -971.7804
  -5955294.42249  -5110295.39147  22932975.8044   22932972.4794
      1556.7664
 04  9 10 16 26 15.0030000  0  6G 1G11G14G23G25G20
  -4675004.48449  -3640032.87548  21683956.8124   21683953.7534
      -153.1944
   1944405.41049   1515828.60247  22422881.4684   22422878.1554
     -2015.9754
  18478923.83649  14385046.74247  24401053.4524   24401052.7614
     -3791.9724
  -3589451.07449  -2790727.21947  24161430.8124   24161426.4874
      1727.8104
  -3256458.61349  -2534367.89548  21742503.8434   21742501.1634
      -980.8324
  -5978598.68749  -5128454.55547  22928540.6714   22928537.7264
      1553.6184
 04  9 10 16 26 30.0030000  0  6G 1G11G14G23G25G20
  -4672627.82049  -3638180.93048  21684408.7654   21684406.3434
      -158.4444
   1974776.47349   1539494.34847  22428660.9994   22428657.5544
     -2024.7374
  18535817.40249  14429379.36747  24411879.8824   24411879.4014
     -3792.9044
  -3615323.29749  -2810887.39547  24156507.0694   24156503.3084
      1724.8154
  -3241610.37549  -2522797.83248  21745329.9134   21745326.7534
      -989.8834
  -6001855.50049  -5146576.74647  22924115.2574   22924112.6364
      1550.4544
 04  9 10 16 26 45.0030000  0  6G 1G11G14G23G25G20
  -4670170.41849  -3636266.06248  21684876.2334   21684873.9874
      -163.8274
   2005280.88749   1563264.00447  22434465.5934   22434462.1984
     -2033.6284
  18592726.90249  14473724.38347  24422709.5624   24422708.6124
     -3793.9674
  -3641148.45749  -2831010.86747  24151592.4604   24151589.9174
      1721.6774
  -3226624.32449  -2511120.39548  21748181.4994   21748178.8434
      -999.0704
  -6025062.50049  -5164660.12147  22919699.1874   22919696.1444
      1547.1334
 04  9 10 16 27  0.0030000  0  6G 1G11G14G23G25G20
  -4667633.75449  -3634289.44148  21685359.1164   21685356.2414
      -169.1114
   2035917.04749   1587136.33247  22440295.4294   22440292.8314
     -2042.4114
  18649650.62949  14518080.51647  24433541.5854   24433540.8354
     -3794.9154
  -3666927.78949  -2851098.64847  24146687.2334   24146684.4294
      1718.6224
  -3211502.01649  -2499336.78148  21751058.5304   21751056.3084
     -1008.1544
  -6048220.90649  -5182705.64147  22915292.6324   22915289.4214
      1543.8944
 04  9 10 16 27 15.0030000  0  6G 1G11G14G23G25G20
  -4665017.28949  -3632250.64548  21685857.2414   21685855.0464
      -174.4314
   2066685.48049   1611111.71547  22446150.6634   22446147.7844
     -2051.2294
  18706589.14149  14562448.12147  24444377.4444   24444375.9294
     -3795.9014
  -3692660.72349  -2871150.27047  24141790.5384   24141786.7334
      1715.5294
  -3196242.87949  -2487446.54748  21753962.8274   21753959.7884
     -1017.2764
  -6071329.86749  -5200712.62147  22910894.7184   22910891.5974
      1540.5974
 04  9 10 16 27 30.0030000  0  6G 1G11G14G23G25G20
  -4662320.59449  -3630149.32048  21686370.4294   21686367.6204
      -179.7804
   2097586.56649   1635190.46547  22452031.0464   22452028.1364
     -2060.0724
  18763542.85949  14606827.58647  24455214.8974   24455213.8904
     -3796.9154
  -3718346.59049  -2891165.20747  24136902.5774   24136898.0344
      1712.3914
  -3180846.47349  -2475449.35248  21756892.4914   21756889.2844
     -1026.4274
  -6094388.81249  -5218680.64147  22906507.0774   22906504.1554
      1537.2634
 04  9 10 16 27 45.0030000  0  6G 1G11G14G23G25G20
  -4659544.78949  -3627986.35948  21686898.3824   21686895.6364
      -185.0544
   2128618.97349   1659371.54347  22457936.2024   22457933.0584
     -2068.8274
  18820510.53949  14651217.96547  24466055.7654   24466054.5424
     -3797.8454
  -3743986.41849  -2911144.28947  24132023.8744   24132018.8154
      1709.3224
  -3165313.97349  -2463346.10948  21759848.5934   21759845.2024
     -1035.5004
  -6117398.44149  -5236610.23047  22902128.5224   22902125.1944
      1533.9754
 04  9 10 16 28  0.0030000  0  6G 1G11G14G23G25G20
  -4656689.36749  -3625761.35548  21687441.7414   21687439.8664
      -190.3614
   2159783.04749   1683655.22347  22463866.6404   22463863.5114
     -2077.6054
  18877492.65249  14695619.58646  24476899.0624   24476897.8514
     -3798.8084
  -3769579.58649  -2931087.01647  24127153.7574   24127148.9604
      1706.2114
  -3149644.85549  -2451136.40648  21762830.0304   21762827.0154
     -1044.6084
  -6140358.03949  -5254500.82047  22897759.6714   22897756.2804
      1530.6404
 04  9 10 16 28 15.0030000  0  6G 1G11G14G23G25G20
  -4653753.63749  -3623473.77748  21688000.0854   21687998.3544
      -195.7154
   2191079.41849   1708041.98847  22469821.7334   22469819.0344
     -2086.4254
  18934489.90249  14740032.95346  24487745.1164   24487743.3584
     -3799.8174
  -3795125.27749  -2950992.72747  24122292.0774   24122287.7804
      1703.0464
  -3133838.29349  -2438819.60948  21765838.0384   21765834.8194
     -1053.7714
  -6163266.57849  -5272351.62547  22893400.0074   22893396.8154
      1527.2364
 04  9 10 16 28 30.0030000  0  6G 1G11G14G23G25G20
  -4650739.45349  -3621125.04748  21688573.8124   21688571.9914
      -200.9464
   2222506.25049   1732530.41047  22475802.3044   22475799.5194
     -2095.1224
  18991500.34049  14784456.62947  24498594.3664   24498591.5034
     -3800.6964
  -3820625.24249  -2970862.81647  24117439.6554   24117434.7924
      1699.9984
  -3117896.34049  -2426397.31248  21768871.6404   21768868.6794
     -1062.7974
  -6186125.64149  -5290163.87547  22889050.1404   22889047.2964
      1523.9384
 04  9 10 16 28 45.0040000  0  6G 1G11G14G23G25G20
  -4647645.64149  -3618714.28948  21689162.7694   21689160.4774
      -206.2544
   2254066.55149   1757122.83647  22481808.2074   22481805.4494
     -2104.0204
  19048528.44549  14828894.07847  24509446.2774   24509443.5394
     -3801.8744
  -3846080.15249  -2990697.80147  24112595.6374   24112590.7154
      1696.9944
  -3101816.90649  -2413867.88348  21771931.1294   21771928.0474
     -1071.9624
  -6208935.64149  -5307937.87147  22884709.1844   22884706.9144
      1520.6674
 04  9 10 16 29  0.0040000  0  6G 1G11G14G23G25G20
  -4644473.10949  -3616242.19948  21689766.3874   21689764.3324
      -211.5024
   2285755.39149   1781815.42647  22487838.3554   22487835.2304
     -2112.5894
  19105566.16449  14873338.98846  24520300.1994   24520298.0704
     -3802.5154
  -3871487.01249  -3010495.37547  24107761.0434   24107755.9184
      1693.7914
  -3085602.69549  -2401233.43748  21775017.0044   21775013.8914
     -1080.9474
  -6231693.66449  -5325671.37947  22880378.3944   22880376.1094
      1517.2024
 04  9 10 16 29 15.0040000  0  6G 1G11G14G23G25G20
  -4641220.79349  -3613707.91848  21690385.1374   21690383.0084
      -216.8214
   2317575.62949   1806610.40247  22493893.5514   22493890.0194
     -2121.3494
  19162618.23849  14917795.10546  24531156.6604   24531155.0704
     -3803.4724
  -3896846.44549  -3030255.97347  24102935.3874   24102930.8714
      1690.6294
  -3069251.68749  -2388492.39148  21778128.3714   21778125.5784
     -1090.0674
  -6254400.02049  -5343364.63347  22876057.6684   22876054.8284
      1513.7574
 04  9 10 16 29 30.0040000  0  6G 1G11G14G23G25G20
  -4637889.22749  -3611111.90248  21691019.0744   21691017.1134
      -222.1044
   2349526.48049   1831507.15647  22499973.5044   22499970.7304
     -2130.0574
  19219684.01649  14962261.91046  24542016.5824   24542014.2854
     -3804.3854
  -3922159.02749  -3049980.05547  24098118.1604   24098113.8204
      1687.5054
  -3052764.63749  -2375645.34448  21781265.5044   21781263.1024
     -1099.1374
  -6277055.08249  -5361017.93047  22871747.0194   22871743.8484
      1510.3384
 04  9 10 16 29 45.0040000  0  6G 1G11G14G23G25G20
  -4634477.53549  -3608453.44148  21691668.4734   21691666.2234
      -227.4464
   2381608.90649   1856506.42647  22506078.2544   22506075.4304
     -2138.8284
  19276764.32449  15006740.03546  24552878.2074   24552876.4844
     -3805.3544
  -3947423.59849  -3069666.71147  24093310.4734   24093306.2664
      1684.3054
  -3036140.50849  -2362691.48048  21784428.9574   21784426.3094
     -1108.2754
  -6299657.65649  -5378630.32047  22867445.8324   22867441.9374
      1506.8384
 04  9 10 16 30  0.0040000  0  6G 1G11G14G23G25G20
  -4630986.97749  -3605733.52348  21692332.5744   21692330.3594
      -232.7044
   2413821.50449   1881607.14147  22512208.3714   22512205.5084
     -2147.5074
  19333857.96949  15051228.53946  24563742.6214   24563741.0314
     -3806.2434
  -3972641.39849  -3089316.93747  24088512.2624   24088507.0354
      1681.1874
  -3019380.63749  -2349631.84048  21787618.4414   21787615.6874
     -1117.3254
  -6322208.71549  -5396202.59847  22863154.5514   22863150.8984
      1503.4044
 04  9 10 16 30 15.0040000  0  6G 1G11G14G23G25G20
  -4627418.32049  -3602952.75848  21693011.7074   21693009.1564
      -237.9104
   2446163.30149   1906808.52047  22518362.9104   22518360.1374
     -2156.1204
  19390963.98049  15095726.67246  24574610.2154   24574608.0514
     -3807.0674
  -3997813.11349  -3108931.24247  24083722.2464   24083717.1874
      1678.1144
  -3002485.81249  -2336467.04348  21790833.5354   21790830.6174
     -1126.3224
  -6344708.78549  -5413735.10947  22858872.8794   22858869.5744
      1500.0054
 04  9 10 16 30 30.0040000  0  6G 1G11G14G23G25G20
  -4623769.94949  -3600109.87948  21693705.9574   21693703.4534
      -243.2254
   2478635.75849   1932111.71547  22524542.3094   22524539.1294
     -2164.8304
  19448084.05549  15140235.77746  24585480.0594   24585477.6844
     -3808.0054
  -4022936.98449  -3128508.25847  24078941.0354   24078937.0194
      1674.9254
  -2985454.44149  -2323195.85548  21794074.4494   21794071.8094
     -1135.4254
  -6367156.05149  -5431226.49647  22854600.6294   22854597.7424
      1496.4844
 04  9 10 16 30 45.0040000  0  6G 1G11G14G23G25G20
  -4620042.56649  -3597205.41848  21694415.3094   21694412.8914
      -248.4924
   2511238.15249   1957516.17247  22530746.1374   22530743.0084
     -2173.4934
  19505217.32449  15184755.16046  24596351.8554   24596349.6054
     -3808.8854
  -4048013.57849  -3148048.44547  24074169.1294   24074164.9144
      1671.7734
  -2968287.10549  -2309818.71548  21797341.4104   21797338.4614
     -1144.4894
  -6389550.81249  -5448676.95747  22850339.3484   22850336.4734
      1492.9844
 04  9 10 16 31  0.0040000  0  6G 1G11G14G23G25G20
  -4616236.67249  -3594239.79348  21695139.4414   21695137.3444
      -253.7264
   2543969.90649   1983021.42247  22536974.8794   22536971.6684
     -2182.1174
  19562363.27349  15229284.44546  24607226.7544   24607223.4344
     -3809.7304
  -4073043.38349  -3167552.17247  24069405.7304   24069400.7814
      1668.6544
  -2950984.36349  -2296336.05548  21800633.6844   21800631.4574
     -1153.5164
  -6411893.27749  -5466086.67247  22846087.5594   22846085.1254
      1489.4984
 04  9 10 16 31 15.0040000  0  6G 1G11G14G23G25G20
  -4612352.40249  -3591213.09048  21695878.6374   21695876.5904
      -258.9514
   2576830.63749   2008627.18447  22543228.1134   22543225.3754
     -2190.7154
  19619521.51649  15273823.30146  24618102.9734   24618100.2274
     -3810.5494
  -4098026.28549  -3187019.36347  24064651.8944   24064647.4264
      1665.5274
  -2933546.49249  -2282748.10248  21803952.0044   21803949.7664
     -1162.5254
  -6434183.41449  -5483455.60247  22841846.2624   22841843.7664
      1486.0094
 04  9 10 16 31 30.0040000  0  6G 1G11G14G23G25G20
  -4608388.77349  -3588124.55548  21696632.9884   21696630.7344
      -264.2424
   2609821.24249   2034334.12947  22549505.8324   22549503.1294
     -2199.3744
  19676693.20749  15318372.62546  24628982.5124   24628980.2694
     -3811.4464
  -4122961.21549  -3206449.15247  24059906.7234   24059903.0234
      1662.3294
  -2915972.55549  -2269054.13348  21807296.2934   21807293.7274
     -1171.5964
  -6456419.73049  -5500782.60547  22837614.9184   22837612.1294
      1482.4214
 04  9 10 16 31 45.0040000  0  6G 1G11G14G23G25G20
  -4604346.85249  -3584975.00448  21697402.3554   21697399.7154
      -269.4614
   2642940.61349   2060141.40647  22555808.5434   22555805.4374
     -2207.9584
  19733877.27349  15362931.59846  24639863.7464   24639862.5314
     -3812.2714
  -4147849.02349  -3225842.24247  24055170.6444   24055166.4614
      1659.1874
  -2898263.58649  -2255254.94148  21810666.2774   21810663.6174
     -1180.5984
  -6478603.18049  -5518068.40247  22833393.1214   22833390.4614
      1478.8974
 04  9 10 16 32  0.0040000  0  6G 1G11G14G23G25G20
  -4600225.77349  -3581763.77048  21698186.6374   21698184.3324
      -274.7394
   2676189.55149   2086049.65247  22562135.4494   22562132.4414
     -2216.5964
  19791074.55949  15407500.86346  24650749.0124   24650747.2074
     -3813.1524
  -4172688.83249  -3245197.92647  24050443.5664   24050438.9924
      1655.9874
  -2880418.56649  -2241349.74248  21814062.3944   21814059.2504
     -1189.6684
  -6500732.45749  -5535311.98047  22829182.4184   22829179.4024
      1475.2854
 04  9 10 16 32 15.0040000  0  6G 1G11G14G23G25G20
  -4596025.59049  -3578490.90648  21698985.8484   21698983.2934
      -280.0124
   2709567.77749   2112058.64147  22568487.1994   22568484.5554
     -2225.2154
  19848284.83249  15452080.26646  24661635.8094   24661633.4224
     -3814.0184
  -4197480.63749  -3264516.18047  24045725.4964   24045721.3634
      1652.7874
  -2862437.60549  -2227338.60948  21817483.8634   21817481.3484
     -1198.7314
  -6522807.46149  -5552513.28147  22824981.5744   22824978.8714
      1471.6674
 04  9 10 16 32 30.0040000  0  6G 1G11G14G23G25G20
  -4591745.79349  -3575156.00448  21699800.2234   21699797.4734
      -285.3204
   2743075.84449   2138168.81347  22574863.5984   22574860.6644
     -2233.8714
  19905508.62549  15496670.19946  24672524.5744   24672522.8874
     -3814.9204
  -4222223.80149  -3283796.53947  24041017.3874   24041013.6804
      1649.5444
  -2844320.49649  -2213221.36748  21820931.3324   21820928.9654
     -1207.8074
  -6544827.38749  -5569671.66047  22820791.2854   22820788.7114
      1467.9954
 04  9 10 16 32 45.0040000  0  6G 1G11G14G23G25G20
  -4587388.14149  -3571760.43448  21700629.4654   21700626.8204
      -290.5104
   2776711.54349   2164378.44147  22581264.3554   22581261.5784
     -2242.3804
  19962744.05949  15541269.18046  24683416.9344   24683413.8874
     -3815.6964
  -4246920.00849  -3303040.30947  24036317.7774   24036314.1094
      1646.4144
  -2826068.84849  -2198999.31248  21824404.5904   21824401.6174
     -1216.7774
  -6566793.77049  -5586788.30947  22816611.2074   22816608.2974
      1464.4264
 04  9 10 16 33  0.0040000  0  6G 1G11G14G23G25G20
  -4582951.09449  -3568303.00048  21701473.5824   21701471.4614
      -295.8034
   2810476.52049   2190688.80147  22587689.3164   22587686.5474
     -2250.9984
  20019992.65649  15585878.44146  24694310.2624   24694308.2974
     -3816.5734
  -4271567.56249  -3322246.18747  24031627.5514   24031623.7424
      1643.1704
  -2807681.21149  -2184671.29348  21827903.6764   21827900.6844
     -1225.8424
  -6588704.73449  -5603861.78547  22812441.3874   22812439.0314
      1460.7314
 04  9 10 16 33 15.0040000  0  6G 1G11G14G23G25G20
  -4578434.57449  -3564783.63348  21702332.9344   21702330.8674
      -301.1014
   2844370.56649   2217099.73047  22594139.1914   22594136.5864
     -2259.6034
  20077254.45349  15630497.98046  24705207.3944   24705205.0004
     -3817.4534
  -4296166.24649  -3341413.96547  24026946.4414   24026943.3914
      1639.9124
  -2789157.58249  -2170237.28948  21831428.7854   21831425.4454
     -1234.9094
  -6610559.87549  -5620891.76247  22808282.7074   22808279.6214
      1457.0094
 04  9 10 16 33 30.0040000  0  6G 1G11G14G23G25G20
  -4573840.85249  -3561204.10248  21703207.2934   21703204.9344
      -306.2484
   2878391.44149   2243609.50047  22600613.1914   22600610.3984
     -2268.0584
  20134527.17649  15675126.03946  24716105.5044   24716103.3634
     -3818.1824
  -4320718.17649  -3360545.33647  24022274.5824   24022271.2154
      1636.7954
  -2770500.15249  -2155699.03548  21834979.1374   21834975.8834
     -1243.8294
  -6632361.15649  -5637879.77347  22804134.1054   22804131.1134
      1453.4194
 04  9 10 16 33 45.0040000  0  6G 1G11G14G23G25G20
  -4569169.28149  -3557563.91848  21704096.2854   21704094.5944
      -311.4384
   2912539.59049   2270218.42647  22607111.3244   22607108.5314
     -2276.5434
  20191811.27349  15719762.95746  24727007.3634   24727004.8674
     -3818.9404
  -4345222.67649  -3379639.71147  24017611.7464   24017607.9454
      1633.6334
  -2751708.29349  -2141056.03548  21838555.1524   21838552.1214
     -1252.7914
  -6654107.71549  -5654825.15247  22799995.8164   22799992.9694
      1449.7714
 04  9 10 16 34  0.0040000  0  6G 1G11G14G23G25G20
  -4564420.46949  -3553863.53948  21704999.7384   21704998.1844
      -316.5874
   2946814.32049   2296925.99647  22613633.5354   22613630.7154
     -2284.9824
  20249106.24649  15764408.33246  24737909.5984   24737907.7774
     -3819.6654
  -4369680.19149  -3398697.50047  24012957.6214   24012953.3674
      1630.5014
  -2732782.60249  -2126308.74248  21842156.3554   21842153.4064
     -1261.7134
  -6675799.82849  -5671728.09847  22795867.5984   22795865.2154
      1446.1414
 04  9 10 16 34 15.0040000  0  6G 1G11G14G23G25G20
  -4559594.31649  -3550102.90248  21705918.1054   21705915.8794
      -321.7434
   2981215.57849   2323732.15247  22620180.0594   22620177.4344
     -2293.4174
  20306412.23449  15809062.29346  24748814.3874   24748812.5744
     -3820.3994
  -4394090.44549  -3417718.45747  24008312.2234   24008308.2544
      1627.3504
  -2713723.20749  -2111457.27048  21845783.3634   21845780.6094
     -1270.6264
  -6697437.11349  -5688588.31247  22791750.4964   22791747.9574
      1442.4864
 04  9 10 16 34 30.0040000  0  6G 1G11G14G23G25G20
  -4554690.84049  -3546282.02348  21706851.3164   21706848.8554
      -326.8984
   3015743.25049   2350636.81647  22626750.5664   22626748.4614
     -2301.8454
  20363729.00849  15853724.71146  24759721.6684   24759718.9804
     -3821.1184
  -4418453.44949  -3436702.59047  24003676.1994   24003672.2504
      1624.2004
  -2694530.08249  -2096501.59048  21849435.7074   21849432.8834
     -1279.5424
  -6719019.43449  -5705405.70347  22787643.3874   22787640.2894
      1438.8214
 04  9 10 16 34 45.0040000  0  6G 1G11G14G23G25G20
  -4549709.77749  -3542400.68048  21707799.0274   21707796.8944
      -332.0714
   3050397.38749   2377640.02347  22633344.7464   22633342.6334
     -2310.2764
  20421056.81649  15898395.69146  24770630.6684   24770628.0594
     -3821.8544
  -4442768.83249  -3455649.62947  23999048.4574   23999043.9494
      1621.0264
  -2675202.98049  -2081441.51648  21853113.4184   21853110.4374
     -1288.4734
  -6740546.07049  -5722179.70347  22783547.0194   22783543.9734
      1435.1094
 04  9 10 16 35  0.0040000  0  6G 1G11G14G23G25G20
  -4544651.17649  -3538458.91048  21708761.9964   21708759.8014
      -337.2404
   3085177.82049   2404741.65647  22639962.9024   22639960.8754
     -2318.6964
  20478395.61749  15943075.23046  24781542.6604   24781539.5744
     -3822.5874
  -4467036.41449  -3474559.40247  23994431.0744   23994426.5044
      1617.8394
  -2655742.02349  -2066277.14148  21856816.7154   21856813.8794
     -1297.3974
  -6762016.78149  -5738910.12947  22779461.5194   22779458.3674
      1431.3814
 04  9 10 16 35 15.0040000  0  6G 1G11G14G23G25G20
  -4539514.50449  -3534456.31648  21709739.4414   21709737.2774
      -342.4454
   3120085.05549   2431942.07847  22646605.9574   22646603.4574
     -2327.1494
  20535745.92249  15987763.73846  24792455.9104   24792452.9694
     -3823.3544
  -4491255.60549  -3493431.48847  23989821.6374   23989818.1604
      1614.6134
  -2636146.59849  -2051007.97348  21860545.4574   21860542.6804
     -1306.3624
  -6783430.84449  -5755596.41447  22775386.6294   22775383.1724
      1427.6044
 04  9 10 16 35 30.0040000  0  6G 1G11G14G23G25G20
  -4534300.61749  -3530393.55548  21710731.5744   21710728.9844
      -347.5924
   3155117.99249   2459240.46147  22653272.5434   22653270.4144
     -2335.5294
  20593106.80149  16032460.48046  24803371.0744   24803368.4264
     -3824.0594
  -4515427.19149  -3512266.46947  23985222.6444   23985218.0124
      1611.4394
  -2616417.57849  -2035634.71948  21864300.1214   21864296.7734
     -1315.2684
  -6804788.69549  -5772238.89147  22771322.1844   22771319.2074
      1423.8574
 04  9 10 16 35 45.0040000  0  6G 1G11G14G23G25G20
  -4529009.06249  -3526270.26248  21711738.5664   21711736.1914
      -352.7704
   3190276.71949   2486636.86347  22659962.9184   22659960.6524
     -2343.9154
  20650478.64149  16077165.75046  24814288.2694   24814287.1174
     -3824.7894
  -4539550.50449  -3531063.84847  23980631.6914   23980628.1684
      1608.2214
  -2596554.66849  -2020157.13748  21868079.8014   21868076.6214
     -1324.1944
  -6826089.73449  -5788837.09447  22767268.6134   22767266.0864
      1420.0694
 04  9 10 16 36  0.0040000  0  6G 1G11G14G23G25G20
  -4523641.65649  -3522087.87548  21712759.9104   21712757.3914
      -357.8274
   3225559.65649   2514130.03947  22666677.1994   22666674.7194
     -2352.1964
  20707859.62949  16121878.19146  24825208.1524   24825206.9064
     -3825.3994
  -4563627.29349  -3549824.96947  23976050.4804   23976046.1134
      1605.1194
  -2576559.68449  -2004576.62948  21871884.5664   21871881.5984
     -1332.9994
  -6847335.41449  -5805392.16447  22763225.8634   22763223.4734
      1416.3794
 04  9 10 16 36 15.0040000  0  6G 1G11G14G23G25G20
  -4518197.28949  -3517845.51248  21713796.1134   21713793.7584
      -362.9584
   3260967.80549   2541720.78547  22673414.9494   22673412.6764
     -2360.5434
  20765250.96149  16166598.66846  24836128.5354   24836128.4494
     -3826.0894
  -4587656.38349  -3568548.94547  23971477.5664   23971473.4454
      1601.9394
  -2556431.54349  -1988892.36748  21875714.5904   21875711.9184
     -1341.8764
  -6868524.21949  -5821902.91447  22759193.9184   22759191.1604
      1412.5874
 04  9 10 16 36 30.0040000  0  6G 1G11G14G23G25G20
  -4512675.27749  -3513542.64848  21714846.8014   21714844.5434
      -368.1344
   3296501.56649   2569409.41047  22680176.8554   22680174.5514
     -2368.9174
  20822653.10249  16211327.55546  24847052.0664   24847052.1374
     -3826.8094
  -4611636.94149  -3587235.08647  23966914.5124   23966909.4694
      1598.7044
  -2536169.67649  -1973103.91048  21879570.4964   21879567.5164
     -1350.7914
  -6889655.33249  -5838368.70747  22755173.0274   22755169.9264
      1408.7414
 04  9 10 16 36 45.0040000  0  6G 1G11G14G23G25G20
  -4507075.21549  -3509178.96948  21715912.5434   21715910.6294
      -373.3374
   3332161.14149   2597196.09047  22686962.8794   22686960.5394
     -2377.3054
  20880066.52749  16256065.26246  24857977.9494   24857977.6874
     -3827.5624
  -4635568.39849  -3605882.96147  23962361.2694   23962356.6644
      1595.4304
  -2515773.75449  -1957210.98848  21883451.8874   21883448.2154
     -1359.7284
  -6910727.89549  -5854788.89547  22751163.1214   22751159.4184
      1404.8384
 04  9 10 16 37  0.0040000  0  6G 1G11G14G23G25G20
  -4501398.73049  -3504755.73848  21716992.7464   21716990.2814
      -378.4324
   3367944.72749   2625079.40247  22693772.2234   22693769.6414
     -2385.5724
  20937489.52749  16300810.41446  24868904.9104   24868903.8164
     -3828.2004
  -4659452.38749  -3624493.84047  23957815.5744   23957811.7624
      1592.2664
  -2495245.36749  -1941214.84448  21887358.2234   21887355.2584
     -1368.5594
  -6931743.41049  -5871164.62947  22747163.8874   22747160.2934
      1401.0344
 04  9 10 16 37 15.0040000  0  6G 1G11G14G23G25G20
  -4495645.63749  -3500272.81648  21718087.2234   21718084.6844
      -383.5404
   3403852.51249   2653059.48847  22700604.9734   22700603.0194
     -2393.8524
  20994922.28149  16345563.18046  24879833.6764   24879831.9344
     -3828.8504
  -4683288.59049  -3643067.48447  23953280.1444   23953275.5004
      1589.0804
  -2474584.35549  -1925115.35248  21891289.7774   21891286.9534
     -1377.4014
  -6952701.32849  -5887495.46947  22743175.4964   22743172.3484
      1397.1954
 04  9 10 16 37 30.0040000  0  6G 1G11G14G23G25G20
  -4489817.60249  -3495731.48448  21719195.9104   21719193.9924
      -388.5364
   3439882.70349   2681134.95347  22707461.5744   22707459.6024
     -2402.0134
  21052363.02749  16390322.16046  24890763.8324   24890762.3444
     -3829.3834
  -4707078.56249  -3661605.12547  23948753.3094   23948748.4224
      1585.9984
  -2453792.23049  -1908913.70748  21895247.0434   21895243.4654
     -1386.1424
  -6973602.92649  -5903782.42247  22739198.1764   22739195.0084
      1393.4404
 04  9 10 16 37 45.0040000  0  6G 1G11G14G23G25G20
  -4483911.93749  -3491129.66848  21720320.2854   21720317.9104
      -393.7114
   3476037.81649   2709307.74647  22714341.8874   22714339.5274
     -2410.3414
  21109814.50049  16435089.50446  24901696.5274   24901695.5554
     -3830.0984
  -4730819.37949  -3680104.46147  23944234.7464   23944230.3834
      1582.7214
  -2432866.59049  -1892608.01648  21899228.4344   21899225.7034
     -1395.0434
  -6994445.30149  -5920023.21547  22735232.0274   22735228.6134
      1389.4924
 04  9 10 16 38  0.0040000  0  6G 1G11G14G23G25G20
  -4477928.58649  -3486467.31648  21721458.6844   21721456.7234
      -398.8904
   3512317.73449   2737577.79347  22721245.6604   22721243.1804
     -2418.6614
  21167276.68449  16479865.17646  24912632.0044   24912630.7544
     -3830.8124
  -4754510.94149  -3698565.40247  23939726.6764   23939721.7344
      1579.4384
  -2411807.39549  -1876198.25448  21903236.0664   21903233.2734
     -1403.9464
  -7015228.04349  -5936217.56647  22731277.3244   22731273.3984
      1385.5164
 04  9 10 16 38 15.0040000  0  6G 1G11G14G23G25G20
  -4471867.82449  -3481744.64548  21722612.1764   21722609.8834
      -404.0514
   3548722.01249   2765944.74247  22728173.0434   22728170.5164
     -2426.9524
  21224749.35949  16524649.01246  24923568.7854   24923567.4374
     -3831.5124
  -4778153.48449  -3716988.16047  23935228.0124   23935222.8124
      1576.1704
  -2390614.97349  -1859684.68448  21907268.7154   21907266.1764
     -1412.8284
  -7035951.28149  -5952365.53547  22727333.9654   22727330.2344
      1381.5494
 04  9 10 16 38 30.0040000  0  6G 1G11G14G23G25G20
  -4465729.82049  -3476961.79348  21723780.2074   21723777.5124
      -409.2004
   3585250.33649   2794408.35947  22735124.2774   22735121.4884
     -2435.2224
  21282232.34849  16569440.88746  24934507.2544   24934506.4144
     -3832.1994
  -4801746.95349  -3735372.65247  23930737.5194   23930733.5194
      1572.8984
  -2369289.52349  -1843067.45348  21911326.9414   21911323.4414
     -1421.6974
  -7056614.84049  -5968467.00447  22723401.5354   22723398.3124
      1377.5714
 04  9 10 16 38 45.0040000  0  6G 1G11G14G23G25G20
  -4459515.25849  -3472119.28948  21724963.0274   21724960.4024
      -414.3044
   3621901.81349   2822967.93447  22742098.5984   22742096.4534
     -2443.4324
  21339724.66849  16614240.05946  24945448.1764   24945446.4104
     -3832.8214
  -4825291.89549  -3753719.34047  23926256.7464   23926253.5124
      1569.6634
  -2347831.75449  -1826347.10548  21915409.9884   21915406.9104
     -1430.5184
  -7077219.02049  -5984522.18747  22719480.5594   22719477.6414
      1373.6124
 04  9 10 16 39  0.0040000  0  6G 1G11G14G23G25G20
  -4453223.23049  -3467216.41048  21726160.1764   21726157.6054
      -419.4684
   3658677.31349   2851624.16047  22749096.5594   22749095.0354
     -2451.7004
  21397227.43849  16659047.39546  24956389.9964   24956388.7154
     -3833.5184
  -4848787.39849  -3772027.49647  23921785.9184   23921782.0944
      1566.3674
  -2326240.93749  -1809523.10248  21919518.5904   21919515.5624
     -1439.3884
  -7097762.61749  -6000530.18047  22715571.1994   22715568.2384
      1369.5734
 04  9 10 16 39 15.0040000  0  6G 1G11G14G23G25G20
  -4446854.26649  -3462253.58248  21727371.9884   21727369.0004
      -424.5984
   3695576.08649   2880376.42647  22756118.0594   22756116.2814
     -2459.9184
  21454739.94949  16703862.29346  24967334.4264   24967333.4734
     -3834.1674
  -4872233.84449  -3790297.45747  23917324.4264   23917320.4694
      1563.0964
  -2304517.72749  -1792595.92648  21923652.3244   21923649.6094
     -1448.2144
  -7118245.93449  -6016491.20347  22711673.4654   22711670.1684
      1365.5544
 04  9 10 16 39 30.0040000  0  6G 1G11G14G23G25G20
  -4440409.39549  -3457231.60548  21728598.2624   21728596.3014
      -429.6584
   3732596.95749   2909223.84847  22763163.2934   22763160.9224
     -2468.0584
  21512261.24249  16748684.00846  24978279.9734   24978279.9414
     -3834.7534
  -4895632.18449  -3808529.94147  23912871.6684   23912867.9064
      1559.8894
  -2282663.08649  -1775566.34448  21927811.4024   21927808.4344
     -1456.9764
  -7138669.63749  -6032405.77047  22707787.1054   22707783.2894
      1361.5804
 04  9 10 16 39 45.0040000  0  6G 1G11G14G23G25G20
  -4433888.28549  -3452150.22748  21729839.3164   21729837.0164
      -434.7414
   3769740.24249   2938166.66047  22770231.1054   22770229.4374
     -2476.2194
  21569791.57049  16793512.78946  24989227.7934   24989227.5864
     -3835.3554
  -4918981.93749  -3826724.53947  23908428.6134   23908424.2074
      1556.6504
  -2260676.78549  -1758434.16848  21931994.6994   21931991.9494
     -1465.7534
  -7159033.10249  -6048273.40647  22703911.9494   22703908.5824
      1357.5644
 04  9 10 16 40  0.0040000  0  6G 1G11G14G23G25G20
  -4427290.12149  -3447008.80148  21731094.9264   21731092.4494
      -439.8784
   3807006.39849   2967205.20347  22777323.2544   22777320.3404
     -2484.4104
  21627331.71549  16838349.21946  25000177.8324   25000177.0704
     -3836.0104
  -4942282.23449  -3844880.60547  23903994.3874   23903990.9454
      1553.3534
  -2238558.05149  -1741198.79348  21936203.9884   21936201.2464
     -1474.5824
  -7179335.39849  -6064093.37547  22700048.2544   22700045.7774
      1353.4864
 04  9 10 16 40 15.0040000  0  6G 1G11G14G23G25G20
  -4420616.33249  -3441808.44948  21732365.2934   21732362.9064
      -444.9194
   3844394.02349   2996338.39847  22784437.7544   22784435.2304
     -2492.5084
  21684880.17649  16883192.15646  25011129.1844   25011129.2624
     -3836.5644
  -4965534.21549  -3862998.99647  23899569.4104   23899566.5904
      1550.1324
  -2216308.37949  -1723861.38748  21940438.1914   21940435.0944
     -1483.3114
  -7199577.53949  -6079866.45747  22696196.3554   22696193.6914
      1349.4764
 04  9 10 16 40 30.0040000  0  6G 1G11G14G23G25G20
  -4413866.16049  -3436548.57848  21733649.6444   21733647.6174
      -450.0114
   3881903.60249   3025566.63347  22791575.7544   22791572.6294
     -2500.6394
  21742437.75849  16928042.17646  25022082.0824   25022082.2854
     -3837.1724
  -4988737.16849  -3881079.20347  23895154.5434   23895151.2344
      1546.8644
  -2193927.04349  -1706421.38348  21944697.2384   21944693.9804
     -1492.0894
  -7219758.52349  -6095591.87947  22692355.9494   22692353.3524
      1345.3994
 04  9 10 16 40 45.0040000  0  6G 1G11G14G23G25G20
  -4407040.80949  -3431230.12948  21734948.4734   21734946.4064
      -455.0234
   3919533.75849   3054888.81347  22798735.7934   22798733.3324
     -2508.6774
  21800003.32049  16972898.41446  25033036.4104   25033035.9264
     -3837.7044
  -5011892.07049  -3899122.00047  23890748.4884   23890744.7274
      1543.6604
  -2171415.18049  -1688879.67248  21948981.1134   21948978.3794
     -1500.7914
  -7239879.03549  -6111270.18747  22688527.1214   22688524.5274
      1341.3674
 04  9 10 16 41  0.0040000  0  6G 1G11G14G23G25G20
  -4400140.18049  -3425853.02048  21736261.4574   21736259.1994
      -460.0424
   3957284.50849   3084304.95747  22805920.0664   22805917.3204
     -2516.7174
  21857576.87149  17017760.86346  25043992.0434   25043991.4774
     -3838.2374
  -5034998.89549  -3917127.32047  23886350.6444   23886347.6874
      1540.4554
  -2148772.77049  -1671236.24248  21953289.8164   21953286.7464
     -1509.4944
  -7259938.81249  -6126901.18447  22684709.6844   22684707.2814
      1337.3184
 04  9 10 16 41 15.0040000  0  6G 1G11G14G23G25G20
  -4393164.00449  -3420417.03548  21737589.0664   21737586.8634
      -465.0784
   3995155.96149   3113815.16847  22813126.7934   22813123.9694
     -2524.7644
  21915158.58649  17062629.71146  25054949.9964   25054948.1134
     -3838.7814
  -5058057.00849  -3935094.66047  23881962.8714   23881959.4494
      1537.2084
  -2125999.68749  -1653490.98848  21957623.4344   21957620.4964
     -1518.2054
  -7279937.26249  -6142484.38747  22680904.5744   22680901.5044
      1333.2304
 04  9 10 16 41 30.0040000  0  6G 1G11G14G23G25G20
  -4386114.43749  -3414923.86348  21738930.7074   21738928.6874
      -469.9714
   4033145.81649   3143417.63747  22820356.0514   22820353.5944
     -2532.6574
  21972746.35949  17107503.26246  25065907.8484   25065906.3674
     -3839.1854
  -5081068.58249  -3953025.77047  23877583.9494   23877580.3524
      1534.1054
  -2103098.09849  -1635645.59848  21961981.3634   21961978.5194
     -1526.7734
  -7299876.18449  -6158021.21947  22677110.3794   22677107.3204
      1329.2614
 04  9 10 16 41 45.0040000  0  6G 1G11G14G23G25G20
  -4378989.21149  -3409371.74248  21740286.5274   21740284.3754
      -475.0154
   4071256.12549   3173113.97347  22827608.1134   22827605.8944
     -2540.6874
  22030342.46949  17152383.29746  25076868.5744   25076866.2734
     -3839.7414
  -5104031.22349  -3970918.71547  23873214.6684   23873211.4344
      1530.8434
  -2080065.81249  -1617698.37148  21966364.0744   21966361.2854
     -1535.4864
  -7319753.05949  -6173509.69547  22673327.8554   22673324.9694
      1325.1254
 04  9 10 16 42  0.0040000  0  6G 1G11G14G23G25G20
  -4371787.46149  -3403759.98448  21741656.9494   21741654.8404
      -480.1174
   4109487.63749   3202904.76247  22834883.3874   22834881.3284
     -2548.7674
  22087947.68049  17197270.41446  25087830.7154   25087828.8244
     -3840.3474
  -5126943.96949  -3988772.78947  23868854.7464   23868851.2424
      1527.5164
  -2056902.14549  -1599648.77048  21970772.2624   21970768.9804
     -1544.2454
  -7339566.77749  -6188948.95347  22669556.9884   22669554.7894
      1320.9154
 04  9 10 16 42 15.0040000  0  6G 1G11G14G23G25G20
  -4364511.07449  -3398090.08248  21743041.6604   21743039.1094
      -485.0924
   4147838.31649   3232788.39147  22842181.2624   22842178.6684
     -2556.7124
  22145560.10949  17242163.18446  25098793.5984   25098793.1254
     -3840.8294
  -5149808.50449  -4006589.28947  23864503.3484   23864500.5554
      1524.3024
  -2033608.96149  -1581498.24248  21975204.6994   21975201.7734
     -1552.8794
  -7359318.87149  -6204340.18047  22665798.5354   22665795.8484
      1316.8064
 04  9 10 16 42 30.0040000  0  6G 1G11G14G23G25G20
  -4357159.64149  -3392361.68748  21744440.5354   21744437.9104
      -490.0964
   4186308.48049   3262765.11747  22849502.3634   22849499.3594
     -2564.6784
  22203180.27749  17287061.98446  25109758.4344   25109758.3524
     -3841.3454
  -5172624.38749  -4024367.89547  23860162.3244   23860158.1914
      1521.0594
  -2010186.01249  -1563246.59448  21979661.9494   21979659.4924
     -1561.5304
  -7379008.55549  -6219682.78547  22662052.0044   22662048.8754
      1312.6464
 04  9 10 16 42 45.0040000  0  6G 1G11G14G23G25G20
  -4349733.65249  -3386575.20748  21745853.6374   21745850.7814
      -495.0664
   4224897.25849   3292834.27747  22856845.3094   22856842.7584
     -2572.5854
  22260807.49249  17331966.25046  25120724.1524   25120724.7894
     -3841.8144
  -5195392.05549  -4042108.93447  23855829.3484   23855825.5474
      1517.8454
  -1986633.76649  -1544894.20748  21984144.0274   21984141.0354
     -1570.1504
  -7398636.06249  -6234976.95347  22658316.7304   22658313.9734
      1308.5014
 04  9 10 16 43  0.0040000  0  6G 1G11G14G23G25G20
  -4342232.78949  -3380730.37948  21747281.1604   21747278.9574
      -500.0584
   4263604.93049   3322996.07847  22864210.8714   22864208.5824
     -2580.5114
  22318442.06349  17376876.27746  25131691.7624   25131692.1914
     -3842.3054
  -5218111.02049  -4059812.02347  23851505.9494   23851501.9064
      1514.5984
  -1962951.98449  -1526440.86348  21988650.4964   21988647.7814
     -1578.7854
  -7418200.85949  -6250222.25047  22654593.6844   22654591.2114
      1304.3204
 04  9 10 16 43 15.0040000  0  6G 1G11G14G23G25G20
  -4334657.68749  -3374827.70748  21748722.3634   21748720.0124
      -505.0074
   4302430.59849   3353249.84047  22871599.3324   22871596.8874
     -2588.3784
  22376083.32449  17421791.55146  25142661.0354   25142660.1524
     -3842.7514
  -5240781.84049  -4077477.59447  23847192.0434   23847187.3094
      1511.3884
  -1939141.37149  -1507887.15248  21993181.4104   21993179.0004
     -1587.3744
  -7437703.21149  -6265418.87147  22650882.6214   22650879.7274
      1300.1574
 04  9 10 16 43 30.0040000  0  6G 1G11G14G23G25G20
  -4327007.45749  -3368866.48848  21750178.2464   21750175.6954
      -510.0154
   4341375.12549   3383596.21547  22879010.4024   22879008.0944
     -2596.3024
  22433732.17649  17466712.67246  25153631.5904   25153629.5354
     -3843.2574
  -5263403.47749  -4095104.84447  23842887.1604   23842883.0004
      1508.1094
  -1915201.05549  -1489232.36348  21997736.4184   21997734.3794
     -1596.0214
  -7457141.95749  -6280565.94947  22647183.5434   22647180.3124
      1295.9164
 04  9 10 16 43 45.0040000  0  6G 1G11G14G23G25G20
  -4319282.06249  -3362846.71148  21751648.3484   21751646.1094
      -515.0264
   4380438.31349   3414035.03947  22886443.3164   22886441.2544
     -2604.2124
  22491388.64849  17511639.78146  25164603.2074   25164600.9844
     -3843.7654
  -5285975.75449  -4112693.62547  23838591.9344   23838587.9104
      1504.8184
  -1891131.11349  -1470476.56648  22002317.4964   22002314.4304
     -1604.6634
  -7476516.72749  -6295663.16447  22643496.6134   22643493.5394
      1291.6514
 04  9 10 16 44  0.0040000  0  6G 1G11G14G23G25G20
  -4311482.55149  -3356769.17248  21753132.4964   21753129.9964
      -519.9674
   4419619.01249   3444565.44547  22893899.6914   22893897.0704
     -2612.0474
  22549051.60549  17556571.91446  25175575.7854   25175574.2234
     -3844.1974
  -5308499.64549  -4130244.69147  23834306.2544   23834302.0194
      1501.5934
  -1866932.72349  -1451620.68448  22006922.1994   22006919.5434
     -1613.2264
  -7495828.21549  -6310711.08647  22639821.8404   22639818.8634
      1287.4334
 04  9 10 16 44 15.0040000  0  6G 1G11G14G23G25G20
  -4303608.19949  -3350633.30548  21754631.0824   21754628.7894
      -524.9574
   4458917.66049   3475187.75047  22901377.9964   22901375.6524
     -2619.9104
  22606721.95349  17601509.75446  25186549.8094   25186548.6724
     -3844.6904
  -5330974.28949  -4147757.40247  23830029.6444   23830024.9374
      1498.3104
  -1842605.12549  -1432664.12148  22011551.5514   22011548.9304
     -1621.8404
  -7515075.37549  -6325708.86747  22636158.9024   22636156.3014
      1283.1444
 04  9 10 16 44 30.0040000  0  6G 1G11G14G23G25G20
  -4295659.26649  -3344439.32848  21756143.4884   21756141.7694
      -529.9294
   4498333.87549   3505901.66447  22908878.6994   22908876.2974
     -2627.7484
  22664399.27349  17646453.09446  25197525.0824   25197523.9804
     -3845.1554
  -5353399.92249  -4165231.89547  23825761.6294   23825757.5664
      1495.0424
  -1818148.56649  -1413607.06648  22016205.3324   22016203.1764
     -1630.4374
  -7534258.11749  -6340656.45747  22632508.4884   22632505.9774
      1278.8494
 04  9 10 16 44 45.0040000  0  6G 1G11G14G23G25G20
  -4287635.41049  -3338186.97348  21757670.5434   21757668.3674
      -534.9244
   4537867.87549   3536707.35247  22916402.0354   22916399.1764
     -2635.6004
  22722083.99649  17691402.18446  25208502.5984   25208500.8794
     -3845.6484
  -5375775.87549  -4182667.68747  23821504.2854   23821498.9774
      1491.7304
  -1793562.93749  -1394449.44148  22020884.1054   22020881.1804
     -1639.0424
  -7553375.89149  -6355553.41847  22628870.8404   22628867.8674
      1274.5184
 04  9 10 16 45  0.0040000  0  6G 1G11G14G23G25G20
  -4279536.40249  -3331876.06248  21759211.7774   21759209.7194
      -539.9344
   4577519.70749   3567604.87947  22923947.6524   22923944.3754
     -2643.4554
  22779776.28549  17736357.21546  25219481.0984   25219480.0004
     -3846.1534
  -5398101.94949  -4200064.62147  23817254.9414   23817250.7464
      1488.4054
  -1768848.07049  -1375191.09848  22025587.1134   22025584.2384
     -1647.6584
  -7572428.16449  -6370399.34847  22625245.0514   22625242.1414
      1270.1524
 04  9 10 16 45 15.0040000  0  6G 1G11G14G23G25G20
  -4271361.28549  -3325505.83648  21760767.1524   21760764.8984
      -545.0084
   4617290.14149   3598594.82047  22931515.2774   22931512.2384
     -2651.3624
  22837477.13349  17781318.87946  25230461.7774   25230460.7274
     -3846.7234
  -5420377.03549  -4217421.81247  23813016.2464   23813011.6684
      1485.0064
  -1744003.01249  -1355831.32448  22030315.0124   22030311.9064
     -1656.3374
  -7591413.62549  -6385193.20747  22621632.2624   22621629.5474
      1265.6974
 04  9 10 16 45 30.0040000  0  6G 1G11G14G23G25G20
  -4263110.41049  -3319076.59448  21762337.4104   21762334.9924
      -550.0584
   4657178.77049   3629676.86347  22939105.6844   22939102.2974
     -2659.2424
  22895185.95349  17826286.73846  25241443.2154   25241442.6374
     -3847.2554
  -5442601.39849  -4234739.49247  23808787.3094   23808782.8404
      1481.6244
  -1719028.25849  -1336370.48448  22035067.5984   22035064.7424
     -1664.9844
  -7610332.38349  -6399935.09047  22618032.4184   22618029.6844
      1261.2514
 04  9 10 16 45 45.0040000  0  6G 1G11G14G23G25G20
  -4254785.82049  -3312589.90648  21763921.8404   21763919.3714
      -554.9734
   4697183.28949   3660849.18847  22946718.5194   22946715.3554
     -2666.9684
  22952900.76249  17871259.30146  25252425.9184   25252425.8164
     -3847.6544
  -5464776.99249  -4252019.15647  23804567.6214   23804563.0474
      1478.3734
  -1693925.97349  -1316810.27348  22039844.2464   22039841.4964
     -1673.4864
  -7629186.16049  -6414626.34047  22614444.4414   22614442.1094
      1256.9184
 04  9 10 16 46  0.0040000  0  6G 1G11G14G23G25G20
  -4246386.11749  -3306044.68448  21765520.0434   21765517.7854
      -559.9804
   4737304.85549   3692112.72347  22954353.4104   22954350.9534
     -2674.7714
  23010623.12949  17916237.72346  25263410.3794   25263409.8554
     -3848.1584
  -5486902.22349  -4269259.57447  23800356.5824   23800352.6444
      1475.0154
  -1668694.73849  -1297149.56248  22044645.8094   22044642.9024
     -1682.0824
  -7647973.23049  -6429265.60547  22610869.5514   22610866.5824
      1252.4714
 04  9 10 16 46 15.0040000  0  6G 1G11G14G23G25G20
  -4237911.81649  -3299441.32048  21767132.2854   21767130.3284
      -564.9534
   4777542.77349   3723466.91847  22962010.5664   22962007.7734
     -2682.5284
  23068352.32849  17961221.44946  25274395.4654   25274394.1684
     -3848.6134
  -5508977.48049  -4286461.05547  23796156.1374   23796151.6644
      1471.6844
  -1643335.16849  -1277388.87548  22049471.4344   22049468.7624
     -1690.6384
  -7666693.75449  -6443853.02347  22607306.9344   22607303.9064
      1248.0354
 04  9 10 16 46 30.0040000  0  6G 1G11G14G23G25G20
  -4229363.32049  -3292780.15648  21768759.5594   21768756.4494
      -569.9004
   4817896.55149   3754911.39547  22969689.5274   22969686.8914
     -2690.2524
  23126088.00049  18006210.24246  25285382.2464   25285380.5624
     -3849.0454
  -5531003.20349  -4303623.93747  23791964.8244   23791960.4884
      1468.3824
  -1617847.84049  -1257528.62148  22054321.5044   22054318.8094
     -1699.1554
  -7685347.84049  -6458388.67647  22603757.1374   22603754.0164
      1243.6064
 04  9 10 16 46 45.0040000  0  6G 1G11G14G23G25G20
  -4220741.04749  -3286061.50448  21770400.1524   21770397.2504
      -574.8184
   4858365.57849   3786445.69547  22977390.4024   22977387.6374
     -2697.9354
  23183829.69549  18051203.74646  25296369.6994   25296368.2624
     -3849.4464
  -5552979.60249  -4320748.40647  23787783.1214   23787778.6094
      1465.0934
  -1592233.22749  -1237569.18748  22059195.7464   22059192.9574
     -1707.6414
  -7703935.61749  -6472872.64147  22600219.6054   22600216.8714
      1239.1854
 04  9 10 16 47  0.0040000  0  6G 1G11G14G23G25G20
  -4212045.35249  -3279285.64848  21772054.8164   21772052.1054
      -579.7134
   4898949.15649   3818069.25847  22985113.0594   22985109.5474
     -2705.5724
  23241577.12149  18096201.71546  25307359.3094   25307357.6414
     -3849.8284
  -5574906.95349  -4337834.64147  23783610.0824   23783605.7234
      1461.8234
  -1566491.69149  -1217510.85948  22064094.3404   22064091.8524
     -1716.1024
  -7722457.27049  -6487305.09447  22596695.3404   22596692.3674
      1234.7774
 04  9 10 16 47 15.0040000  0  6G 1G11G14G23G25G20
  -4203275.99249  -3272452.37548  21773723.7074   21773720.8874
      -584.6244
   4939647.46549   3849782.21947  22992857.7304   22992855.4574
     -2713.2214
  23299330.46149  18141204.27046  25318349.4574   25318349.1214
     -3850.2234
  -5596784.95749  -4354882.41847  23779446.4494   23779442.4964
      1458.5344
  -1540623.19549  -1197353.60248  22069016.8094   22069014.2854
     -1724.5664
  -7740912.09049  -6501685.47747  22593183.9494   22593180.2734
      1230.3214
 04  9 10 16 47 30.0040000  0  6G 1G11G14G23G25G20
  -4194432.82449  -3265561.60948  21775406.2384   21775404.1844
      -589.5454
   4980460.51249   3881584.55947  23000624.5274   23000622.0084
     -2720.8704
  23357089.80549  18186211.49246  25329341.6374   25329340.4884
     -3850.6234
  -5618613.31649  -4371891.53147  23775293.1914   23775288.1914
      1455.2244
  -1514627.59449  -1177097.29348  22073963.9264   22073961.3054
     -1733.0404
  -7759299.61349  -6516013.43047  22589684.9654   22589681.1054
      1225.8354
 04  9 10 16 47 45.0040000  0  6G 1G11G14G23G25G20
  -4185516.23449  -3258613.60548  21777103.1844   21777101.1564
      -594.4394
   5021387.68049   3913475.83647  23008413.0594   23008410.4774
     -2728.4784
  23414854.88349  18231223.19946  25340333.7154   25340333.3674
     -3851.0054
  -5640392.15649  -4388862.06247  23771148.1054   23771143.6024
      1451.9234
  -1488505.33249  -1156742.28148  22078934.6444   22078931.9024
     -1741.4844
  -7777619.96149  -6530289.03147  22586198.6914   22586194.9574
      1221.3574
 04  9 10 16 48  0.0040000  0  6G 1G11G14G23G25G20
  -4176526.62149  -3251608.71948  21778814.0514   21778811.7034
      -599.3084
   5062428.40649   3945455.60247  23016222.5124   23016219.8874
     -2736.0484
  23472625.26649  18276239.09046  25351326.1524   25351326.5164
     -3851.3594
  -5662121.98449  -4405794.37547  23767013.4344   23767009.2154
      1448.6554
  -1462256.85549  -1136288.93748  22083929.5904   22083927.2034
     -1749.8984
  -7795873.20349  -6544512.33247  22582725.1994   22582721.9374
      1216.8834
 04  9 10 16 48 15.0040000  0  6G 1G11G14G23G25G20
  -4167464.45349  -3244547.28548  21780538.4024   21780536.1334
      -604.1454
   5103582.07849   3977523.39147  23024053.6764   23024050.7974
     -2743.5784
  23530400.55949  18321258.73446  25362320.3244   25362320.1764
     -3851.6864
  -5683802.91049  -4422688.59847  23762887.5594   23762883.8634
      1445.3954
  -1435882.70349  -1115737.66448  22088948.3714   22088945.5984
     -1758.2774
  -7814059.43049  -6558683.41447  22579264.0984   22579261.4224
      1212.4154
 04  9 10 16 48 30.0040000  0  6G 1G11G14G23G25G20
  -4158328.36749  -3237428.25848  21782276.4654   21782274.9804
      -609.0724
   5144849.87949   4009680.10547  23031906.6054   23031904.0664
     -2751.1874
  23588181.94149  18366283.16446  25373315.7304   25373315.2424
     -3852.0924
  -5705433.59449  -4439543.66047  23758771.2464   23758767.2774
      1442.0464
  -1409381.75849  -1095087.57848  22093991.3554   22093988.6764
     -1766.7304
  -7832177.02349  -6572801.01247  22575816.2774   22575813.4264
      1207.8404
 04  9 10 16 48 45.0040000  0  6G 1G11G14G23G25G20
  -4149119.13349  -3230252.22748  21784029.2234   21784027.0664
      -613.9494
   5186230.89549   4041925.03947  23039781.3404   23039778.6174
     -2758.7344
  23645968.60249  18411311.67646  25384312.6684   25384311.9104
     -3852.4444
  -5727014.66849  -4456360.07847  23754664.6684   23754661.2304
      1438.7384
  -1382754.98049  -1074339.43748  22099057.9884   22099055.7074
     -1775.1184
  -7850226.53949  -6586865.55547  22572381.4344   22572378.6094
      1203.3014
 04  9 10 16 49  0.0040000  0  6G 1G11G14G23G25G20
  -4139836.77749  -3223019.22748  21785795.5044   21785793.4804
      -618.8244
   5227724.68449   4074257.84847  23047677.0744   23047675.2034
     -2766.2534
  23703760.53549  18456344.28546  25395310.1764   25395308.7584
     -3852.7964
  -5748546.14149  -4473137.82047  23750567.4494   23750564.0664
      1435.4324
  -1356002.34049  -1053493.23048  22104149.1764   22104146.8404
     -1783.5094
  -7868207.62149  -6600876.77747  22568959.9494   22568957.1094
      1198.7394
 04  9 10 16 49 15.0040000  0  6G 1G11G14G23G25G20
  -4130480.22749  -3215728.41448  21787575.8014   21787574.0594
      -623.7704
   5269332.31349   4106679.34847  23055594.8094   23055592.4614
     -2773.8424
  23761558.84849  18501381.83646  25406309.4964   25406306.8094
     -3853.2214
  -5770026.75049  -4489875.93747  23746480.3554   23746476.2814
      1432.0414
  -1329122.82449  -1032548.16448  22109264.0194   22109261.7934
     -1791.9684
  -7886118.75849  -6614833.50047  22565552.1134   22565548.3674
      1194.0764
 04  9 10 16 49 30.0040000  0  6G 1G11G14G23G25G20
  -4121051.55949  -3208381.40248  21789370.3014   21789368.1254
      -628.5784
   5311051.52349   4139187.80947  23063533.9024   23063531.1994
     -2781.2814
  23819361.52349  18546422.87546  25417308.6524   25417307.7544
     -3853.5124
  -5791458.52349  -4506576.00447  23742401.7154   23742397.5944
      1428.7854
  -1302118.59449  -1011505.90248  22114402.5824   22114399.9614
     -1800.2824
  -7903961.84449  -6628737.20747  22562156.4884   22562152.8754
      1189.5394
 04  9 10 16 49 45.0040000  0  6G 1G11G14G23G25G20
  -4111549.19549  -3200976.96148  21791178.6764   21791176.6334
      -633.4914
   5352883.78949   4171784.36347  23071494.4264   23071491.7504
     -2788.8184
  23877170.01649  18591468.39146  25428309.2854   25428309.2504
     -3853.8994
  -5812839.73449  -4523236.66847  23738332.8794   23738328.1914
      1425.4144
  -1274988.18049   -990365.32848  22119565.4574   22119562.9224
     -1808.6944
  -7921734.98849  -6642586.41847  22558774.5594   22558771.1094
      1184.8764
 04  9 10 16 50  0.0040000  0  6G 1G11G14G23G25G20
  -4101973.65249  -3193515.50448  21793000.7544   21792998.8124
      -638.3704
   5394828.19949   4204468.28947  23079476.1844   23079473.9614
     -2796.2944
  23934983.77348  18636518.01646  25439309.8794   25439311.2154
     -3854.2514
  -5834170.75049  -4539858.23447  23734273.8094   23734269.0194
      1422.0684
  -1247732.21549   -969126.91448  22124752.0904   22124749.4064
     -1817.0644
  -7939438.33649  -6656381.24248  22555405.5434   22555401.9574
      1180.2234
 04  9 10 16 50 15.0040000  0  6G 1G11G14G23G25G20
  -4092324.86349  -3185996.97348  21794836.6604   21794834.9844
      -643.2534
   5436884.64849   4237239.52747  23087479.2154   23087477.0044
     -2803.7634
  23992802.83248  18681571.84046  25450312.4574   25450312.9774
     -3854.6044
  -5855451.46949  -4556440.60547  23730223.7464   23730219.5044
      1418.7154
  -1220350.75449   -947790.72348  22129962.4734   22129960.0904
     -1825.4314
  -7957071.60549  -6670121.43747  22552049.2074   22552046.8634
      1175.5514
 04  9 10 16 50 30.0040000  0  6G 1G11G14G23G25G20
  -4082603.47749  -3178421.85948  21796686.8794   21796684.7624
      -648.0924
   5479052.33249   4270097.45747  23095503.3944   23095501.0354
     -2811.1794
  24050626.77048  18726629.39546  25461316.4804   25461316.0944
     -3854.9294
  -5876682.30949  -4572984.11347  23726184.0274   23726179.4104
      1415.3894
  -1192844.43049   -926357.23448  22135197.0984   22135194.4574
     -1833.7554
  -7974635.11749  -6683807.26247  22548707.4494   22548704.4694
      1170.9014
 04  9 10 16 50 45.0040000  0  6G 1G11G14G23G25G20
  -4072809.13349  -3170789.91048  21798550.3014   21798548.4654
      -652.9564
   5521331.61349   4303042.32847  23103548.8014   23103546.4184
     -2818.6194
  24108455.84048  18771690.94946  25472321.3634   25472320.5704
     -3855.2714
  -5897862.93749  -4589488.49247  23722153.4654   23722148.7734
      1412.0424
  -1165213.03949   -904826.28148  22140454.9414   22140452.6334
     -1842.0934
  -7992128.07049  -6697438.12147  22545378.4494   22545375.4144
      1166.1974
 04  9 10 16 51  0.0040000  0  6G 1G11G14G23G25G20
  -4062942.32849  -3163101.49648  21800428.1684   21800426.0164
      -657.7874
   5563721.53949   4336073.42647  23111615.3554   23111612.6844
     -2825.9954
  24166289.55949  18816756.12546  25483326.4024   25483325.5274
     -3855.5814
  -5918993.62549  -4605953.94947  23718132.2934   23718127.6214
      1408.7134
  -1137457.03149   -883198.22348  22145736.7854   22145734.7074
     -1850.4014
  -8009550.64849  -6711014.16047  22542063.2854   22542060.0394
      1161.5054
 04  9 10 16 51 15.0040000  0  6G 1G11G14G23G25G20
  -4053002.70749  -3155356.34448  21802319.8404   21802317.5984
      -662.6414
   5606222.36749   4369190.93447  23119703.3714   23119700.7034
     -2833.3894
  24224128.28948  18861825.23846  25494333.6844   25494332.3054
     -3855.9154
  -5940073.91449  -4622380.16047  23714120.8874   23714116.4804
      1405.3534
  -1109576.41049   -861473.07848  22151041.9574   22151039.7894
     -1858.7084
  -8026902.23849  -6724534.87947  22538761.3094   22538758.3094
      1156.7734
 04  9 10 16 51 30.0040000  0  6G 1G11G14G23G25G20
  -4042991.94549  -3147555.74648  21804224.5354   21804222.5944
      -667.3844
   5648832.25849   4402393.42647  23127812.1524   23127809.6134
     -2840.6594
  24281970.19948  18906896.79746  25505340.3324   25505339.5044
     -3856.1274
  -5961105.42649  -4638768.34847  23710118.6764   23710114.7774
      1402.1014
  -1081572.83649   -839652.11348  22156371.2234   22156369.0314
     -1866.9054
  -8044184.25449  -6738001.38747  22535472.8714   22535469.9144
      1152.1344
 04  9 10 16 51 45.0040000  0  6G 1G11G14G23G25G20
  -4032908.03549  -3139698.16448  21806143.6604   21806141.4804
      -672.2614
   5691552.98049   4435682.28147  23135941.3484   23135939.0234
     -2848.0484
  24339817.39148  18951972.55546  25516347.2304   25516347.7854
     -3856.4794
  -5982086.09449  -4655116.89847  23706126.4414   23706122.0124
      1398.7114
  -1053444.49249   -817733.93048  22161724.0824   22161721.1724
     -1875.2234
  -8061394.32849  -6751411.82848  22532198.2694   22532194.8204
      1147.3384
 04  9 10 16 52  0.0040000  0  6G 1G11G14G23G25G20
  -4022752.52049  -3131784.77348  21808076.2304   21808073.7544
      -677.0344
   5734382.82849   4469056.16847  23144091.4344   23144088.8324
     -2855.3234
  24397668.26648  18997051.12146  25527355.1444   25527356.6724
     -3856.7254
  -6003017.27349  -4671426.89847  23702143.6054   23702138.5474
      1395.4124
  -1025192.99649   -795719.78548  22167099.7544   22167097.4614
     -1883.4334
  -8078533.74649  -6764767.21948  22528936.4104   22528933.8094
      1142.6284
 04  9 10 16 52 15.0040000  0  6G 1G11G14G23G25G20
  -4012525.20749  -3123815.43748  21810022.1764   21810020.2274
      -681.8214
   5777321.90249   4502515.17247  23152262.3554   23152259.8164
     -2862.6054
  24455523.20748  19042132.80146  25538365.8094   25538365.5394
     -3856.9964
  -6023898.63749  -4687698.07847  23698169.5904   23698164.6484
      1392.0914
   -996818.26249   -773609.61348  22172499.4654   22172496.7464
     -1891.6494
  -8095601.99249  -6778067.15247  22525688.4264   22525685.3834
      1137.8834
 04  9 10 16 52 30.0040000  0  5G 1G11G23G25G20
  -4002227.47349  -3115791.23848  21811981.9414   21811979.3284
      -686.5164
   5820368.50849   4536057.96947  23160453.5354   23160451.0124
     -2869.7744
  -6044731.52749  -4703931.48447  23694205.1994   23694200.3124
      1388.8594
   -968321.71949   -751404.51248  22177922.3634   22177919.4494
     -1899.7704
  -8112600.06649  -6791312.38748  22522453.5514   22522450.9734
      1133.2054
 04  9 10 16 52 45.0040000  0  5G 1G11G23G25G20
  -3991857.30149  -3107710.59048  21813955.1134   21813952.8524
      -691.3454
   5863524.41449   4569685.92247  23168666.0824   23168663.3944
     -2877.0604
  -6065513.69549  -4720125.36347  23690250.7234   23690245.8524
      1385.4784
   -939701.40649   -729102.98048  22183368.3324   22183365.5044
     -1908.0214
  -8129525.57449  -6804501.10248  22519233.0594   22519230.3094
      1128.3674
 04  9 10 16 53  0.0040000  0  5G 1G11G23G25G20
  -3981413.99649  -3099572.95348  21815942.5664   21815940.4844
      -696.2204
   5906790.09049   4603399.42247  23176899.3634   23176897.0434
     -2884.3784
  -6086244.52349  -4736279.26647  23686305.6214   23686300.6134
      1382.0554
   -910956.95349   -706704.71548  22188838.4494   22188835.4964
     -1916.2974
  -8146377.59449  -6817632.55147  22516026.5354   22516023.2234
      1123.4684
 04  9 10 16 53 15.0040000  0  5G 1G11G23G25G20
  -3970897.99249  -3091378.66848  21817943.5124   21817941.4374
      -701.0674
   5950164.97749   4637198.02347  23185153.4494   23185150.8284
     -2891.6594
  -6106924.12949  -4752393.22347  23682369.9884   23682365.7074
      1378.6404
   -882088.71549   -684209.98048  22194331.7624   22194329.4064
     -1924.5494
  -8163156.27349  -6830706.84448  22512833.2154   22512830.6604
      1118.5794
 04  9 10 16 53 30.0040000  0  5G 1G11G23G25G20
  -3960307.63349  -3083126.44948  21819958.7304   21819956.6844
      -706.0244
   5993650.57449   4671082.86347  23193428.4734   23193426.1334
     -2899.0404
  -6127550.90249  -4768466.02347  23678445.2934   23678440.6134
      1375.1184
   -853095.11349   -661617.57848  22199848.7074   22199846.8204
     -1932.9074
  -8179859.60949  -6843722.41848  22509654.6444   22509651.9774
      1113.5564
 04  9 10 16 53 45.0040000  0  5G 1G11G23G25G20
  -3949644.59049  -3074817.58248  21821988.1994   21821985.8794
      -710.8704
   6037244.96949   4705052.50447  23201724.5274   23201722.8444
     -2906.2934
  -6148126.33249  -4784498.80947  23674530.0594   23674525.7464
      1371.6954
   -823977.89549   -638928.84448  22205389.7544   22205387.2344
     -1941.1484
  -8196488.94549  -6856680.34848  22506490.4734   22506486.9844
      1108.6224
 04  9 10 16 54  0.0040000  0  5G 1G11G23G25G20
  -3938909.44949  -3066452.54748  21824031.1134   21824028.7034
      -715.6764
   6080947.40649   4739106.34047  23210040.5904   23210038.3834
     -2913.4964
  -6168650.91049  -4800491.97347  23670624.2934   23670619.6764
      1368.3054
   -794737.84449   -616144.39548  22210954.2624   22210951.7664
     -1949.3374
  -8213044.57049  -6869580.84447  22503340.0824   22503336.8094
      1103.7084
 04  9 10 16 54 15.0040000  0  5G 1G11G23G25G20
  -3928102.24249  -3058031.35548  21826087.3794   21826085.1724
      -720.4804
   6124757.56649   4773244.11747  23218377.4264   23218375.1414
     -2920.6774
  -6189124.61749  -4816445.49247  23666727.7464   23666723.7504
      1364.9144
   -765375.22349   -593264.43748  22216541.4804   22216539.1334
     -1957.5084
  -8229526.23449  -6882423.69947  22500203.6524   22500200.7074
      1098.7784
 04  9 10 16 54 30.0040000  0  5G 1G11G23G25G20
  -3917222.98449  -3049554.01248  21828157.7624   21828155.5784
      -725.2844
   6168675.25449   4807465.68447  23226734.2774   23226732.0274
     -2927.8464
  -6209547.21149  -4832359.18047  23662841.9494   23662837.5664
      1361.5064
   -735889.93449   -570288.90248  22222152.4654   22222150.4654
     -1965.6864
  -8245933.52349  -6895208.59047  22497081.4734   22497078.6874
      1093.8194
 04  9 10 16 54 45.0040000  0  5G 1G11G23G25G20
  -3906272.44949  -3041021.12948  21830241.5194   21830239.1564
      -730.0364
   6212699.52749   4841770.29747  23235112.4804   23235109.1484
     -2934.9524
  -6229919.44949  -4848233.64147  23658965.4494   23658961.3094
      1358.1494
   -706282.97349   -547218.55148  22227786.8094   22227784.3324
     -1973.7974
  -8262267.00049  -6907935.97348  22493973.0194   22493970.7624
      1088.8984
 04  9 10 16 55  0.0040000  0  5G 1G11G23G25G20
  -3895251.30949  -3032433.23848  21832338.7384   21832336.1414
      -734.7434
   6256829.46149   4876157.23847  23243509.6844   23243507.1524
     -2941.9964
  -6250241.93049  -4864069.33647  23655098.1214   23655093.0824
      1354.8324
   -676555.14849   -524054.01648  22233443.6604   22233441.1054
     -1981.8554
  -8278526.97349  -6920606.07848  22490878.9344   22490876.3364
      1083.9984
 04  9 10 16 55 15.0040000  0  5G 1G11G23G25G20
  -3884159.37949  -3023790.17648  21834449.4884   21834447.5234
      -739.4624
   6301064.98049   4910626.44947  23251927.7384   23251925.2384
     -2949.0354
  -6270514.29749  -4879865.97747  23651240.1294   23651235.2194
      1351.4914
   -646706.37949   -500795.24248  22239123.6994   22239121.2934
     -1989.9184
  -8294712.94149  -6933218.52048  22487798.9344   22487796.0904
      1079.0654
 04  9 10 16 55 30.0050000  0  5G 1G11G23G25G20
  -3872995.86749  -3015091.34848  21836574.0404   21836571.6774
      -744.2344
   6345408.94549   4945180.18047  23260366.1814   23260363.6734
     -2956.2644
  -6290737.79349  -4895624.53547  23647391.5174   23647386.8134
      1348.2334
   -616734.73449   -477440.72348  22244827.1264   22244824.7434
     -1998.1104
  -8310825.65649  -6945773.86748  22484732.7044   22484729.7674
      1074.1814
 04  9 10 16 55 45.0050000  0  5G 1G11G23G25G20
  -3861762.76649  -3006338.28948  21838711.6344   21838708.8764
      -748.8734
   6389854.90649   4979813.37947  23268823.8214   23268821.3994
     -2963.0644
  -6310910.06249  -4911343.16047  23643553.0324   23643548.7204
      1344.8184
   -586644.79749   -453994.03948  22250553.1494   22250550.1224
     -2005.9964
  -8326863.09449  -6958270.56648  22481680.9934   22481677.9664
      1069.1634
 04  9 10 16 56  0.0050000  0  5G 1G11G23G25G20
  -3850460.47349  -2997531.30548  21840862.0874   21840859.6614
      -753.4864
   6434404.31349   5014527.18847  23277301.2514   23277298.6224
     -2969.9604
  -6331033.43049  -4927023.70747  23639723.7514   23639718.9544
      1341.5584
   -556435.79749   -430454.56248  22256301.6574   22256298.9974
     -2013.9334
  -8342827.05149  -6970710.02047  22478643.0094   22478640.1064
      1064.2644
 04  9 10 16 56 15.0050000  0  5G 1G11G23G25G20
  -3839087.56249  -2988669.28948  21843026.3764   21843024.0054
      -758.1944
   6479058.36749   5049322.54747  23285798.1184   23285795.6774
     -2976.9374
  -6351106.35949  -4942664.94547  23635904.0954   23635899.3954
      1338.1954
   -526106.42249   -406821.29348  22262073.1104   22262070.6924
     -2021.9584
  -8358715.90249  -6983090.94548  22475619.5174   22475616.5994
      1059.2574
 04  9 10 16 56 30.0050000  0  5G 1G11G23G25G20
  -3827644.71549  -2979752.79748  21845204.0714   21845201.6104
      -762.8574
   6523816.15249   5084198.71147  23294315.6264   23294313.0634
     -2983.8524
  -6371129.63749  -4958267.48047  23632093.1424   23632088.5244
      1334.8854
   -495657.52749   -383094.89148  22267867.2124   22267864.5014
     -2029.9264
  -8374530.04349  -6995413.65247  22472610.4234   22472607.7284
      1054.2764
 04  9 10 16 56 45.0050000  0  5G 1G11G23G25G20
  -3816131.56249  -2970781.50848  21847394.7204   21847392.4544
      -767.5434
   6568677.82049   5119155.83247  23302852.4784   23302849.8884
     -2990.7784
  -6391102.60249  -4973830.82447  23628292.5634   23628288.1144
      1331.5314
   -465088.93049   -359275.20748  22273684.6654   22273681.4894
     -2037.9074
  -8390268.71149  -7007677.53948  22469614.7984   22469612.4504
      1049.2454
 04  9 10 16 57  0.0050000  0  5G 1G11G23G25G20
  -3804548.79749  -2961755.99248  21849598.8764   21849596.6534
      -772.1844
   6613642.52749   5154193.24647  23311409.4854   23311406.6454
     -2997.6474
  -6411025.88349  -4989355.45347  23624501.6884   23624497.5244
      1328.2194
   -434401.32849   -335362.80948  22279524.2044   22279521.2354
     -2045.8404
  -8405932.29349  -7019882.92247  22466634.1654   22466631.5524
      1044.2394
 04  9 10 16 57 15.0050000  0  5G 1G11G23G25G20
  -3792897.29749  -2952676.89548  21851815.9704   21851813.8104
      -776.7674
   6658709.21149   5189310.11747  23319985.0714   23319982.5404
     -3004.4464
  -6430900.23449  -5004841.94547  23620719.5954   23620715.3454
      1324.9574
   -403595.68049   -311358.41448  22285386.1264   22285383.6184
     -2053.7104
  -8421521.53149  -7032030.37548  22463668.0014   22463664.8104
      1039.2834
 04  9 10 16 57 30.0050000  0  5G 1G11G23G25G20
  -3781175.55149  -2943543.07048  21854046.6034   21854044.2164
      -781.4504
   6703879.28549   5224507.56347  23328580.3454   23328578.2284
     -3011.3384
  -6450724.06249  -5020289.07047  23616947.2594   23616942.5484
      1321.5894
   -372670.70349   -287261.03948  22291271.0484   22291268.2434
     -2061.6654
  -8437034.41049  -7044118.32848  22460715.8994   22460712.4384
      1034.1924
 04  9 10 16 57 45.0050000  0  5G 1G11G23G25G20
  -3769384.36749  -2934355.14548  21856290.8764   21856287.9354
      -786.0794
   6749151.46549   5259784.58247  23337195.8454   23337192.7204
     -3018.1454
  -6470498.07049  -5035697.38747  23613184.4314   23613179.5134
      1318.2674
   -341627.32849   -263071.41448  22297178.6104   22297175.6034
     -2069.5584
  -8452471.44149  -7056147.18048  22457778.0874   22457774.8644
      1029.1354
 04  9 10 16 58  0.0050000  0  5G 1G11G23G25G20
  -3757524.04749  -2925113.34448  21858547.5324   21858545.1184
      -790.6884
   6794525.32049   5295140.81347  23345829.8684   23345827.6184
     -3024.9244
  -6490222.60249  -5051067.13347  23609430.3134   23609426.0174
      1314.9694
   -310465.92649   -238789.80948  22303108.0714   22303105.5714
     -2077.4274
  -8467832.68449  -7068116.98848  22454855.4704   22454852.3134
      1024.0834
 04  9 10 16 58 15.0050000  0  5G 1G11G23G25G20
  -3745593.14149  -2915816.53548  21860818.1344   21860815.5604
      -795.3944
   6840002.00849   5330577.18447  23354483.9934   23354481.9744
     -3031.7794
  -6509895.87949  -5066396.96147  23605687.5954   23605682.4384
      1311.5524
   -279185.27349   -214415.28948  22309060.6814   22309058.1924
     -2085.3774
  -8483116.28549  -7080026.27748  22451946.8994   22451944.5564
      1018.9074
 04  9 10 16 58 30.0050000  0  5G 1G11G23G25G20
  -3733592.52749  -2906465.41048  21863101.6964   21863099.2984
      -800.0414
   6885580.60549   5366092.94947  23363157.5244   23363154.7204
     -3038.5734
  -6529518.63749  -5081687.39847  23601952.8214   23601948.3994
      1308.1844
   -247786.31249   -189948.57448  22315035.5484   22315033.2594
     -2093.2644
  -8498322.79349  -7091875.49648  22449053.0014   22449051.0324
      1013.7674
 04  9 10 16 58 45.0050000  0  5G 1G11G23G25G20
  -3721521.92249  -2897059.75048  21865398.4934   21865396.1924
      -804.7074
   6931261.12149   5401688.12947  23371849.8534   23371847.2124
     -3045.3684
  -6549090.45349  -5096938.14547  23598228.8534   23598223.9854
      1304.7884
   -216268.84849   -165389.52048  22321033.2674   22321030.8844
     -2101.1644
  -8513451.57849  -7103664.16048  22446174.1884   22446171.8214
      1008.5864
 04  9 10 16 59  0.0050000  0  5G 1G11G23G25G20
  -3709380.88349  -2887599.19948  21867708.9624   21867706.4584
      -809.4034
   6977043.68449   5437362.83647  23380562.2434   23380559.2084
     -3052.1714
  -6568610.92249  -5112148.89547  23594514.0014   23594509.5204
      1301.3654
   -184632.48449   -140737.82448  22327053.2204   22327051.2204
     -2109.0914
  -8528501.94949  -7115391.71148  22443309.8994   22443307.3644
      1003.3584
 04  9 10 16 59 15.0050000  0  5G 1G11G23G25G20
  -3697170.94549  -2878084.96148  21870032.2124   21870029.5244
      -813.9964
   7022926.64849   5473115.78947  23389293.2904   23389290.6854
     -3058.8644
  -6588081.42249  -5127320.68447  23590809.0174   23590804.2554
      1298.0334
   -152879.07049   -115994.91848  22333095.8764   22333093.6534
     -2116.8944
  -8543475.06649  -7127059.08648  22440460.7354   22440457.7124
       998.2084
 04  9 10 16 59 30.0050000  0  5G 1G11G23G25G20
  -3684891.73849  -2868516.75848  21872368.8844   21872366.4894
      -818.6144
   7068910.17649   5508947.08647  23398043.4314   23398040.9544
     -3065.5684
  -6607501.50849  -5142453.19947  23587113.3994   23587108.9074
      1294.6724
   -121008.23849    -91160.52048  22339160.6574   22339158.4354
     -2124.7224
  -8558370.25449  -7138665.72348  22437626.3454   22437623.3254
       993.0134
 04  9 10 16 59 45.0050000  0  5G 1G11G23G25G20
  -3672542.84849  -2858894.24648  21874718.9934   21874716.5754
      -823.2594
   7114994.39149   5544856.82447  23406813.5564   23406810.3924
     -3072.2814
  -6626870.69149  -5157546.03147  23583426.6494   23583423.4384
      1291.2794
    -89019.65649    -66234.35948  22345248.1184   22345245.6224
     -2132.5724
  -8573186.84049  -7150211.10948  22434806.8214   22434804.2674
       987.7724
 04  9 10 17  0  0.0050000  0  5G 1G11G23G25G20
  -3660123.84849  -2849217.10948  21877082.0244   21877079.9744
      -827.9334
   7161179.57049   5580845.25847  23415602.2354   23415599.3174
     -3079.0124
  -6646188.20749  -5172598.60247  23579751.4934   23579747.2044
      1287.8344
    -56913.08649    -41216.27348  22351357.7044   22351355.3844
     -2140.4384
  -8587923.98449  -7161694.60248  22432002.1734   22431999.8724
       982.4764
 04  9 10 17  0 15.0050000  0  5G 1G11G23G25G20
  -3647635.25049  -2839485.73848  21879458.4934   21879456.3454
      -832.5734
   7207464.84049   5616911.68847  23424409.8764   23424406.9814
     -3085.6854
  -6665454.73449  -5187611.46547  23576085.1344   23576080.4664
      1284.4354
    -24689.14549    -16106.72748  22357489.6494   22357487.4704
     -2148.2634
  -8602582.00449  -7173116.43048  22429212.9384   22429210.5994
       977.2014
 04  9 10 17  0 30.0050000  0  5G 1G11G23G25G20
  -3635077.86349  -2829700.75048  21881848.0714   21881845.8994
      -837.1594
   7253849.32049   5653055.40647  23433237.0094   23433234.1574
     -3092.2994
  -6684670.81249  -5202585.02747  23572428.4314   23572424.0834
      1281.0724
      7651.10949      9093.45748  22363643.9154   22363641.4934
     -2156.0174
  -8617161.34049  -7184476.94548  22426438.5484   22426435.8844
       971.9564
 04  9 10 17  0 45.0050000  0  5G 1G11G23G25G20
  -3622450.63349  -2819861.35548  21884251.1654   21884248.6854
      -841.8154
   7300333.77749   5689277.05547  23442082.2594   23442080.3954
     -3098.9644
  -6703835.41849  -5217518.47347  23568781.6494   23568776.6144
      1277.6404
     40108.74249     34385.11348  22369820.5324   22369817.8954
     -2163.8424
  -8631660.64849  -7195775.10948  22423679.7124   22423676.9704
       966.6214
 04  9 10 17  1  0.0050000  0  5G 1G11G23G25G20
  -3609756.15649  -2809969.56648  21886666.9234   21886664.7744
      -846.2984
   7346915.39849   5725574.39847  23450946.7984   23450943.9354
     -3105.4414
  -6722950.96949  -5232413.69947  23565143.7514   23565139.0014
      1274.3704
     72680.93049     59766.03548  22376018.7824   22376016.3884
     -2171.4794
  -8646082.12549  -7207012.61748  22420935.5714   22420932.6924
       961.4324
 04  9 10 17  1 15.0050000  0  5G 1G11G23G25G20
  -3596994.98049  -2800025.79348  21889095.1654   21889093.1884
      -850.7454
   7393593.37549   5761946.80947  23459829.4384   23459826.2124
     -3111.8654
  -6742017.95749  -5247271.06647  23561515.2044   23561511.0204
      1271.1334
    105367.00449     85235.69148  22382238.6814   22382236.3454
     -2179.0724
  -8660426.03949  -7218189.69948  22418205.8214   22418203.2864
       956.2614
 04  9 10 17  1 30.0050000  0  5G 1G11G23G25G20
  -3584164.71549  -2790028.18448  21891536.7204   21891534.6034
      -855.3514
   7440369.87549   5798396.02047  23468730.2044   23468727.1694
     -3118.4334
  -6761033.83249  -5262088.60947  23557896.7204   23557892.0794
      1267.7254
    138169.30949    110795.91048  22388480.8924   22388478.7004
     -2186.8204
  -8674689.66849  -7229304.20748  22415491.7984   22415489.1814
       950.9094
 04  9 10 17  1 45.0050000  0  5G 1G11G23G25G20
  -3571266.55549  -2779977.67648  21893990.8374   21893988.8644
      -859.8774
   7487243.47749   5834920.89547  23477650.3064   23477647.2514
     -3124.9074
  -6779999.68049  -5276867.18747  23554288.1034   23554283.6264
      1264.3904
    171086.59849    136445.73448  22394744.7824   22394742.5604
     -2194.4864
  -8688873.90649  -7240356.86748  22412792.3924   22412789.8844
       945.6164
 04  9 10 17  2  0.0050000  0  5G 1G11G23G25G20
  -3558297.93449  -2769872.26248  21896459.0324   21896456.9584
      -864.5754
   7534216.55549   5871523.26647  23486589.1654   23486586.3174
     -3131.5394
  -6798912.75049  -5291604.64547  23550688.8374   23550684.4934
      1260.8714
    204121.06349    162186.86348  22401030.9464   22401028.4744
     -2202.2984
  -8702975.85949  -7251345.39548  22410109.0014   22410106.1534
       940.1304
 04  9 10 17  2 15.0050000  0  5G 1G11G23G25G20
  -3545261.21149  -2759713.78148  21898939.7594   21898937.8134
      -869.1154
   7581286.66049   5908201.25447  23495546.1104   23495543.3294
     -3138.0074
  -6817775.30149  -5306302.71947  23547099.5404   23547095.3214
      1257.5034
    237270.30949    188017.43848  22407339.2124   22407336.4894
     -2209.9504
  -8716997.53149  -7262271.36748  22407440.5874   22407437.7784
       934.7784
 04  9 10 17  2 30.0050000  0  5G 1G11G23G25G20
  -3532155.41849  -2749501.47748  21901433.5874   21901431.7124
      -873.7204
   7628454.44949   5944955.36347  23504521.5794   23504519.0714
     -3144.5194
  -6836586.25849  -5320960.59447  23543519.8534   23543515.8494
      1254.0644
    270535.09049    213938.03548  22413669.3604   22413666.5714
     -2217.6524
  -8730937.67649  -7273133.80548  22404787.8604   22404784.5054
       929.3434
 04  9 10 17  2 45.0050000  0  5G 1G11G23G25G20
  -3518980.56249  -2739235.35548  21903940.6104   21903938.6774
      -878.3244
   7675719.55949   5981785.29347  23513515.7674   23513513.4974
     -3151.0074
  -6855345.75849  -5335578.36747  23539950.1264   23539945.5524
      1250.6334
    303915.28949    239948.57448  22420021.2354   22420018.8994
     -2225.3474
  -8744796.01649  -7283932.52348  22402150.7674   22402147.6734
       923.8894
 04  9 10 17  3  0.0050000  0  5G 1G11G23G25G20
  -3505737.61749  -2728916.19148  21906461.0174   21906458.7124
      -882.8634
   7723080.78549   6018690.15247  23522528.1494   23522525.4154
     -3157.4154
  -6874054.54349  -5350156.62547  23536390.2514   23536385.3994
      1247.2524
    337409.95349    266048.30148  22426395.0324   22426392.6454
     -2232.9784
  -8758573.21549  -7294668.00048  22399529.4314   22399526.1454
       918.4804
 04  9 10 17  3 15.0050000  0  5G 1G11G23G25G20
  -3492426.85249  -2718544.16048  21908993.7354   21908991.2244
      -887.3844
   7770537.65249   6055669.49247  23531559.5634   23531557.2634
     -3163.7914
  -6892712.73049  -5364695.46547  23532839.3764   23532835.1964
      1243.8794
    371018.53149    292236.78948  22432790.5564   22432788.0134
     -2240.5724
  -8772269.16449  -7305340.16848  22396923.4074   22396919.8924
       913.0634
 04  9 10 17  3 30.0050000  0  5G 1G11G23G25G20
  -3479048.12949  -2708119.18048  21911539.5484   21911537.5174
      -891.9154
   7818090.10249   6092723.32047  23540608.1734   23540606.1614
     -3170.1634
  -6911320.11349  -5379194.70747  23529298.5014   23529293.9114
      1240.4924
    404741.12149    318514.11748  22439207.8844   22439205.3104
     -2248.1734
  -8785883.38749  -7315948.66048  22394332.2674   22394329.3534
       907.6154
 04  9 10 17  3 45.0050000  0  5G 1G11G23G25G20
  -3465600.05949  -2697640.17248  21914098.7044   21914096.7514
      -896.5384
   7865739.53949   6129852.74247  23549675.6734   23549672.9854
     -3176.6294
  -6929875.20349  -5393653.21947  23525767.4154   23525763.0714
      1237.0064
    438578.74249    344881.08648  22445647.0014   22445644.6104
     -2255.8414
  -8799414.23849  -7326492.18048  22391757.3454   22391754.3844
       902.0574
 04  9 10 17  4  0.0050000  0  5G 1G11G23G25G20
  -3452083.78149  -2687108.01248  21916670.8994   21916668.4744
      -901.0854
   7913484.15249   6167056.32847  23558760.7354   23558758.6064
     -3182.9744
  -6948379.00849  -5408071.77047  23522246.4314   23522242.0874
      1233.5874
    472530.21549    371336.75848  22452107.5094   22452105.3564
     -2263.4324
  -8812862.48449  -7336971.31248  22389197.9384   22389195.5634
       896.5504
 04  9 10 17  4 15.0050000  0  5G 1G11G23G25G20
  -3438498.36349  -2676521.98048  21919255.8994   21919253.5714
      -905.6954
   7961324.80949   6204334.72347  23567864.7674   23567862.3454
     -3189.3774
  -6966830.41849  -5422449.45747  23518735.5014   23518731.1694
      1230.0944
    506596.46149    397881.87548  22458590.4234   22458588.0714
     -2271.0834
  -8826226.88349  -7347385.12148  22386655.1884   22386652.2164
       890.9604
 04  9 10 17  4 30.0050000  0  5G 1G11G23G25G20
  -3424844.02349  -2665882.22748  21921854.5634   21921851.8844
      -910.2894
   8009261.08649   6241687.65647  23576986.7674   23576984.5564
     -3195.7524
  -6985229.52349  -5436786.39547  23515234.2824   23515230.0564
      1226.6074
    540777.04749    424516.08648  22465094.4544   22465092.1224
     -2278.7064
  -8839507.32049  -7357733.50848  22384128.1104   22384124.8064
       885.3624
 04  9 10 17  4 45.0050000  0  5G 1G11G23G25G20
  -3411120.91849  -2655188.90648  21924465.6264   21924463.4704
      -914.8744
   8057292.59449   6279114.78947  23586127.1654   23586124.4154
     -3202.1014
  -7003576.40249  -5451082.64547  23511742.4854   23511738.5794
      1223.1254
    575071.69149    451239.17648  22471620.2904   22471617.8684
     -2286.3104
  -8852703.67649  -7368016.38748  22381617.0174   22381613.2744
       879.7574
 04  9 10 17  5  0.0050000  0  5G 1G11G23G25G20
  -3397329.20749  -2644442.13348  21927090.3844   21927087.8104
      -919.4474
   8105418.92649   6316615.79347  23595285.3134   23595282.1534
     -3208.4224
  -7021871.11349  -5465338.25447  23508261.3064   23508256.4854
      1219.6474
    609480.08649    478050.90248  22478168.4464   22478166.0324
     -2293.8934
  -8865815.75449  -7378233.59448  22379121.5244   22379118.1734
       874.1394
 04  9 10 17  5 15.0050000  0  5G 1G11G23G25G20
  -3383468.98849  -2633641.96148  21929728.0014   21929725.3684
      -924.0154
   8153639.74249   6354190.44947  23604461.7674   23604458.9274
     -3214.7214
  -7040113.66449  -5479553.21547  23504790.0174   23504785.2704
      1216.1704
    644002.01249    504951.09048  22484737.5634   22484734.9424
     -2301.4624
  -8878843.31649  -7388384.94548  22376642.6814   22376639.0834
       868.5044
 04  9 10 17  5 30.0050000  0  5G 1G11G23G25G20
  -3369541.63749  -2622789.48848  21932378.0404   21932375.7904
      -928.4904
   8201953.44949   6391837.47347  23613655.6494   23613652.7004
     -3220.9144
  -7058305.41849  -5493728.60547  23501328.4544   23501323.5674
      1212.7844
    678635.81349    531938.46548  22491328.2354   22491325.5674
     -2308.9204
  -8891787.47349  -7398471.29748  22374179.2044   22374176.2594
       862.9444
 04  9 10 17  5 45.0050000  0  5G 1G11G23G25G20
  -3355546.59049  -2611884.26248  21935041.4074   21935038.9114
      -933.0034
   8250360.41449   6429557.16847  23622866.9784   23622864.0794
     -3227.1314
  -7076445.51249  -5507863.73847  23497876.4074   23497871.4854
      1209.3404
    713382.16849    559013.52748  22497940.2594   22497937.9544
     -2316.4244
  -8904647.29349  -7408491.93048  22371731.9624   22371729.4464
       857.3214
 04  9 10 17  6  0.0050000  0  5G 1G11G23G25G20
  -3341484.18049  -2600926.53548  21937717.0954   21937715.0794
      -937.4944
   8298860.16449   6467349.15647  23632095.7904   23632093.4814
     -3233.3174
  -7094534.38349  -5521958.93747  23494433.7984   23494429.2784
      1205.9254
    748240.39549    586175.77348  22504573.6184   22504571.3804
     -2323.8824
  -8917422.75449  -7418446.82448  22369300.9464   22369297.8844
       851.6974
 04  9 10 17  6 15.0050000  0  5G 1G11G23G25G20
  -3327354.10949  -2589916.08648  21940405.7124   21940404.1814
      -942.0054
   8347452.48849   6505213.27347  23641342.8684   23641339.9744
     -3239.4884
  -7112571.59449  -5536013.89147  23491001.4704   23490996.7904
      1202.4814
    783210.66049    613425.31348  22511228.5794   22511225.6734
     -2331.3514
  -8930113.35549  -7428335.59848  22366885.5794   22366882.5324
       846.0404
 04  9 10 17  6 30.0050000  0  5G 1G11G23G25G20
  -3313154.94549  -2578851.80148  21943107.7674   21943105.9854
      -946.6114
   8396138.71949   6543150.58647  23650607.4544   23650604.8454
     -3245.7494
  -7130555.51249  -5550027.30547  23487579.5324   23487574.8564
      1198.9284
    818294.33649    640763.23848  22517904.6494   22517901.8804
     -2338.9124
  -8942717.21549  -7438156.77348  22364487.7514   22364484.6884
       840.2574
 04  9 10 17  6 45.0050000  0  5G 1G11G23G25G20
  -3298887.10549  -2567734.02048  21945823.0794   21945821.0754
      -951.1894
   8444918.11749   6581160.48047  23659890.1344   23659887.7084
     -3251.9604
  -7148486.56649  -5563999.55147  23484167.0094   23484162.3724
      1195.4044
    853490.73849    668188.99248  22524602.5014   22524599.5994
     -2346.4274
  -8955234.55549  -7447910.54348  22362105.3924   22362102.4194
       834.4894
 04  9 10 17  7  0.0050000  0  5G 1G11G23G25G20
  -3284550.87149  -2556562.93048  21948551.0174   21948549.2704
      -955.7494
   8493790.13349   6619242.55947  23669190.1964   23669187.8564
     -3258.1344
  -7166364.84449  -5577930.66047  23480764.7674   23480759.6964
      1191.8854
    888799.44949    695702.25848  22531321.2434   22531318.5674
     -2353.9144
  -8967665.32849  -7457596.86348  22359740.2824   22359736.9464
       828.7184
 04  9 10 17  7 15.0050000  0  5G 1G11G23G25G20
  -3270145.33649  -2545337.84448  21951292.2044   21951290.8064
      -960.3694
   8542755.41849   6657397.30947  23678507.5564   23678505.3954
     -3264.3524
  -7184189.49649  -5591819.98447  23477372.7824   23477368.4704
      1188.3104
    924221.20349    723303.61748  22538061.4074   22538059.2674
     -2361.4504
  -8980008.43049  -7467214.85948  22357391.5324   22357387.4854
       822.8734
 04  9 10 17  7 30.0050000  0  5G 1G11G23G25G20
  -3255670.53549  -2534058.79348  21954046.9934   21954045.0524
      -964.9874
   8591813.89849   6695624.68447  23687843.2124   23687840.6144
     -3270.5654
  -7201960.26249  -5605667.30147  23473991.3134   23473986.9624
      1184.7184
    959755.75849    750992.87548  22544823.7434   22544821.3294
     -2368.9704
  -8992263.38349  -7476764.16848  22355058.9934   22355055.8064
       816.9974
 04  9 10 17  7 45.0050000  0  5G 1G11G23G25G20
  -3241128.04749  -2522726.98848  21956814.2044   21956812.0674
      -969.4994
   8640963.65249   6733923.17247  23697195.6574   23697192.8764
     -3276.6504
  -7219678.64549  -5619473.82847  23470619.4314   23470614.9544
      1181.2264
    995401.46949    778768.73848  22551606.9314   22551604.4544
     -2376.3814
  -9004431.41849  -7486245.75048  22352743.6034   22352740.5014
       811.2024
 04  9 10 17  8  0.0050000  0  5G 1G11G23G25G20
  -3226517.22349  -2511341.93048  21959594.6884   21959592.3884
      -974.0554
   8690205.05549   6772293.07847  23706566.5484   23706563.3334
     -3282.7604
  -7237343.95749  -5633238.98047  23467257.4314   23467253.7204
      1177.6884
   1031158.85549    806631.62148  22558411.3844   22558409.0244
     -2383.8264
  -9016511.70749  -7495658.95748  22350444.5874   22350441.7284
       805.3534
 04  9 10 17  8 15.0050000  0  5G 1G11G23G25G20
  -3211838.93049  -2499904.30548  21962387.8604   21962385.5014
      -978.5534
   8739536.95749   6810733.49247  23715954.1654   23715951.4384
     -3288.7934
  -7254956.88349  -5646963.31647  23463906.0244   23463901.4584
      1174.1954
   1067026.94949    834580.77748  22565236.6884   22565234.3454
     -2391.2064
  -9028504.69149  -7505004.13348  22348162.7904   22348159.6264
       799.5324
 04  9 10 17  8 30.0050000  0  5G 1G11G23G25G20
  -3197092.87549  -2488413.87548  21965193.9934   21965191.9274
      -983.0704
   8788959.48049   6849244.53547  23725358.9704   23725356.1034
     -3294.8354
  -7272517.10949  -5660646.60947  23460564.2904   23460559.7204
      1170.6824
   1103005.72349    862616.17248  22572083.3684   22572080.5834
     -2398.5854
  -9040409.79749  -7514280.83648  22345897.2674   22345893.8644
       793.6744
 04  9 10 17  8 45.0050000  0  5G 1G11G23G25G20
  -3182280.77349  -2476871.98448  21968012.5014   21968010.5524
      -987.4734
   8838470.77049   6887824.73047  23734780.8994   23734778.4704
     -3300.7534
  -7290026.21549  -5674290.05547  23457232.5874   23457228.0014
      1167.2744
   1139093.53549    890736.53948  22578950.3214   22578947.7944
     -2405.8544
  -9052228.44149  -7523490.17648  22343648.1734   22343645.1494
       787.9104
 04  9 10 17  9  0.0050000  0  5G 1G11G23G25G20
  -3167402.97749  -2465278.89148  21970843.8374   21970841.6264
      -991.8534
   8888070.08649   6926473.53147  23744218.9154   23744216.6384
     -3306.6214
  -7307484.43049  -5687893.84447  23453910.4314   23453905.5874
      1163.8814
   1175289.73049    918941.35248  22585838.6574   22585835.7434
     -2413.0804
  -9063960.59849  -7532632.11348  22341415.4934   22341412.3024
       782.1444
 04  9 10 17  9 15.0050000  0  5G 1G11G23G25G20
  -3152456.70749  -2453632.46148  21973688.0014   21973685.4784
      -996.4184
   8937759.86749   6965192.82847  23753674.6104   23753671.7394
     -3312.6524
  -7324888.87149  -5701455.73847  23450598.4854   23450593.7474
      1160.2964
   1211596.85249    947232.59448  22592747.6494   22592744.6734
     -2420.4754
  -9075603.32849  -7541704.35948  22339200.1734   22339196.9464
       776.1824
 04  9 10 17  9 30.0050000  0  5G 1G11G23G25G20
  -3137443.71149  -2441934.03548  21976545.0404   21976542.3764
     -1000.8664
   8987538.29749   7003981.19147  23763146.6654   23763144.5094
     -3318.5624
  -7342241.09849  -5714976.94147  23447296.1104   23447292.1384
      1156.8154
   1248013.12549    975608.91048  22599677.7354   22599674.7674
     -2427.7524
  -9087157.89849  -7550707.92248  22337001.3374   22336998.3104
       770.3054
 04  9 10 17  9 45.0050000  0  5G 1G11G23G25G20
  -3122363.67249  -2430183.35548  21979414.7904   21979412.4854
     -1005.3364
   9037405.44149   7042838.68447  23772636.2434   23772634.2904
     -3324.4764
  -7359540.73849  -5728457.15247  23444004.4464   23443999.9664
      1153.3094
   1284538.69149   1004070.37548  22606628.0014   22606625.7124
     -2435.0384
  -9098623.69949  -7559642.30948  22334819.6574   22334816.5754
       764.3874
 04  9 10 17 10  0.0050000  0  5G 1G11G23G25G20
  -3107218.19149  -2418381.68748  21982296.8994   21982294.9744
     -1009.6994
   9087359.30149   7081763.75047  23782142.4384   23782139.9584
     -3330.2574
  -7376789.34449  -5741897.61347  23440722.2594   23440717.7044
      1149.9074
   1321171.73449   1032615.58248  22613599.1344   22613596.7744
     -2442.2034
  -9110002.08649  -7568508.57848  22332654.3534   22332650.9894
       758.5594
 04  9 10 17 10 15.0050000  0  5G 1G11G23G25G20
  -3092007.51249  -2406529.21148  21985191.1184   21985189.3994
     -1014.0454
   9137399.54749   7120756.12947  23791664.9704   23791662.8804
     -3336.0164
  -7393987.09849  -5755298.45347  23437449.2904   23437444.8994
      1146.5174
   1357911.88349   1061244.25848  22620590.7674   22620588.2284
     -2449.3434
  -9121292.94949  -7577306.64848  22330505.8374   22330502.1424
       752.7244
 04  9 10 17 10 30.0050000  0  5G 1G11G23G25G20
  -3076730.51649  -2394625.06648  21988098.2124   21988096.5204
     -1018.4664
   9187526.98849   7159816.43047  23801203.8214   23801201.6774
     -3341.8294
  -7411132.69549  -5768658.62947  23434186.4544   23434182.5484
      1143.0404
   1394760.03949   1089957.09848  22627602.3064   22627600.0204
     -2456.5444
  -9132494.82049  -7586035.37948  22328374.1574   22328370.2044
       746.7914
 04  9 10 17 10 45.0050000  0  5G 1G11G23G25G20
  -3061387.73049  -2382669.64848  21991017.9464   21991016.0364
     -1022.8524
   9237740.78149   7198944.03947  23810759.3844   23810756.3564
     -3347.5864
  -7428226.58249  -5781978.52747  23430933.8924   23430929.2084
      1139.5924
   1431715.73849   1118753.73848  22634634.7824   22634632.2944
     -2463.7134
  -9143607.89849  -7594694.92248  22326259.5244   22326256.1344
       740.8724
 04  9 10 17 11  0.0050000  0  6G 1G11G16G23G25G20
  -3045978.61349  -2370662.54348  21993950.0174   21993948.1854
     -1027.2744
   9288041.31349   7238139.23447  23820331.1264   23820328.4664
     -3353.3694
    -77059.17259    -54040.70756  25633864.6184   25633863.3684

  -7445268.02349  -5795257.54747  23427690.6424   23427685.9894
      1136.0964
   1468779.20749   1147634.34848  22641687.7674   22641685.3024
     -2470.8984
  -9154631.35949  -7603284.63348  22324161.7044   22324158.6424
       734.8974
 04  9 10 17 11 15.0050000  0  6G 1G11G16G23G25G20
  -3030504.07849  -2358604.47748  21996894.8214   21996892.6614
     -1031.6364
   9338427.43849   7277401.12947  23829919.4624   23829916.5174
     -3359.0754
   -107581.72749    -77824.43746  25628055.7744   25628055.4744
      2034.8374
  -7462257.92249  -5808496.41047  23424457.8924   23424453.3844
      1132.6604
   1505949.30549   1176598.03948  22648761.1184   22648758.5364
     -2478.0074
  -9165565.88749  -7611805.04348  22322080.9704   22322078.4114
       728.9684
 04  9 10 17 11 30.0050000  0  6G 1G11G16G23G25G20
  -3014963.83249  -2346495.20348  21999852.1884   21999849.9234
     -1036.0164
   9388898.97749   7316729.58647  23839523.4854   23839521.4814
     -3364.7694
   -138081.71549   -101590.59446  25622251.8534   25622252.5834
      2033.3334
  -7479195.86749  -5821694.79747  23421234.6964   23421230.2514
      1129.1964
   1543226.38749   1205645.10548  22655854.3994   22655852.0014
     -2485.1394
  -9176410.82449  -7620255.63748  22320017.1654   22320014.6694
       722.9964
 04  9 10 17 11 45.0050000  0  6G 1G11G16G23G25G20
  -2999360.24649  -2334336.57448  22002821.4464   22002819.0404
     -1040.2394
   9439453.45349   7356122.65647  23849143.8604   23849141.6534
     -3370.2984
   -168560.91449   -125340.57446  25616452.4544   25616452.2634
      2031.9474
  -7496084.14849  -5834854.46947  23418021.1574   23418016.2044
      1125.8854
   1580607.73449   1234773.41848  22662968.1264   22662965.7244
     -2492.0904
  -9187168.16449  -7628637.97348  22317970.1184   22317967.5204
       717.1564
 04  9 10 17 12  0.0050000  0  6G 1G11G16G23G25G20
  -2983691.87949  -2322127.46548  22005802.7204   22005800.9354
     -1044.5584
   9490092.06649   7395581.28947  23858780.2904   23858777.7004
     -3375.9084
   -199017.75049   -149073.09046  25610655.7744   25610656.9424
      2030.4564
  -7512921.21149  -5847974.25447  23414817.0714   23414812.6064
      1122.4714
   1618094.63349   1263983.97348  22670101.8844   22670098.9584
     -2499.1274
  -9197836.22749  -7636950.73848  22315940.1424   22315936.8724
       711.2044
 04  9 10 17 12 15.0050000  0  6G 1G11G16G23G25G20
  -2967959.12149  -2309868.17248  22008796.7124   22008794.9464
     -1048.8514
   9540814.19949   7435105.00047  23868432.9854   23868429.6494
     -3381.4764
   -229451.90249   -172787.95746  25604863.9704   25604865.0634
      2028.9434
  -7529707.34449  -5861054.36347  23411622.9624   23411617.4354
      1119.0764
   1655686.45349   1293276.28948  22677255.1424   22677252.3644
     -2506.1214
  -9208415.02349  -7645193.95748  22313927.0094   22313923.7594
       705.2534
 04  9 10 17 12 30.0050000  0  6G 1G11G16G23G25G20
  -2952162.26249  -2297558.93748  22011802.8844   22011800.9314
     -1053.1244
   9591619.23849   7474693.34447  23878100.9314   23878097.5244
     -3387.0034
   -259863.29349   -196485.07446  25599077.1264   25599077.4194
      2027.4264
  -7546442.82449  -5874094.98447  23408438.1034   23408432.5524
      1115.6994
   1693382.91049   1322650.14148  22684428.3454   22684426.0364
     -2513.0974
  -9218904.55949  -7653367.63348  22311931.1034   22311927.5014
       699.3024
 04  9 10 17 12 45.0050000  0  6G 1G11G16G23G25G20
  -2936299.99249  -2285198.73048  22014821.2354   22014818.8334
     -1057.4854
   9642508.23049   7514347.09047  23887784.1264   23887781.9114
     -3392.5994
   -290250.02749   -220163.03146  25593294.1574   25593294.4504
      2025.7824
  -7563126.10949  -5887094.92247  23405263.3764   23405258.2044
      1112.2194
   1731185.03949   1352106.33648  22691622.0244   22691619.3214
     -2520.1424
  -9229303.19149  -7661470.46948  22309952.2204   22309949.3374
       693.2424
 04  9 10 17 13  0.0050000  0  6G 1G11G16G23G25G20
  -2920373.26249  -2272788.29748  22017851.9234   22017849.6104
     -1061.7824
   9693480.00449   7554065.34047  23897483.8134   23897481.2594
     -3398.1184
   -320612.78949   -243822.25046  25587516.8844   25587516.7984
      2024.1844
  -7579758.13349  -5900054.92247  23402098.5564   23402093.9384
      1108.8024
   1769091.72749   1381644.01248  22698835.5794   22698833.0054
     -2527.1124
  -9239611.53949  -7669502.94148  22307990.6184   22307988.0714
       687.2234
 04  9 10 17 13 15.0050000  0  6G 1G11G16G23G25G20
  -2904382.12949  -2260327.68048  22020895.1424   22020893.2394
     -1066.0764
   9744534.32049   7593847.90247  23907198.9314   23907196.7434
     -3403.6214
   -350950.91449   -267462.31246  25581743.4234   25581743.6964
      2022.5424
  -7596338.78549  -5912974.89547  23398943.3064   23398938.8294
      1105.3774
   1807102.79349   1411263.00448  22706068.9154   22706065.9974
     -2534.0714
  -9249829.36349  -7677464.88348  22306046.0484   22306043.3764
       681.1884
 04  9 10 17 13 30.0050000  0  6G 1G11G16G23G25G20
  -2888325.20349  -2247815.79348  22023950.5324   22023948.7784
     -1070.4624
   9795672.35249   7633695.69547  23916930.2284   23916927.3884
     -3409.2024
   -381262.70349   -291081.85246  25575976.3374   25575974.9384
      2020.7864
  -7612866.47349  -5925853.59447  23395798.3764   23395793.5914
      1101.8464
   1845219.58249   1440964.38748  22713322.1034   22713319.3884
     -2541.1194
  -9259954.95349  -7685354.94948  22304119.1034   22304116.3724
       675.0394
 04  9 10 17 13 45.0050000  0  6G 1G11G16G23G25G20
  -2872202.67249  -2235252.77748  22027018.7904   22027016.6494
     -1074.8354
   9846893.67249   7673608.37547  23926677.4854   23926674.3844
     -3414.7554
   -411547.84449   -314680.65646  25570213.5324   25570212.3764
      2019.0094
  -7629341.45349  -5938691.23047  23392663.3534   23392658.7284
      1098.3324
   1883441.57849   1470747.75048  22720595.5794   22720592.6774
     -2548.1334
  -9269988.27749  -7693173.11748  22302209.9934   22302207.3024
       668.8884
 04  9 10 17 14  0.0050000  0  6G 1G11G16G23G25G20
  -2856014.76249  -2222638.82448  22030099.1104   22030096.9894
     -1079.1944
   9898197.62949   7713585.47747  23936440.3374   23936437.6924
     -3420.2644
   -441806.16449   -338258.53946  25564454.7204   25564454.2594
      2017.2214
  -7645763.74649  -5951487.79347  23389537.9854   23389533.9034
      1094.8204
   1921768.39549   1500612.78948  22727888.8534   22727886.3494
     -2555.1214
  -9279929.05949  -7700919.17248  22300318.1494   22300315.1574
       662.7194
 04  9 10 17 14 15.0050000  0  6G 1G11G16G23G25G20
  -2839761.55149  -2209973.99648  22033192.1574   22033190.1264
     -1083.5474
   9949583.93849   7753626.73847  23946218.2124   23946216.5604
     -3425.7544
   -472037.29749   -361815.21546  25558702.0714   25558700.7474
      2015.4094
  -7662133.37149  -5964243.32847  23386422.9154   23386418.6264
      1091.3084
   1960199.86349   1530559.38348  22735202.3994   22735199.7864
     -2562.0984
  -9289777.18449  -7708593.03548  22298444.1814   22298441.2864
       656.5424
 04  9 10 17 14 30.0050000  0  6G 1G11G16G23G25G20
  -2823443.39849  -2197258.55148  22036297.2434   22036295.0174
     -1087.8774
  10001051.88749   7793731.60947  23956012.7354   23956010.8334
     -3431.1974
   -502241.07449   -385350.60946  25552954.7594   25552953.3064
      2013.5854
  -7678450.52049  -5976957.97347  23383318.0094   23383313.8924
      1087.8104
   1998735.44949   1560587.09848  22742535.4234   22742533.0444
     -2569.0394
  -9299532.62149  -7716194.67648  22296587.8064   22296585.0564
       650.3624
 04  9 10 17 14 45.0050000  0  6G 1G11G16G23G25G20
  -2807058.91849  -2184491.43048  22039415.3994   22039413.4814
     -1092.2994
  10052602.67649   7833901.04747  23965822.8994   23965820.3214
     -3436.7194
   -532415.83249   -408863.35246  25547212.5874   25547211.7514
      2011.6514
  -7694713.82449  -5989630.65647  23380222.7204   23380218.0714
      1084.2204
   2037376.15249   1590696.73048  22749888.3764   22749885.9814
     -2576.0474
  -9309193.77349  -7723722.85248  22294749.4854   22294746.4274
       644.0774
 04  9 10 17 15  0.0050000  0  6G 1G11G16G23G25G20
  -2790609.48049  -2171673.69548  22042545.3764   22042543.4274
     -1096.6294
  10104234.89149   7874133.91847  23975648.1034   23975645.6964
     -3442.1484
   -562562.41449   -432354.16846  25541475.5094   25541474.5444
      2009.7724
  -7710924.53949  -6002262.36347  23377138.2824   23377134.0954
      1080.7144
   2076120.60949   1620887.21148  22757261.2674   22757259.1574
     -2582.9644
  -9318761.77349  -7731178.43448  22292928.7674   22292926.1814
       637.8674
 04  9 10 17 15 15.0050000  0  6G 1G11G16G23G25G20
  -2774094.71549  -2158805.05148  22045688.0564   22045686.0444
     -1100.9844
  10155948.27349   7914430.02347  23985488.6034   23985487.1424
     -3447.5594
   -592679.90249   -455822.31246  25535744.8684   25535742.9354
      2007.8334
  -7727082.10249  -6014852.66447  23374063.7204   23374060.2744
      1077.1714
   2114968.99249   1651158.66448  22764653.9314   22764651.7204
     -2589.8924
  -9328235.87149  -7738560.84048  22291125.9544   22291123.0564
       631.6074
 04  9 10 17 15 30.0050000  0  6G 1G11G16G23G25G20
  -2757515.03549  -2145885.83248  22048842.9704   22048841.0204
     -1105.3124
  10207742.19949   7954788.91847  23995344.8534   23995342.9664
     -3452.9284
   -622768.33649   -479267.81646  25530018.7514   25530016.7124
      2005.8964
  -7743187.04349  -6027401.95747  23370999.0404   23370994.8064
      1073.6634
   2153920.84049   1681510.73848  22772065.9854   22772063.6964
     -2596.7904
  -9337616.14549  -7745870.14548  22289341.2434   22289338.3804
       625.3524
 04  9 10 17 15 45.0050000  0  6G 1G11G16G23G25G20
  -2740868.85549  -2132914.78548  22052010.6964   22052008.7474
     -1109.7454
  10259618.15649   7995211.69947  24005216.4704   24005214.5754
     -3458.3974
   -652825.57049   -502688.96946  25524299.3764   25524297.0204
      2003.8164
  -7759237.50849  -6039908.81247  23367944.6344   23367939.8534
      1070.0314
   2192977.46549   1711944.46548  22779498.1104   22779495.6854
     -2603.7754
  -9346900.64149  -7753104.81648  22287574.2284   22287571.2474
       618.9664
 04  9 10 17 16  0.0050000  0  6G 1G11G16G23G25G20
  -2724158.07049  -2119893.39848  22055190.8924   22055188.7434
     -1114.0524
  10311573.95349   8035696.70747  24015103.0174   24015100.9354
     -3463.7204
   -682853.18449   -526087.07846  25518585.5874   25518583.1304
      2001.8414
  -7775235.24649  -6052374.56647  23364900.2204   23364895.3494
      1066.5164
   2232136.75049   1742458.18848  22786949.8604   22786948.0524
     -2610.6194
  -9356090.99649  -7760266.12548  22285825.2284   22285822.4234
       612.6904
 04  9 10 17 16 15.0050000  0  6G 1G11G16G23G25G20
  -2707381.52349  -2106820.77348  22058383.0094   22058381.1964
     -1118.4364
  10363610.39549   8076244.56347  24025005.5954   24025002.8494
     -3469.0964
   -712849.44149   -549460.74246  25512877.7044   25512874.9934
      1999.7514
  -7791179.06649  -6064798.30147  23361866.2124   23361861.7674
      1062.9214
   2271399.74249   1773052.71948  22794421.3534   22794419.1144
     -2617.5334
  -9365185.66049  -7767352.86348  22284094.1654   22284091.6964
       606.3114
 04  9 10 17 16 30.0050000  0  6G 1G11G16G23G25G20
  -2690538.82849  -2093696.59448  22061588.1964   22061586.0524
     -1122.8464
  10415727.68449   8116855.40647  24034922.9934   24034919.6264
     -3474.4864
   -742813.64849   -572809.43746  25507175.0564   25507173.0874
      1997.6144
  -7807068.53549  -6077179.68747  23358842.2984   23358838.3064
      1059.2984
   2310766.55149   1803728.14848  22801912.6574   22801910.5914
     -2624.4544
  -9374184.08249  -7774364.62148  22282382.0014   22282379.2984
       599.8954
 04  9 10 17 16 45.0050000  0  6G 1G11G16G23G25G20
  -2673630.49649  -2080521.27748  22064805.8134   22064803.5364
     -1127.2224
  10467924.99249   8157528.62547  24044856.0174   24044853.0714
     -3479.8214
   -772745.84449   -596133.17646  25501479.0954   25501478.3254
      1995.4804
  -7822904.02749  -6089519.00847  23355828.7904   23355824.5134
      1055.6994
   2350236.48449   1834483.91848  22809423.9464   22809421.3134
     -2631.3294
  -9383086.44549  -7781301.52348  22280688.0484   22280684.6774
       593.4914
 04  9 10 17 17  0.0050000  0  6G 1G11G16G23G25G20
  -2656656.00849  -2067294.41848  22068035.7284   22068033.4154
     -1131.6334
  10520202.60549   8198264.40647  24054804.7744   24054802.2634
     -3485.1744
   -802645.02049   -619431.19546  25495789.6034   25495788.6304
      1993.2784
  -7838684.87549  -6101815.76247  23352826.0564   23352821.6344
      1052.0574
   2389809.86349   1865320.31348  22816954.0174   22816951.8374
     -2638.2254
  -9391892.00049  -7788162.99648  22279012.5954   22279009.1654
       587.0374
 04  9 10 17 17 15.0050000  0  6G 1G11G16G23G25G20
  -2639616.76249  -2054017.08648  22071278.1184   22071276.1304
     -1135.9504
  10572558.73849   8239061.35947  24064767.3374   24064765.4704
     -3490.4094
   -832512.06649   -642704.15646  25490106.3064   25490104.8684
      1991.1364
  -7854412.38349  -6114070.95747  23349833.5634   23349829.1454
      1048.5014
   2429485.20749   1896236.14548  22824504.4074   22824501.9034
     -2645.0234
  -9400601.64149  -7794949.73848  22277354.9464   22277351.9234
       580.6434
 04  9 10 17 17 30.0050000  0  6G 1G11G16G23G25G20
  -2622510.65649  -2040687.65248  22074533.5324   22074531.4624
     -1140.4074
  10624995.39549   8279921.07847  24074745.6184   24074743.4784
     -3495.7774
   -862344.38349   -665950.06646  25484429.3924   25484428.1734
      1988.8214
  -7870084.35949  -6126282.87147  23346850.7204   23346846.5794
      1044.7984
   2469264.44949   1927232.95348  22832073.9934   22832071.5714
     -2651.9494
  -9409213.00449  -7801659.89848  22275716.4464   22275713.7314
       574.0914
 04  9 10 17 17 45.0050000  0  6G 1G11G16G23G25G20
  -2605338.81649  -2027306.99648  22077801.1884   22077799.7244
     -1144.7894
  10677511.12549   8320842.41447  24084739.4154   24084736.8294
     -3501.0494
   -892142.73849   -689169.52346  25478757.9234   25478757.3954
      1986.5574
  -7885701.78549  -6138452.27347  23343878.8134   23343874.6144
      1041.1624
   2509146.25449   1958309.66848  22839663.3684   22839660.3024
     -2658.7874
  -9417726.92249  -7808294.11348  22274096.1964   22274093.4354
       567.5954
 04  9 10 17 18  0.0050000  0  6G 1G11G16G23G25G20
  -2588100.40249  -2013874.48048  22081081.3454   22081079.7824
     -1149.2284
  10730106.54349   8361825.83247  24094747.2904   24094745.3604
     -3506.3614
   -921905.84449   -712361.50446  25473095.2434   25473093.6694
      1984.2074
  -7901263.79349  -6150578.49647  23340917.3994   23340913.0524
      1037.4674
   2549131.35549   1989466.88348  22847272.0874   22847269.6494
     -2665.6734
  -9426142.25049  -7814851.50448  22272494.5324   22272492.4234
       561.0224
 04  9 10 17 18 15.0050000  0  6G 1G11G16G23G25G20
  -2570797.60949  -2000391.78948  22084374.0564   22084371.9934
     -1153.5204
  10782779.09449   8402869.34447  24104770.7204   24104768.7284
     -3511.5034
   -951635.52049   -735527.43446  25467436.9934   25467436.6884
      1981.9784
  -7916772.53549  -6162663.21147  23337966.3134   23337961.8064
      1033.9164
   2589217.28549   2020702.65648  22854900.1344   22854897.4894
     -2672.3954
  -9434460.94149  -7821333.59448  22270911.7984   22270909.2704
       554.5794
 04  9 10 17 18 30.0050000  0  6G 1G11G16G23G25G20
  -2553428.05149  -1986857.07048  22087679.5324   22087677.0714
     -1157.9714
  10835530.89549   8443974.61747  24114809.3454   24114807.2434
     -3516.7874
   -981328.75449   -758664.97746  25461785.8374   25461785.6964
      1979.5494
  -7932225.41049  -6174704.39847  23335025.9854   23335020.9704
      1030.1924
   2629406.25049   2052018.72348  22862548.2594   22862545.4974
     -2679.2644
  -9442680.26249  -7827738.25448  22269347.3924   22269344.5914
       547.9554
 04  9 10 17 18 45.0050000  0  6G 1G11G16G23G25G20
  -2535992.94949  -1973271.29348  22090997.5324   22090995.0794
     -1162.3404
  10888360.49649   8485140.50847  24124862.1264   24124860.0834
     -3521.9734
  -1010986.36349   -781774.75446  25456141.8844   25456141.5954
      1977.1744
  -7947623.69949  -6186703.05947  23332095.6264   23332090.7864
      1026.5534
   2669696.91849   2083414.03548  22870215.3134   22870212.9664
     -2686.0454
  -9450801.19549  -7834066.25048  22267802.1424   22267799.4934
       541.3964
 04  9 10 17 19  0.0050000  0  6G 1G11G16G23G25G20
  -2518492.08249  -1959634.25448  22094327.5954   22094325.6494
     -1166.7244
  10941267.86749   8526367.01247  24134930.1034   24134928.0484
     -3527.1584
  -1040607.64549   -804856.23046  25450506.5404   25450504.6654
      1974.7524
  -7962966.89149  -6198658.78147  23329175.8604   23329171.1104
      1022.8794
   2710089.29749   2114888.62148  22877901.5794   22877899.2044
     -2692.8254
  -9458823.11349  -7840317.09448  22266275.3924   22266272.6734
       534.7954
